<?xml version="1.0" encoding="UTF-8" standalone="no" ?>
<gpx xmlns="http://www.topografix.com/GPX/1/1" xmlns:xsi="http://www.w3.org/2001/XMLSchema-instance" xsi:schemaLocation="http://www.topografix.com/GPX/1/1 http://www.topografix.com/GPX/1/1/gpx.xsd" version="1.1" creator="VisuGPX - https://www.visugpx.com">
  <metadata>
    <name>Baume-les-Messieurs</name>
    <desc><![CDATA[Rando à partir du village de Lavigny vers la reculée de Baume, parcours varié avec de raides montées et descentes, au passage visiter l'abbaye...]]></desc>
  </metadata>
  <trk>
    <name><![CDATA[Tracé actuel: 20 MAI 2017 08:55]]></name>
    <trkseg>
      <trkpt lat="46.71566" lon="5.59594">
        <ele>358.71</ele>
        <time>2017-05-20T06:55:54Z</time>
      </trkpt>
      <trkpt lat="46.71566" lon="5.59595">
        <ele>359.19</ele>
        <time>2017-05-20T06:56:11Z</time>
      </trkpt>
      <trkpt lat="46.71567" lon="5.59595">
        <ele>358.71</ele>
        <time>2017-05-20T06:56:31Z</time>
      </trkpt>
      <trkpt lat="46.71566" lon="5.59596">
        <ele>358.71</ele>
        <time>2017-05-20T06:56:52Z</time>
      </trkpt>
      <trkpt lat="46.71566" lon="5.59594">
        <ele>358.71</ele>
        <time>2017-05-20T06:57:06Z</time>
      </trkpt>
      <trkpt lat="46.71565" lon="5.59594">
        <ele>358.23</ele>
        <time>2017-05-20T06:57:07Z</time>
      </trkpt>
      <trkpt lat="46.71561" lon="5.59581">
        <ele>357.75</ele>
        <time>2017-05-20T06:57:21Z</time>
      </trkpt>
      <trkpt lat="46.71561" lon="5.5958">
        <ele>357.75</ele>
        <time>2017-05-20T06:57:22Z</time>
      </trkpt>
      <trkpt lat="46.7157" lon="5.59561">
        <ele>356.31</ele>
        <time>2017-05-20T06:57:37Z</time>
      </trkpt>
      <trkpt lat="46.7159" lon="5.59567">
        <ele>355.83</ele>
        <time>2017-05-20T06:57:55Z</time>
      </trkpt>
      <trkpt lat="46.71587" lon="5.59593">
        <ele>357.27</ele>
        <time>2017-05-20T06:58:10Z</time>
      </trkpt>
      <trkpt lat="46.71584" lon="5.59612">
        <ele>358.23</ele>
        <time>2017-05-20T06:58:24Z</time>
      </trkpt>
      <trkpt lat="46.71581" lon="5.59633">
        <ele>360.15</ele>
        <time>2017-05-20T06:58:40Z</time>
      </trkpt>
      <trkpt lat="46.71578" lon="5.59639">
        <ele>360.15</ele>
        <time>2017-05-20T06:58:46Z</time>
      </trkpt>
      <trkpt lat="46.71567" lon="5.59663">
        <ele>362.55</ele>
        <time>2017-05-20T06:59:07Z</time>
      </trkpt>
      <trkpt lat="46.71559" lon="5.59698">
        <ele>364.48</ele>
        <time>2017-05-20T06:59:27Z</time>
      </trkpt>
      <trkpt lat="46.71566" lon="5.59715">
        <ele>365.92</ele>
        <time>2017-05-20T06:59:47Z</time>
      </trkpt>
      <trkpt lat="46.71572" lon="5.59716">
        <ele>364.96</ele>
        <time>2017-05-20T06:59:53Z</time>
      </trkpt>
      <trkpt lat="46.71581" lon="5.59719">
        <ele>364</ele>
        <time>2017-05-20T07:00:10Z</time>
      </trkpt>
      <trkpt lat="46.71601" lon="5.59729">
        <ele>363.04</ele>
        <time>2017-05-20T07:00:26Z</time>
      </trkpt>
      <trkpt lat="46.71637" lon="5.5975">
        <ele>362.07</ele>
        <time>2017-05-20T07:00:44Z</time>
      </trkpt>
      <trkpt lat="46.71645" lon="5.59755">
        <ele>360.15</ele>
        <time>2017-05-20T07:00:59Z</time>
      </trkpt>
      <trkpt lat="46.71656" lon="5.59765">
        <ele>359.67</ele>
        <time>2017-05-20T07:01:14Z</time>
      </trkpt>
      <trkpt lat="46.71678" lon="5.59771">
        <ele>359.67</ele>
        <time>2017-05-20T07:01:30Z</time>
      </trkpt>
      <trkpt lat="46.71684" lon="5.59785">
        <ele>360.63</ele>
        <time>2017-05-20T07:01:43Z</time>
      </trkpt>
      <trkpt lat="46.71681" lon="5.59804">
        <ele>362.07</ele>
        <time>2017-05-20T07:01:59Z</time>
      </trkpt>
      <trkpt lat="46.7168" lon="5.59817">
        <ele>363.52</ele>
        <time>2017-05-20T07:02:14Z</time>
      </trkpt>
      <trkpt lat="46.71679" lon="5.59823">
        <ele>363.52</ele>
        <time>2017-05-20T07:02:17Z</time>
      </trkpt>
      <trkpt lat="46.71674" lon="5.59842">
        <ele>365.44</ele>
        <time>2017-05-20T07:02:33Z</time>
      </trkpt>
      <trkpt lat="46.7167" lon="5.59856">
        <ele>365.92</ele>
        <time>2017-05-20T07:02:49Z</time>
      </trkpt>
      <trkpt lat="46.71669" lon="5.59868">
        <ele>367.84</ele>
        <time>2017-05-20T07:03:02Z</time>
      </trkpt>
      <trkpt lat="46.71662" lon="5.59883">
        <ele>369.76</ele>
        <time>2017-05-20T07:03:17Z</time>
      </trkpt>
      <trkpt lat="46.71654" lon="5.59895">
        <ele>371.21</ele>
        <time>2017-05-20T07:03:32Z</time>
      </trkpt>
      <trkpt lat="46.71647" lon="5.59904">
        <ele>373.61</ele>
        <time>2017-05-20T07:03:47Z</time>
      </trkpt>
      <trkpt lat="46.71639" lon="5.59915">
        <ele>376.01</ele>
        <time>2017-05-20T07:04:02Z</time>
      </trkpt>
      <trkpt lat="46.71632" lon="5.59929">
        <ele>377.94</ele>
        <time>2017-05-20T07:04:17Z</time>
      </trkpt>
      <trkpt lat="46.71627" lon="5.5994">
        <ele>379.38</ele>
        <time>2017-05-20T07:04:31Z</time>
      </trkpt>
      <trkpt lat="46.71622" lon="5.59952">
        <ele>381.3</ele>
        <time>2017-05-20T07:04:44Z</time>
      </trkpt>
      <trkpt lat="46.71615" lon="5.59964">
        <ele>383.22</ele>
        <time>2017-05-20T07:04:58Z</time>
      </trkpt>
      <trkpt lat="46.71608" lon="5.59972">
        <ele>385.15</ele>
        <time>2017-05-20T07:05:12Z</time>
      </trkpt>
      <trkpt lat="46.71603" lon="5.59981">
        <ele>386.59</ele>
        <time>2017-05-20T07:05:23Z</time>
      </trkpt>
      <trkpt lat="46.71598" lon="5.59995">
        <ele>388.51</ele>
        <time>2017-05-20T07:05:39Z</time>
      </trkpt>
      <trkpt lat="46.71592" lon="5.60005">
        <ele>390.91</ele>
        <time>2017-05-20T07:05:55Z</time>
      </trkpt>
      <trkpt lat="46.71583" lon="5.60012">
        <ele>392.84</ele>
        <time>2017-05-20T07:06:10Z</time>
      </trkpt>
      <trkpt lat="46.71575" lon="5.60021">
        <ele>394.76</ele>
        <time>2017-05-20T07:06:27Z</time>
      </trkpt>
      <trkpt lat="46.71568" lon="5.60031">
        <ele>396.68</ele>
        <time>2017-05-20T07:06:42Z</time>
      </trkpt>
      <trkpt lat="46.71558" lon="5.60046">
        <ele>398.12</ele>
        <time>2017-05-20T07:06:59Z</time>
      </trkpt>
      <trkpt lat="46.71553" lon="5.60056">
        <ele>400.53</ele>
        <time>2017-05-20T07:07:13Z</time>
      </trkpt>
      <trkpt lat="46.71549" lon="5.60063">
        <ele>401.97</ele>
        <time>2017-05-20T07:07:28Z</time>
      </trkpt>
      <trkpt lat="46.71538" lon="5.60074">
        <ele>403.89</ele>
        <time>2017-05-20T07:07:45Z</time>
      </trkpt>
      <trkpt lat="46.71534" lon="5.60077">
        <ele>405.81</ele>
        <time>2017-05-20T07:08:03Z</time>
      </trkpt>
      <trkpt lat="46.71528" lon="5.60088">
        <ele>409.18</ele>
        <time>2017-05-20T07:08:19Z</time>
      </trkpt>
      <trkpt lat="46.71526" lon="5.60097">
        <ele>410.62</ele>
        <time>2017-05-20T07:08:37Z</time>
      </trkpt>
      <trkpt lat="46.71526" lon="5.60106">
        <ele>413.5</ele>
        <time>2017-05-20T07:08:54Z</time>
      </trkpt>
      <trkpt lat="46.71527" lon="5.6011">
        <ele>416.39</ele>
        <time>2017-05-20T07:09:15Z</time>
      </trkpt>
      <trkpt lat="46.71523" lon="5.60122">
        <ele>418.31</ele>
        <time>2017-05-20T07:09:34Z</time>
      </trkpt>
      <trkpt lat="46.71517" lon="5.60153">
        <ele>419.27</ele>
        <time>2017-05-20T07:09:51Z</time>
      </trkpt>
      <trkpt lat="46.71523" lon="5.60173">
        <ele>419.75</ele>
        <time>2017-05-20T07:10:07Z</time>
      </trkpt>
      <trkpt lat="46.71531" lon="5.60183">
        <ele>418.79</ele>
        <time>2017-05-20T07:10:27Z</time>
      </trkpt>
      <trkpt lat="46.71525" lon="5.6018">
        <ele>418.79</ele>
        <time>2017-05-20T07:10:38Z</time>
      </trkpt>
      <trkpt lat="46.71507" lon="5.60168">
        <ele>418.79</ele>
        <time>2017-05-20T07:10:53Z</time>
      </trkpt>
      <trkpt lat="46.71503" lon="5.60163">
        <ele>430.33</ele>
        <time>2017-05-20T07:10:59Z</time>
      </trkpt>
      <trkpt lat="46.71502" lon="5.60162">
        <ele>420.23</ele>
        <time>2017-05-20T07:11:00Z</time>
      </trkpt>
      <trkpt lat="46.71502" lon="5.60161">
        <ele>419.75</ele>
        <time>2017-05-20T07:11:01Z</time>
      </trkpt>
      <trkpt lat="46.71499" lon="5.6016">
        <ele>418.79</ele>
        <time>2017-05-20T07:11:03Z</time>
      </trkpt>
      <trkpt lat="46.71494" lon="5.60154">
        <ele>419.27</ele>
        <time>2017-05-20T07:11:08Z</time>
      </trkpt>
      <trkpt lat="46.71475" lon="5.60136">
        <ele>419.75</ele>
        <time>2017-05-20T07:11:22Z</time>
      </trkpt>
      <trkpt lat="46.71471" lon="5.60131">
        <ele>419.75</ele>
        <time>2017-05-20T07:11:38Z</time>
      </trkpt>
      <trkpt lat="46.71467" lon="5.60135">
        <ele>421.68</ele>
        <time>2017-05-20T07:12:00Z</time>
      </trkpt>
      <trkpt lat="46.71461" lon="5.60156">
        <ele>425.04</ele>
        <time>2017-05-20T07:12:16Z</time>
      </trkpt>
      <trkpt lat="46.71466" lon="5.6017">
        <ele>427.92</ele>
        <time>2017-05-20T07:12:34Z</time>
      </trkpt>
      <trkpt lat="46.71476" lon="5.60188">
        <ele>430.33</ele>
        <time>2017-05-20T07:12:49Z</time>
      </trkpt>
      <trkpt lat="46.71479" lon="5.60198">
        <ele>430.81</ele>
        <time>2017-05-20T07:13:06Z</time>
      </trkpt>
      <trkpt lat="46.71482" lon="5.60202">
        <ele>430.81</ele>
        <time>2017-05-20T07:13:27Z</time>
      </trkpt>
      <trkpt lat="46.71485" lon="5.60211">
        <ele>431.77</ele>
        <time>2017-05-20T07:13:44Z</time>
      </trkpt>
      <trkpt lat="46.71496" lon="5.60225">
        <ele>432.25</ele>
        <time>2017-05-20T07:13:57Z</time>
      </trkpt>
      <trkpt lat="46.71513" lon="5.60244">
        <ele>434.17</ele>
        <time>2017-05-20T07:14:14Z</time>
      </trkpt>
      <trkpt lat="46.71529" lon="5.60252">
        <ele>436.58</ele>
        <time>2017-05-20T07:14:29Z</time>
      </trkpt>
      <trkpt lat="46.71542" lon="5.60262">
        <ele>437.54</ele>
        <time>2017-05-20T07:14:43Z</time>
      </trkpt>
      <trkpt lat="46.71552" lon="5.60278">
        <ele>439.46</ele>
        <time>2017-05-20T07:15:01Z</time>
      </trkpt>
      <trkpt lat="46.71557" lon="5.6029">
        <ele>441.38</ele>
        <time>2017-05-20T07:15:17Z</time>
      </trkpt>
      <trkpt lat="46.71566" lon="5.60297">
        <ele>441.86</ele>
        <time>2017-05-20T07:15:29Z</time>
      </trkpt>
      <trkpt lat="46.71572" lon="5.60303">
        <ele>442.82</ele>
        <time>2017-05-20T07:15:39Z</time>
      </trkpt>
      <trkpt lat="46.71571" lon="5.60305">
        <ele>441.86</ele>
        <time>2017-05-20T07:15:56Z</time>
      </trkpt>
      <trkpt lat="46.71571" lon="5.60305">
        <ele>442.34</ele>
        <time>2017-05-20T07:16:20Z</time>
      </trkpt>
      <trkpt lat="46.7157" lon="5.60305">
        <ele>441.86</ele>
        <time>2017-05-20T07:16:44Z</time>
      </trkpt>
      <trkpt lat="46.71576" lon="5.60311">
        <ele>442.34</ele>
        <time>2017-05-20T07:16:54Z</time>
      </trkpt>
      <trkpt lat="46.71591" lon="5.60321">
        <ele>443.31</ele>
        <time>2017-05-20T07:17:08Z</time>
      </trkpt>
      <trkpt lat="46.71605" lon="5.6033">
        <ele>444.27</ele>
        <time>2017-05-20T07:17:22Z</time>
      </trkpt>
      <trkpt lat="46.71619" lon="5.6034">
        <ele>445.71</ele>
        <time>2017-05-20T07:17:36Z</time>
      </trkpt>
      <trkpt lat="46.71624" lon="5.60346">
        <ele>447.15</ele>
        <time>2017-05-20T07:17:48Z</time>
      </trkpt>
      <trkpt lat="46.71631" lon="5.60353">
        <ele>448.59</ele>
        <time>2017-05-20T07:18:02Z</time>
      </trkpt>
      <trkpt lat="46.71649" lon="5.60358">
        <ele>450.03</ele>
        <time>2017-05-20T07:18:15Z</time>
      </trkpt>
      <trkpt lat="46.71659" lon="5.60363">
        <ele>451.48</ele>
        <time>2017-05-20T07:18:29Z</time>
      </trkpt>
      <trkpt lat="46.71667" lon="5.60371">
        <ele>453.4</ele>
        <time>2017-05-20T07:18:45Z</time>
      </trkpt>
      <trkpt lat="46.71675" lon="5.60378">
        <ele>454.84</ele>
        <time>2017-05-20T07:18:57Z</time>
      </trkpt>
      <trkpt lat="46.71677" lon="5.60385">
        <ele>455.8</ele>
        <time>2017-05-20T07:19:11Z</time>
      </trkpt>
      <trkpt lat="46.71683" lon="5.60392">
        <ele>457.24</ele>
        <time>2017-05-20T07:19:26Z</time>
      </trkpt>
      <trkpt lat="46.71691" lon="5.60402">
        <ele>459.17</ele>
        <time>2017-05-20T07:19:42Z</time>
      </trkpt>
      <trkpt lat="46.71703" lon="5.60411">
        <ele>460.13</ele>
        <time>2017-05-20T07:19:56Z</time>
      </trkpt>
      <trkpt lat="46.71708" lon="5.60417">
        <ele>461.57</ele>
        <time>2017-05-20T07:20:10Z</time>
      </trkpt>
      <trkpt lat="46.71719" lon="5.60426">
        <ele>462.53</ele>
        <time>2017-05-20T07:20:22Z</time>
      </trkpt>
      <trkpt lat="46.71733" lon="5.60434">
        <ele>463.49</ele>
        <time>2017-05-20T07:20:34Z</time>
      </trkpt>
      <trkpt lat="46.71735" lon="5.60436">
        <ele>464.93</ele>
        <time>2017-05-20T07:20:47Z</time>
      </trkpt>
      <trkpt lat="46.71742" lon="5.60444">
        <ele>466.38</ele>
        <time>2017-05-20T07:20:59Z</time>
      </trkpt>
      <trkpt lat="46.71755" lon="5.60457">
        <ele>466.86</ele>
        <time>2017-05-20T07:21:14Z</time>
      </trkpt>
      <trkpt lat="46.71763" lon="5.60465">
        <ele>468.3</ele>
        <time>2017-05-20T07:21:27Z</time>
      </trkpt>
      <trkpt lat="46.7177" lon="5.60475">
        <ele>469.26</ele>
        <time>2017-05-20T07:21:42Z</time>
      </trkpt>
      <trkpt lat="46.71778" lon="5.60483">
        <ele>470.22</ele>
        <time>2017-05-20T07:21:56Z</time>
      </trkpt>
      <trkpt lat="46.71797" lon="5.60499">
        <ele>471.18</ele>
        <time>2017-05-20T07:22:10Z</time>
      </trkpt>
      <trkpt lat="46.71812" lon="5.60507">
        <ele>471.66</ele>
        <time>2017-05-20T07:22:23Z</time>
      </trkpt>
      <trkpt lat="46.71823" lon="5.60521">
        <ele>472.63</ele>
        <time>2017-05-20T07:22:37Z</time>
      </trkpt>
      <trkpt lat="46.71838" lon="5.6053">
        <ele>474.07</ele>
        <time>2017-05-20T07:22:53Z</time>
      </trkpt>
      <trkpt lat="46.71851" lon="5.60539">
        <ele>475.03</ele>
        <time>2017-05-20T07:23:08Z</time>
      </trkpt>
      <trkpt lat="46.71859" lon="5.60547">
        <ele>475.51</ele>
        <time>2017-05-20T07:23:20Z</time>
      </trkpt>
      <trkpt lat="46.71873" lon="5.60558">
        <ele>475.99</ele>
        <time>2017-05-20T07:23:33Z</time>
      </trkpt>
      <trkpt lat="46.71886" lon="5.60571">
        <ele>476.47</ele>
        <time>2017-05-20T07:23:47Z</time>
      </trkpt>
      <trkpt lat="46.719" lon="5.60585">
        <ele>476.95</ele>
        <time>2017-05-20T07:24:01Z</time>
      </trkpt>
      <trkpt lat="46.71918" lon="5.60597">
        <ele>477.43</ele>
        <time>2017-05-20T07:24:16Z</time>
      </trkpt>
      <trkpt lat="46.7193" lon="5.60604">
        <ele>477.91</ele>
        <time>2017-05-20T07:24:30Z</time>
      </trkpt>
      <trkpt lat="46.71952" lon="5.60617">
        <ele>479.35</ele>
        <time>2017-05-20T07:24:45Z</time>
      </trkpt>
      <trkpt lat="46.71962" lon="5.60634">
        <ele>479.35</ele>
        <time>2017-05-20T07:24:59Z</time>
      </trkpt>
      <trkpt lat="46.71962" lon="5.60657">
        <ele>481.28</ele>
        <time>2017-05-20T07:25:16Z</time>
      </trkpt>
      <trkpt lat="46.71962" lon="5.60673">
        <ele>482.72</ele>
        <time>2017-05-20T07:25:32Z</time>
      </trkpt>
      <trkpt lat="46.71965" lon="5.60693">
        <ele>484.16</ele>
        <time>2017-05-20T07:25:49Z</time>
      </trkpt>
      <trkpt lat="46.71963" lon="5.60708">
        <ele>483.2</ele>
        <time>2017-05-20T07:26:05Z</time>
      </trkpt>
      <trkpt lat="46.71948" lon="5.60741">
        <ele>481.76</ele>
        <time>2017-05-20T07:26:20Z</time>
      </trkpt>
      <trkpt lat="46.71939" lon="5.60769">
        <ele>480.32</ele>
        <time>2017-05-20T07:26:37Z</time>
      </trkpt>
      <trkpt lat="46.71929" lon="5.60791">
        <ele>478.87</ele>
        <time>2017-05-20T07:26:51Z</time>
      </trkpt>
      <trkpt lat="46.71921" lon="5.60827">
        <ele>476.95</ele>
        <time>2017-05-20T07:27:09Z</time>
      </trkpt>
      <trkpt lat="46.71921" lon="5.60829">
        <ele>476.95</ele>
        <time>2017-05-20T07:27:10Z</time>
      </trkpt>
      <trkpt lat="46.71919" lon="5.60853">
        <ele>475.51</ele>
        <time>2017-05-20T07:27:25Z</time>
      </trkpt>
      <trkpt lat="46.71919" lon="5.6088">
        <ele>475.03</ele>
        <time>2017-05-20T07:27:41Z</time>
      </trkpt>
      <trkpt lat="46.71923" lon="5.60903">
        <ele>475.03</ele>
        <time>2017-05-20T07:27:55Z</time>
      </trkpt>
      <trkpt lat="46.71927" lon="5.60919">
        <ele>474.55</ele>
        <time>2017-05-20T07:28:07Z</time>
      </trkpt>
      <trkpt lat="46.71928" lon="5.60919">
        <ele>474.07</ele>
        <time>2017-05-20T07:28:25Z</time>
      </trkpt>
      <trkpt lat="46.71929" lon="5.60921">
        <ele>474.07</ele>
        <time>2017-05-20T07:28:38Z</time>
      </trkpt>
      <trkpt lat="46.71939" lon="5.60935">
        <ele>473.59</ele>
        <time>2017-05-20T07:28:53Z</time>
      </trkpt>
      <trkpt lat="46.71954" lon="5.60945">
        <ele>474.07</ele>
        <time>2017-05-20T07:29:07Z</time>
      </trkpt>
      <trkpt lat="46.7196" lon="5.60959">
        <ele>474.07</ele>
        <time>2017-05-20T07:29:19Z</time>
      </trkpt>
      <trkpt lat="46.71951" lon="5.60975">
        <ele>473.59</ele>
        <time>2017-05-20T07:29:30Z</time>
      </trkpt>
      <trkpt lat="46.71943" lon="5.61004">
        <ele>473.11</ele>
        <time>2017-05-20T07:29:46Z</time>
      </trkpt>
      <trkpt lat="46.71935" lon="5.61039">
        <ele>473.11</ele>
        <time>2017-05-20T07:30:02Z</time>
      </trkpt>
      <trkpt lat="46.71936" lon="5.61046">
        <ele>472.63</ele>
        <time>2017-05-20T07:30:06Z</time>
      </trkpt>
      <trkpt lat="46.71939" lon="5.61077">
        <ele>473.11</ele>
        <time>2017-05-20T07:30:23Z</time>
      </trkpt>
      <trkpt lat="46.71938" lon="5.61083">
        <ele>473.59</ele>
        <time>2017-05-20T07:30:27Z</time>
      </trkpt>
      <trkpt lat="46.71932" lon="5.611">
        <ele>472.14</ele>
        <time>2017-05-20T07:30:39Z</time>
      </trkpt>
      <trkpt lat="46.71917" lon="5.61112">
        <ele>471.18</ele>
        <time>2017-05-20T07:30:54Z</time>
      </trkpt>
      <trkpt lat="46.71904" lon="5.61121">
        <ele>469.74</ele>
        <time>2017-05-20T07:31:08Z</time>
      </trkpt>
      <trkpt lat="46.71888" lon="5.61133">
        <ele>468.3</ele>
        <time>2017-05-20T07:31:24Z</time>
      </trkpt>
      <trkpt lat="46.71871" lon="5.61159">
        <ele>466.86</ele>
        <time>2017-05-20T07:31:40Z</time>
      </trkpt>
      <trkpt lat="46.71862" lon="5.61169">
        <ele>465.9</ele>
        <time>2017-05-20T07:31:47Z</time>
      </trkpt>
      <trkpt lat="46.71848" lon="5.61192">
        <ele>464.93</ele>
        <time>2017-05-20T07:32:03Z</time>
      </trkpt>
      <trkpt lat="46.71841" lon="5.61207">
        <ele>463.49</ele>
        <time>2017-05-20T07:32:16Z</time>
      </trkpt>
      <trkpt lat="46.71841" lon="5.61208">
        <ele>463.49</ele>
        <time>2017-05-20T07:32:17Z</time>
      </trkpt>
      <trkpt lat="46.71835" lon="5.61233">
        <ele>462.05</ele>
        <time>2017-05-20T07:32:27Z</time>
      </trkpt>
      <trkpt lat="46.71827" lon="5.61262">
        <ele>462.05</ele>
        <time>2017-05-20T07:32:42Z</time>
      </trkpt>
      <trkpt lat="46.71822" lon="5.6129">
        <ele>461.57</ele>
        <time>2017-05-20T07:32:56Z</time>
      </trkpt>
      <trkpt lat="46.71817" lon="5.6132">
        <ele>461.57</ele>
        <time>2017-05-20T07:33:12Z</time>
      </trkpt>
      <trkpt lat="46.71811" lon="5.61348">
        <ele>462.53</ele>
        <time>2017-05-20T07:33:27Z</time>
      </trkpt>
      <trkpt lat="46.71807" lon="5.61371">
        <ele>462.05</ele>
        <time>2017-05-20T07:33:40Z</time>
      </trkpt>
      <trkpt lat="46.71805" lon="5.61379">
        <ele>462.05</ele>
        <time>2017-05-20T07:33:45Z</time>
      </trkpt>
      <trkpt lat="46.71801" lon="5.61409">
        <ele>460.13</ele>
        <time>2017-05-20T07:34:02Z</time>
      </trkpt>
      <trkpt lat="46.71793" lon="5.61435">
        <ele>459.17</ele>
        <time>2017-05-20T07:34:17Z</time>
      </trkpt>
      <trkpt lat="46.71783" lon="5.61459">
        <ele>459.17</ele>
        <time>2017-05-20T07:34:32Z</time>
      </trkpt>
      <trkpt lat="46.71781" lon="5.61462">
        <ele>458.69</ele>
        <time>2017-05-20T07:34:34Z</time>
      </trkpt>
      <trkpt lat="46.71778" lon="5.61471">
        <ele>459.17</ele>
        <time>2017-05-20T07:34:39Z</time>
      </trkpt>
      <trkpt lat="46.71767" lon="5.61491">
        <ele>460.61</ele>
        <time>2017-05-20T07:34:53Z</time>
      </trkpt>
      <trkpt lat="46.71758" lon="5.61509">
        <ele>461.57</ele>
        <time>2017-05-20T07:35:07Z</time>
      </trkpt>
      <trkpt lat="46.71753" lon="5.61522">
        <ele>462.05</ele>
        <time>2017-05-20T07:35:16Z</time>
      </trkpt>
      <trkpt lat="46.71747" lon="5.61541">
        <ele>463.01</ele>
        <time>2017-05-20T07:35:28Z</time>
      </trkpt>
      <trkpt lat="46.71741" lon="5.61564">
        <ele>464.45</ele>
        <time>2017-05-20T07:35:42Z</time>
      </trkpt>
      <trkpt lat="46.71737" lon="5.61586">
        <ele>465.42</ele>
        <time>2017-05-20T07:35:56Z</time>
      </trkpt>
      <trkpt lat="46.71734" lon="5.61605">
        <ele>466.38</ele>
        <time>2017-05-20T07:36:08Z</time>
      </trkpt>
      <trkpt lat="46.71728" lon="5.61629">
        <ele>467.82</ele>
        <time>2017-05-20T07:36:23Z</time>
      </trkpt>
      <trkpt lat="46.71724" lon="5.61649">
        <ele>469.26</ele>
        <time>2017-05-20T07:36:37Z</time>
      </trkpt>
      <trkpt lat="46.71721" lon="5.6166">
        <ele>469.26</ele>
        <time>2017-05-20T07:36:44Z</time>
      </trkpt>
      <trkpt lat="46.71711" lon="5.61684">
        <ele>470.7</ele>
        <time>2017-05-20T07:37:01Z</time>
      </trkpt>
      <trkpt lat="46.71701" lon="5.61707">
        <ele>471.66</ele>
        <time>2017-05-20T07:37:17Z</time>
      </trkpt>
      <trkpt lat="46.71693" lon="5.61727">
        <ele>472.14</ele>
        <time>2017-05-20T07:37:32Z</time>
      </trkpt>
      <trkpt lat="46.71685" lon="5.61749">
        <ele>473.11</ele>
        <time>2017-05-20T07:37:47Z</time>
      </trkpt>
      <trkpt lat="46.71683" lon="5.61755">
        <ele>473.11</ele>
        <time>2017-05-20T07:37:51Z</time>
      </trkpt>
      <trkpt lat="46.71674" lon="5.61777">
        <ele>474.55</ele>
        <time>2017-05-20T07:38:06Z</time>
      </trkpt>
      <trkpt lat="46.71673" lon="5.61781">
        <ele>475.03</ele>
        <time>2017-05-20T07:38:08Z</time>
      </trkpt>
      <trkpt lat="46.71666" lon="5.61805">
        <ele>475.51</ele>
        <time>2017-05-20T07:38:23Z</time>
      </trkpt>
      <trkpt lat="46.71666" lon="5.6181">
        <ele>475.51</ele>
        <time>2017-05-20T07:38:26Z</time>
      </trkpt>
      <trkpt lat="46.71666" lon="5.61815">
        <ele>475.03</ele>
        <time>2017-05-20T07:38:30Z</time>
      </trkpt>
      <trkpt lat="46.71663" lon="5.61836">
        <ele>475.51</ele>
        <time>2017-05-20T07:38:43Z</time>
      </trkpt>
      <trkpt lat="46.7166" lon="5.61855">
        <ele>475.99</ele>
        <time>2017-05-20T07:38:54Z</time>
      </trkpt>
      <trkpt lat="46.71656" lon="5.6188">
        <ele>475.99</ele>
        <time>2017-05-20T07:39:09Z</time>
      </trkpt>
      <trkpt lat="46.71652" lon="5.61901">
        <ele>476.47</ele>
        <time>2017-05-20T07:39:21Z</time>
      </trkpt>
      <trkpt lat="46.71646" lon="5.61923">
        <ele>476.95</ele>
        <time>2017-05-20T07:39:35Z</time>
      </trkpt>
      <trkpt lat="46.71637" lon="5.61946">
        <ele>476.47</ele>
        <time>2017-05-20T07:39:50Z</time>
      </trkpt>
      <trkpt lat="46.71625" lon="5.6197">
        <ele>477.43</ele>
        <time>2017-05-20T07:40:07Z</time>
      </trkpt>
      <trkpt lat="46.71613" lon="5.61991">
        <ele>477.91</ele>
        <time>2017-05-20T07:40:23Z</time>
      </trkpt>
      <trkpt lat="46.71601" lon="5.62011">
        <ele>478.87</ele>
        <time>2017-05-20T07:40:41Z</time>
      </trkpt>
      <trkpt lat="46.7159" lon="5.62026">
        <ele>480.32</ele>
        <time>2017-05-20T07:40:56Z</time>
      </trkpt>
      <trkpt lat="46.71577" lon="5.62044">
        <ele>481.76</ele>
        <time>2017-05-20T07:41:13Z</time>
      </trkpt>
      <trkpt lat="46.71568" lon="5.62063">
        <ele>483.68</ele>
        <time>2017-05-20T07:41:30Z</time>
      </trkpt>
      <trkpt lat="46.71556" lon="5.62082">
        <ele>485.6</ele>
        <time>2017-05-20T07:41:45Z</time>
      </trkpt>
      <trkpt lat="46.71548" lon="5.62095">
        <ele>486.56</ele>
        <time>2017-05-20T07:41:57Z</time>
      </trkpt>
      <trkpt lat="46.71547" lon="5.621">
        <ele>486.56</ele>
        <time>2017-05-20T07:42:09Z</time>
      </trkpt>
      <trkpt lat="46.71547" lon="5.621">
        <ele>486.56</ele>
        <time>2017-05-20T07:42:20Z</time>
      </trkpt>
      <trkpt lat="46.7155" lon="5.62101">
        <ele>487.05</ele>
        <time>2017-05-20T07:42:42Z</time>
      </trkpt>
      <trkpt lat="46.7155" lon="5.621">
        <ele>487.05</ele>
        <time>2017-05-20T07:43:01Z</time>
      </trkpt>
      <trkpt lat="46.71549" lon="5.62101">
        <ele>487.05</ele>
        <time>2017-05-20T07:43:24Z</time>
      </trkpt>
      <trkpt lat="46.71545" lon="5.62108">
        <ele>487.05</ele>
        <time>2017-05-20T07:43:39Z</time>
      </trkpt>
      <trkpt lat="46.71544" lon="5.62108">
        <ele>487.53</ele>
        <time>2017-05-20T07:43:49Z</time>
      </trkpt>
      <trkpt lat="46.71532" lon="5.62115">
        <ele>488.01</ele>
        <time>2017-05-20T07:44:07Z</time>
      </trkpt>
      <trkpt lat="46.71528" lon="5.6212">
        <ele>487.53</ele>
        <time>2017-05-20T07:44:21Z</time>
      </trkpt>
      <trkpt lat="46.71527" lon="5.6212">
        <ele>487.53</ele>
        <time>2017-05-20T07:44:35Z</time>
      </trkpt>
      <trkpt lat="46.71524" lon="5.6212">
        <ele>487.05</ele>
        <time>2017-05-20T07:44:51Z</time>
      </trkpt>
      <trkpt lat="46.71514" lon="5.62123">
        <ele>485.12</ele>
        <time>2017-05-20T07:45:05Z</time>
      </trkpt>
      <trkpt lat="46.71506" lon="5.6213">
        <ele>484.64</ele>
        <time>2017-05-20T07:45:22Z</time>
      </trkpt>
      <trkpt lat="46.71507" lon="5.6213">
        <ele>485.6</ele>
        <time>2017-05-20T07:45:36Z</time>
      </trkpt>
      <trkpt lat="46.71509" lon="5.6213">
        <ele>485.12</ele>
        <time>2017-05-20T07:46:07Z</time>
      </trkpt>
      <trkpt lat="46.71502" lon="5.62134">
        <ele>482.72</ele>
        <time>2017-05-20T07:46:20Z</time>
      </trkpt>
      <trkpt lat="46.71487" lon="5.62136">
        <ele>479.35</ele>
        <time>2017-05-20T07:46:36Z</time>
      </trkpt>
      <trkpt lat="46.7148" lon="5.62136">
        <ele>476.95</ele>
        <time>2017-05-20T07:46:49Z</time>
      </trkpt>
      <trkpt lat="46.71463" lon="5.62135">
        <ele>474.55</ele>
        <time>2017-05-20T07:47:03Z</time>
      </trkpt>
      <trkpt lat="46.71435" lon="5.62138">
        <ele>472.14</ele>
        <time>2017-05-20T07:47:20Z</time>
      </trkpt>
      <trkpt lat="46.71419" lon="5.62138">
        <ele>469.74</ele>
        <time>2017-05-20T07:47:35Z</time>
      </trkpt>
      <trkpt lat="46.71412" lon="5.62143">
        <ele>469.26</ele>
        <time>2017-05-20T07:47:49Z</time>
      </trkpt>
      <trkpt lat="46.71399" lon="5.62156">
        <ele>467.82</ele>
        <time>2017-05-20T07:48:02Z</time>
      </trkpt>
      <trkpt lat="46.71387" lon="5.62173">
        <ele>466.86</ele>
        <time>2017-05-20T07:48:16Z</time>
      </trkpt>
      <trkpt lat="46.7138" lon="5.62182">
        <ele>466.86</ele>
        <time>2017-05-20T07:48:29Z</time>
      </trkpt>
      <trkpt lat="46.7137" lon="5.62209">
        <ele>466.86</ele>
        <time>2017-05-20T07:48:45Z</time>
      </trkpt>
      <trkpt lat="46.71357" lon="5.62223">
        <ele>466.86</ele>
        <time>2017-05-20T07:48:57Z</time>
      </trkpt>
      <trkpt lat="46.7135" lon="5.62233">
        <ele>466.86</ele>
        <time>2017-05-20T07:49:09Z</time>
      </trkpt>
      <trkpt lat="46.71345" lon="5.62241">
        <ele>466.38</ele>
        <time>2017-05-20T07:49:22Z</time>
      </trkpt>
      <trkpt lat="46.71342" lon="5.62252">
        <ele>464.93</ele>
        <time>2017-05-20T07:49:35Z</time>
      </trkpt>
      <trkpt lat="46.71333" lon="5.62266">
        <ele>463.49</ele>
        <time>2017-05-20T07:49:49Z</time>
      </trkpt>
      <trkpt lat="46.7132" lon="5.6228">
        <ele>461.09</ele>
        <time>2017-05-20T07:50:07Z</time>
      </trkpt>
      <trkpt lat="46.71316" lon="5.62286">
        <ele>459.17</ele>
        <time>2017-05-20T07:50:25Z</time>
      </trkpt>
      <trkpt lat="46.7131" lon="5.62295">
        <ele>457.24</ele>
        <time>2017-05-20T07:50:42Z</time>
      </trkpt>
      <trkpt lat="46.71309" lon="5.62304">
        <ele>454.84</ele>
        <time>2017-05-20T07:51:00Z</time>
      </trkpt>
      <trkpt lat="46.71307" lon="5.62306">
        <ele>454.84</ele>
        <time>2017-05-20T07:51:31Z</time>
      </trkpt>
      <trkpt lat="46.71307" lon="5.62307">
        <ele>454.84</ele>
        <time>2017-05-20T07:51:56Z</time>
      </trkpt>
      <trkpt lat="46.71305" lon="5.62308">
        <ele>452.92</ele>
        <time>2017-05-20T07:52:15Z</time>
      </trkpt>
      <trkpt lat="46.71298" lon="5.62321">
        <ele>450.03</ele>
        <time>2017-05-20T07:52:32Z</time>
      </trkpt>
      <trkpt lat="46.71292" lon="5.6233">
        <ele>447.63</ele>
        <time>2017-05-20T07:52:49Z</time>
      </trkpt>
      <trkpt lat="46.71289" lon="5.62338">
        <ele>445.23</ele>
        <time>2017-05-20T07:53:06Z</time>
      </trkpt>
      <trkpt lat="46.71283" lon="5.62351">
        <ele>443.79</ele>
        <time>2017-05-20T07:53:20Z</time>
      </trkpt>
      <trkpt lat="46.71283" lon="5.62356">
        <ele>441.38</ele>
        <time>2017-05-20T07:53:36Z</time>
      </trkpt>
      <trkpt lat="46.71281" lon="5.62366">
        <ele>438.98</ele>
        <time>2017-05-20T07:53:52Z</time>
      </trkpt>
      <trkpt lat="46.7128" lon="5.62371">
        <ele>438.02</ele>
        <time>2017-05-20T07:53:58Z</time>
      </trkpt>
      <trkpt lat="46.71277" lon="5.6238">
        <ele>435.13</ele>
        <time>2017-05-20T07:54:13Z</time>
      </trkpt>
      <trkpt lat="46.71274" lon="5.62386">
        <ele>432.73</ele>
        <time>2017-05-20T07:54:28Z</time>
      </trkpt>
      <trkpt lat="46.71271" lon="5.62394">
        <ele>430.81</ele>
        <time>2017-05-20T07:54:43Z</time>
      </trkpt>
      <trkpt lat="46.71265" lon="5.62411">
        <ele>428.89</ele>
        <time>2017-05-20T07:54:58Z</time>
      </trkpt>
      <trkpt lat="46.71258" lon="5.62428">
        <ele>426.96</ele>
        <time>2017-05-20T07:55:12Z</time>
      </trkpt>
      <trkpt lat="46.71249" lon="5.62446">
        <ele>424.56</ele>
        <time>2017-05-20T07:55:28Z</time>
      </trkpt>
      <trkpt lat="46.71246" lon="5.62456">
        <ele>422.64</ele>
        <time>2017-05-20T07:55:46Z</time>
      </trkpt>
      <trkpt lat="46.71242" lon="5.6247">
        <ele>420.71</ele>
        <time>2017-05-20T07:55:58Z</time>
      </trkpt>
      <trkpt lat="46.7124" lon="5.62483">
        <ele>418.79</ele>
        <time>2017-05-20T07:56:11Z</time>
      </trkpt>
      <trkpt lat="46.71238" lon="5.6249">
        <ele>417.83</ele>
        <time>2017-05-20T07:56:24Z</time>
      </trkpt>
      <trkpt lat="46.71238" lon="5.62497">
        <ele>416.39</ele>
        <time>2017-05-20T07:56:38Z</time>
      </trkpt>
      <trkpt lat="46.71238" lon="5.62503">
        <ele>414.47</ele>
        <time>2017-05-20T07:56:53Z</time>
      </trkpt>
      <trkpt lat="46.71236" lon="5.62509">
        <ele>413.5</ele>
        <time>2017-05-20T07:57:08Z</time>
      </trkpt>
      <trkpt lat="46.71234" lon="5.62518">
        <ele>412.06</ele>
        <time>2017-05-20T07:57:22Z</time>
      </trkpt>
      <trkpt lat="46.71232" lon="5.62533">
        <ele>410.14</ele>
        <time>2017-05-20T07:57:37Z</time>
      </trkpt>
      <trkpt lat="46.71232" lon="5.62539">
        <ele>409.18</ele>
        <time>2017-05-20T07:57:50Z</time>
      </trkpt>
      <trkpt lat="46.71232" lon="5.62543">
        <ele>407.74</ele>
        <time>2017-05-20T07:58:04Z</time>
      </trkpt>
      <trkpt lat="46.71232" lon="5.62553">
        <ele>405.81</ele>
        <time>2017-05-20T07:58:21Z</time>
      </trkpt>
      <trkpt lat="46.71233" lon="5.62563">
        <ele>402.93</ele>
        <time>2017-05-20T07:58:38Z</time>
      </trkpt>
      <trkpt lat="46.71234" lon="5.62575">
        <ele>401.01</ele>
        <time>2017-05-20T07:58:53Z</time>
      </trkpt>
      <trkpt lat="46.71233" lon="5.6259">
        <ele>399.08</ele>
        <time>2017-05-20T07:59:05Z</time>
      </trkpt>
      <trkpt lat="46.71228" lon="5.62627">
        <ele>396.68</ele>
        <time>2017-05-20T07:59:19Z</time>
      </trkpt>
      <trkpt lat="46.71226" lon="5.62634">
        <ele>394.28</ele>
        <time>2017-05-20T07:59:31Z</time>
      </trkpt>
      <trkpt lat="46.71224" lon="5.62648">
        <ele>392.84</ele>
        <time>2017-05-20T07:59:44Z</time>
      </trkpt>
      <trkpt lat="46.71222" lon="5.62664">
        <ele>390.91</ele>
        <time>2017-05-20T07:59:59Z</time>
      </trkpt>
      <trkpt lat="46.71221" lon="5.62668">
        <ele>390.91</ele>
        <time>2017-05-20T08:00:01Z</time>
      </trkpt>
      <trkpt lat="46.71214" lon="5.62692">
        <ele>388.99</ele>
        <time>2017-05-20T08:00:15Z</time>
      </trkpt>
      <trkpt lat="46.71209" lon="5.62704">
        <ele>387.07</ele>
        <time>2017-05-20T08:00:30Z</time>
      </trkpt>
      <trkpt lat="46.71209" lon="5.62705">
        <ele>387.55</ele>
        <time>2017-05-20T08:00:51Z</time>
      </trkpt>
      <trkpt lat="46.7121" lon="5.62709">
        <ele>386.59</ele>
        <time>2017-05-20T08:01:08Z</time>
      </trkpt>
      <trkpt lat="46.71212" lon="5.62721">
        <ele>386.59</ele>
        <time>2017-05-20T08:01:22Z</time>
      </trkpt>
      <trkpt lat="46.71211" lon="5.62727">
        <ele>385.63</ele>
        <time>2017-05-20T08:01:27Z</time>
      </trkpt>
      <trkpt lat="46.71215" lon="5.62735">
        <ele>385.63</ele>
        <time>2017-05-20T08:01:40Z</time>
      </trkpt>
      <trkpt lat="46.71217" lon="5.62738">
        <ele>383.22</ele>
        <time>2017-05-20T08:01:54Z</time>
      </trkpt>
      <trkpt lat="46.7122" lon="5.62739">
        <ele>381.3</ele>
        <time>2017-05-20T08:02:07Z</time>
      </trkpt>
      <trkpt lat="46.71223" lon="5.62743">
        <ele>379.38</ele>
        <time>2017-05-20T08:02:19Z</time>
      </trkpt>
      <trkpt lat="46.71229" lon="5.62752">
        <ele>377.94</ele>
        <time>2017-05-20T08:02:30Z</time>
      </trkpt>
      <trkpt lat="46.71234" lon="5.62757">
        <ele>376.97</ele>
        <time>2017-05-20T08:02:40Z</time>
      </trkpt>
      <trkpt lat="46.71236" lon="5.62763">
        <ele>376.01</ele>
        <time>2017-05-20T08:02:57Z</time>
      </trkpt>
      <trkpt lat="46.71238" lon="5.62768">
        <ele>374.09</ele>
        <time>2017-05-20T08:03:07Z</time>
      </trkpt>
      <trkpt lat="46.7124" lon="5.62776">
        <ele>372.65</ele>
        <time>2017-05-20T08:03:23Z</time>
      </trkpt>
      <trkpt lat="46.71242" lon="5.62798">
        <ele>370.24</ele>
        <time>2017-05-20T08:03:35Z</time>
      </trkpt>
      <trkpt lat="46.71243" lon="5.62817">
        <ele>367.36</ele>
        <time>2017-05-20T08:03:48Z</time>
      </trkpt>
      <trkpt lat="46.71235" lon="5.62838">
        <ele>364.96</ele>
        <time>2017-05-20T08:04:04Z</time>
      </trkpt>
      <trkpt lat="46.71231" lon="5.62844">
        <ele>363.04</ele>
        <time>2017-05-20T08:04:19Z</time>
      </trkpt>
      <trkpt lat="46.71227" lon="5.6285">
        <ele>360.15</ele>
        <time>2017-05-20T08:04:35Z</time>
      </trkpt>
      <trkpt lat="46.71221" lon="5.62869">
        <ele>357.27</ele>
        <time>2017-05-20T08:04:53Z</time>
      </trkpt>
      <trkpt lat="46.71219" lon="5.62883">
        <ele>355.83</ele>
        <time>2017-05-20T08:05:08Z</time>
      </trkpt>
      <trkpt lat="46.71216" lon="5.62895">
        <ele>352.46</ele>
        <time>2017-05-20T08:05:24Z</time>
      </trkpt>
      <trkpt lat="46.71215" lon="5.62904">
        <ele>350.54</ele>
        <time>2017-05-20T08:05:40Z</time>
      </trkpt>
      <trkpt lat="46.71215" lon="5.62918">
        <ele>348.13</ele>
        <time>2017-05-20T08:05:56Z</time>
      </trkpt>
      <trkpt lat="46.71215" lon="5.6293">
        <ele>347.17</ele>
        <time>2017-05-20T08:06:11Z</time>
      </trkpt>
      <trkpt lat="46.71216" lon="5.62946">
        <ele>345.73</ele>
        <time>2017-05-20T08:06:25Z</time>
      </trkpt>
      <trkpt lat="46.71216" lon="5.62963">
        <ele>343.81</ele>
        <time>2017-05-20T08:06:41Z</time>
      </trkpt>
      <trkpt lat="46.71216" lon="5.62967">
        <ele>341.41</ele>
        <time>2017-05-20T08:06:59Z</time>
      </trkpt>
      <trkpt lat="46.71215" lon="5.62973">
        <ele>340.44</ele>
        <time>2017-05-20T08:07:12Z</time>
      </trkpt>
      <trkpt lat="46.71211" lon="5.62987">
        <ele>337.56</ele>
        <time>2017-05-20T08:07:29Z</time>
      </trkpt>
      <trkpt lat="46.7121" lon="5.62997">
        <ele>335.16</ele>
        <time>2017-05-20T08:07:45Z</time>
      </trkpt>
      <trkpt lat="46.712" lon="5.63009">
        <ele>332.75</ele>
        <time>2017-05-20T08:07:58Z</time>
      </trkpt>
      <trkpt lat="46.71197" lon="5.63031">
        <ele>330.35</ele>
        <time>2017-05-20T08:08:11Z</time>
      </trkpt>
      <trkpt lat="46.71203" lon="5.63049">
        <ele>327.95</ele>
        <time>2017-05-20T08:08:25Z</time>
      </trkpt>
      <trkpt lat="46.71205" lon="5.63058">
        <ele>326.5</ele>
        <time>2017-05-20T08:08:39Z</time>
      </trkpt>
      <trkpt lat="46.71209" lon="5.63069">
        <ele>324.58</ele>
        <time>2017-05-20T08:08:51Z</time>
      </trkpt>
      <trkpt lat="46.71215" lon="5.63079">
        <ele>322.18</ele>
        <time>2017-05-20T08:09:07Z</time>
      </trkpt>
      <trkpt lat="46.71218" lon="5.63094">
        <ele>320.26</ele>
        <time>2017-05-20T08:09:19Z</time>
      </trkpt>
      <trkpt lat="46.71215" lon="5.63098">
        <ele>317.85</ele>
        <time>2017-05-20T08:09:33Z</time>
      </trkpt>
      <trkpt lat="46.71206" lon="5.63095">
        <ele>315.93</ele>
        <time>2017-05-20T08:09:48Z</time>
      </trkpt>
      <trkpt lat="46.71205" lon="5.63096">
        <ele>313.53</ele>
        <time>2017-05-20T08:10:06Z</time>
      </trkpt>
      <trkpt lat="46.71201" lon="5.63099">
        <ele>311.12</ele>
        <time>2017-05-20T08:10:22Z</time>
      </trkpt>
      <trkpt lat="46.71199" lon="5.63101">
        <ele>309.68</ele>
        <time>2017-05-20T08:10:41Z</time>
      </trkpt>
      <trkpt lat="46.71193" lon="5.63108">
        <ele>307.28</ele>
        <time>2017-05-20T08:10:56Z</time>
      </trkpt>
      <trkpt lat="46.71193" lon="5.63111">
        <ele>304.88</ele>
        <time>2017-05-20T08:11:13Z</time>
      </trkpt>
      <trkpt lat="46.7118" lon="5.63126">
        <ele>301.99</ele>
        <time>2017-05-20T08:11:30Z</time>
      </trkpt>
      <trkpt lat="46.71158" lon="5.63154">
        <ele>300.07</ele>
        <time>2017-05-20T08:11:45Z</time>
      </trkpt>
      <trkpt lat="46.71151" lon="5.63173">
        <ele>298.63</ele>
        <time>2017-05-20T08:11:59Z</time>
      </trkpt>
      <trkpt lat="46.71151" lon="5.63174">
        <ele>298.63</ele>
        <time>2017-05-20T08:12:18Z</time>
      </trkpt>
      <trkpt lat="46.71155" lon="5.63177">
        <ele>298.63</ele>
        <time>2017-05-20T08:12:41Z</time>
      </trkpt>
      <trkpt lat="46.7116" lon="5.63181">
        <ele>298.15</ele>
        <time>2017-05-20T08:12:48Z</time>
      </trkpt>
      <trkpt lat="46.71166" lon="5.63187">
        <ele>297.18</ele>
        <time>2017-05-20T08:13:01Z</time>
      </trkpt>
      <trkpt lat="46.71166" lon="5.63188">
        <ele>296.7</ele>
        <time>2017-05-20T08:13:17Z</time>
      </trkpt>
      <trkpt lat="46.71166" lon="5.63188">
        <ele>296.7</ele>
        <time>2017-05-20T08:13:37Z</time>
      </trkpt>
      <trkpt lat="46.71169" lon="5.6319">
        <ele>296.7</ele>
        <time>2017-05-20T08:13:53Z</time>
      </trkpt>
      <trkpt lat="46.71173" lon="5.63192">
        <ele>297.18</ele>
        <time>2017-05-20T08:13:57Z</time>
      </trkpt>
      <trkpt lat="46.71188" lon="5.63213">
        <ele>295.74</ele>
        <time>2017-05-20T08:14:12Z</time>
      </trkpt>
      <trkpt lat="46.71202" lon="5.63236">
        <ele>294.78</ele>
        <time>2017-05-20T08:14:27Z</time>
      </trkpt>
      <trkpt lat="46.71205" lon="5.63251">
        <ele>294.3</ele>
        <time>2017-05-20T08:14:39Z</time>
      </trkpt>
      <trkpt lat="46.71208" lon="5.63259">
        <ele>294.78</ele>
        <time>2017-05-20T08:14:46Z</time>
      </trkpt>
      <trkpt lat="46.71207" lon="5.63268">
        <ele>293.82</ele>
        <time>2017-05-20T08:14:58Z</time>
      </trkpt>
      <trkpt lat="46.71208" lon="5.63269">
        <ele>293.82</ele>
        <time>2017-05-20T08:15:01Z</time>
      </trkpt>
      <trkpt lat="46.71206" lon="5.633">
        <ele>293.82</ele>
        <time>2017-05-20T08:15:16Z</time>
      </trkpt>
      <trkpt lat="46.71204" lon="5.63313">
        <ele>293.34</ele>
        <time>2017-05-20T08:15:29Z</time>
      </trkpt>
      <trkpt lat="46.71205" lon="5.63314">
        <ele>293.82</ele>
        <time>2017-05-20T08:15:53Z</time>
      </trkpt>
      <trkpt lat="46.71205" lon="5.63312">
        <ele>293.82</ele>
        <time>2017-05-20T08:16:09Z</time>
      </trkpt>
      <trkpt lat="46.71205" lon="5.63312">
        <ele>293.34</ele>
        <time>2017-05-20T08:16:26Z</time>
      </trkpt>
      <trkpt lat="46.71205" lon="5.63321">
        <ele>293.34</ele>
        <time>2017-05-20T08:16:43Z</time>
      </trkpt>
      <trkpt lat="46.71205" lon="5.63324">
        <ele>293.82</ele>
        <time>2017-05-20T08:17:01Z</time>
      </trkpt>
      <trkpt lat="46.71204" lon="5.63325">
        <ele>293.82</ele>
        <time>2017-05-20T08:17:24Z</time>
      </trkpt>
      <trkpt lat="46.71204" lon="5.63325">
        <ele>293.82</ele>
        <time>2017-05-20T08:17:44Z</time>
      </trkpt>
      <trkpt lat="46.71204" lon="5.63325">
        <ele>294.78</ele>
        <time>2017-05-20T08:18:12Z</time>
      </trkpt>
      <trkpt lat="46.71204" lon="5.63325">
        <ele>302.95</ele>
        <time>2017-05-20T08:18:16Z</time>
      </trkpt>
      <trkpt lat="46.71204" lon="5.63326">
        <ele>294.78</ele>
        <time>2017-05-20T08:18:17Z</time>
      </trkpt>
      <trkpt lat="46.71204" lon="5.63325">
        <ele>293.82</ele>
        <time>2017-05-20T08:18:36Z</time>
      </trkpt>
      <trkpt lat="46.71204" lon="5.63325">
        <ele>293.82</ele>
        <time>2017-05-20T08:18:53Z</time>
      </trkpt>
      <trkpt lat="46.71205" lon="5.63325">
        <ele>293.82</ele>
        <time>2017-05-20T08:19:08Z</time>
      </trkpt>
      <trkpt lat="46.71205" lon="5.63332">
        <ele>293.82</ele>
        <time>2017-05-20T08:19:28Z</time>
      </trkpt>
      <trkpt lat="46.71206" lon="5.63358">
        <ele>293.82</ele>
        <time>2017-05-20T08:19:41Z</time>
      </trkpt>
      <trkpt lat="46.71207" lon="5.63362">
        <ele>293.34</ele>
        <time>2017-05-20T08:19:43Z</time>
      </trkpt>
      <trkpt lat="46.71214" lon="5.63382">
        <ele>293.34</ele>
        <time>2017-05-20T08:19:56Z</time>
      </trkpt>
      <trkpt lat="46.71219" lon="5.63399">
        <ele>293.34</ele>
        <time>2017-05-20T08:20:07Z</time>
      </trkpt>
      <trkpt lat="46.7123" lon="5.63422">
        <ele>292.86</ele>
        <time>2017-05-20T08:20:23Z</time>
      </trkpt>
      <trkpt lat="46.71235" lon="5.63424">
        <ele>292.38</ele>
        <time>2017-05-20T08:20:36Z</time>
      </trkpt>
      <trkpt lat="46.71236" lon="5.63424">
        <ele>292.86</ele>
        <time>2017-05-20T08:20:45Z</time>
      </trkpt>
      <trkpt lat="46.71236" lon="5.63426">
        <ele>292.38</ele>
        <time>2017-05-20T08:20:48Z</time>
      </trkpt>
      <trkpt lat="46.71242" lon="5.6344">
        <ele>292.38</ele>
        <time>2017-05-20T08:20:58Z</time>
      </trkpt>
      <trkpt lat="46.71243" lon="5.63442">
        <ele>292.38</ele>
        <time>2017-05-20T08:21:00Z</time>
      </trkpt>
      <trkpt lat="46.71245" lon="5.63466">
        <ele>292.38</ele>
        <time>2017-05-20T08:21:12Z</time>
      </trkpt>
      <trkpt lat="46.71243" lon="5.63496">
        <ele>292.38</ele>
        <time>2017-05-20T08:21:25Z</time>
      </trkpt>
      <trkpt lat="46.71242" lon="5.63502">
        <ele>292.38</ele>
        <time>2017-05-20T08:21:28Z</time>
      </trkpt>
      <trkpt lat="46.71242" lon="5.63518">
        <ele>292.86</ele>
        <time>2017-05-20T08:21:42Z</time>
      </trkpt>
      <trkpt lat="46.71247" lon="5.63527">
        <ele>292.86</ele>
        <time>2017-05-20T08:21:52Z</time>
      </trkpt>
      <trkpt lat="46.71249" lon="5.63536">
        <ele>292.86</ele>
        <time>2017-05-20T08:22:04Z</time>
      </trkpt>
      <trkpt lat="46.71245" lon="5.63539">
        <ele>292.86</ele>
        <time>2017-05-20T08:22:21Z</time>
      </trkpt>
      <trkpt lat="46.71239" lon="5.63546">
        <ele>292.86</ele>
        <time>2017-05-20T08:22:26Z</time>
      </trkpt>
      <trkpt lat="46.7123" lon="5.63566">
        <ele>293.34</ele>
        <time>2017-05-20T08:22:38Z</time>
      </trkpt>
      <trkpt lat="46.71228" lon="5.63569">
        <ele>294.3</ele>
        <time>2017-05-20T08:22:52Z</time>
      </trkpt>
      <trkpt lat="46.71229" lon="5.63571">
        <ele>293.34</ele>
        <time>2017-05-20T08:23:06Z</time>
      </trkpt>
      <trkpt lat="46.7123" lon="5.63571">
        <ele>293.34</ele>
        <time>2017-05-20T08:23:36Z</time>
      </trkpt>
      <trkpt lat="46.7123" lon="5.63573">
        <ele>293.34</ele>
        <time>2017-05-20T08:24:05Z</time>
      </trkpt>
      <trkpt lat="46.7123" lon="5.63574">
        <ele>293.34</ele>
        <time>2017-05-20T08:24:29Z</time>
      </trkpt>
      <trkpt lat="46.7123" lon="5.63574">
        <ele>293.34</ele>
        <time>2017-05-20T08:24:57Z</time>
      </trkpt>
      <trkpt lat="46.7123" lon="5.63575">
        <ele>297.18</ele>
        <time>2017-05-20T08:25:12Z</time>
      </trkpt>
      <trkpt lat="46.7123" lon="5.63575">
        <ele>292.38</ele>
        <time>2017-05-20T08:25:13Z</time>
      </trkpt>
      <trkpt lat="46.7123" lon="5.63575">
        <ele>292.38</ele>
        <time>2017-05-20T08:25:14Z</time>
      </trkpt>
      <trkpt lat="46.7123" lon="5.63575">
        <ele>293.34</ele>
        <time>2017-05-20T08:25:32Z</time>
      </trkpt>
      <trkpt lat="46.71229" lon="5.63575">
        <ele>293.34</ele>
        <time>2017-05-20T08:25:54Z</time>
      </trkpt>
      <trkpt lat="46.71229" lon="5.63582">
        <ele>293.34</ele>
        <time>2017-05-20T08:26:14Z</time>
      </trkpt>
      <trkpt lat="46.71229" lon="5.63583">
        <ele>292.86</ele>
        <time>2017-05-20T08:26:15Z</time>
      </trkpt>
      <trkpt lat="46.71225" lon="5.63606">
        <ele>292.38</ele>
        <time>2017-05-20T08:26:30Z</time>
      </trkpt>
      <trkpt lat="46.71218" lon="5.63627">
        <ele>292.86</ele>
        <time>2017-05-20T08:26:42Z</time>
      </trkpt>
      <trkpt lat="46.71217" lon="5.63636">
        <ele>292.38</ele>
        <time>2017-05-20T08:26:47Z</time>
      </trkpt>
      <trkpt lat="46.71215" lon="5.63647">
        <ele>292.38</ele>
        <time>2017-05-20T08:26:53Z</time>
      </trkpt>
      <trkpt lat="46.71214" lon="5.63655">
        <ele>292.38</ele>
        <time>2017-05-20T08:26:57Z</time>
      </trkpt>
      <trkpt lat="46.71212" lon="5.63665">
        <ele>292.38</ele>
        <time>2017-05-20T08:27:03Z</time>
      </trkpt>
      <trkpt lat="46.71211" lon="5.6367">
        <ele>292.38</ele>
        <time>2017-05-20T08:27:06Z</time>
      </trkpt>
      <trkpt lat="46.7121" lon="5.63681">
        <ele>292.38</ele>
        <time>2017-05-20T08:27:12Z</time>
      </trkpt>
      <trkpt lat="46.7121" lon="5.63686">
        <ele>292.86</ele>
        <time>2017-05-20T08:27:15Z</time>
      </trkpt>
      <trkpt lat="46.71208" lon="5.63697">
        <ele>292.86</ele>
        <time>2017-05-20T08:27:22Z</time>
      </trkpt>
      <trkpt lat="46.71207" lon="5.63712">
        <ele>292.86</ele>
        <time>2017-05-20T08:27:30Z</time>
      </trkpt>
      <trkpt lat="46.71206" lon="5.63715">
        <ele>292.86</ele>
        <time>2017-05-20T08:27:32Z</time>
      </trkpt>
      <trkpt lat="46.71206" lon="5.6372">
        <ele>292.86</ele>
        <time>2017-05-20T08:27:35Z</time>
      </trkpt>
      <trkpt lat="46.71204" lon="5.63734">
        <ele>293.34</ele>
        <time>2017-05-20T08:27:44Z</time>
      </trkpt>
      <trkpt lat="46.71204" lon="5.63739">
        <ele>292.86</ele>
        <time>2017-05-20T08:27:47Z</time>
      </trkpt>
      <trkpt lat="46.71202" lon="5.63745">
        <ele>293.34</ele>
        <time>2017-05-20T08:27:51Z</time>
      </trkpt>
      <trkpt lat="46.71199" lon="5.63753">
        <ele>293.34</ele>
        <time>2017-05-20T08:27:56Z</time>
      </trkpt>
      <trkpt lat="46.71198" lon="5.63758">
        <ele>293.34</ele>
        <time>2017-05-20T08:28:00Z</time>
      </trkpt>
      <trkpt lat="46.71188" lon="5.63778">
        <ele>293.82</ele>
        <time>2017-05-20T08:28:13Z</time>
      </trkpt>
      <trkpt lat="46.71188" lon="5.63779">
        <ele>293.82</ele>
        <time>2017-05-20T08:28:14Z</time>
      </trkpt>
      <trkpt lat="46.71186" lon="5.63782">
        <ele>293.82</ele>
        <time>2017-05-20T08:28:16Z</time>
      </trkpt>
      <trkpt lat="46.71182" lon="5.63789">
        <ele>293.34</ele>
        <time>2017-05-20T08:28:21Z</time>
      </trkpt>
      <trkpt lat="46.71181" lon="5.63791">
        <ele>293.34</ele>
        <time>2017-05-20T08:28:23Z</time>
      </trkpt>
      <trkpt lat="46.71176" lon="5.63805">
        <ele>293.34</ele>
        <time>2017-05-20T08:28:33Z</time>
      </trkpt>
      <trkpt lat="46.71174" lon="5.63812">
        <ele>293.82</ele>
        <time>2017-05-20T08:28:38Z</time>
      </trkpt>
      <trkpt lat="46.7116" lon="5.6383">
        <ele>294.78</ele>
        <time>2017-05-20T08:28:52Z</time>
      </trkpt>
      <trkpt lat="46.71154" lon="5.63835">
        <ele>294.78</ele>
        <time>2017-05-20T08:28:56Z</time>
      </trkpt>
      <trkpt lat="46.71144" lon="5.6385">
        <ele>294.78</ele>
        <time>2017-05-20T08:29:08Z</time>
      </trkpt>
      <trkpt lat="46.71144" lon="5.63854">
        <ele>294.78</ele>
        <time>2017-05-20T08:29:10Z</time>
      </trkpt>
      <trkpt lat="46.71141" lon="5.63875">
        <ele>295.74</ele>
        <time>2017-05-20T08:29:22Z</time>
      </trkpt>
      <trkpt lat="46.71139" lon="5.63879">
        <ele>295.26</ele>
        <time>2017-05-20T08:29:24Z</time>
      </trkpt>
      <trkpt lat="46.71138" lon="5.63885">
        <ele>295.26</ele>
        <time>2017-05-20T08:29:27Z</time>
      </trkpt>
      <trkpt lat="46.71131" lon="5.63904">
        <ele>295.74</ele>
        <time>2017-05-20T08:29:40Z</time>
      </trkpt>
      <trkpt lat="46.7113" lon="5.6391">
        <ele>296.22</ele>
        <time>2017-05-20T08:29:45Z</time>
      </trkpt>
      <trkpt lat="46.71131" lon="5.63916">
        <ele>296.22</ele>
        <time>2017-05-20T08:29:49Z</time>
      </trkpt>
      <trkpt lat="46.71125" lon="5.63934">
        <ele>296.7</ele>
        <time>2017-05-20T08:30:00Z</time>
      </trkpt>
      <trkpt lat="46.71126" lon="5.6394">
        <ele>296.7</ele>
        <time>2017-05-20T08:30:04Z</time>
      </trkpt>
      <trkpt lat="46.71126" lon="5.63948">
        <ele>296.7</ele>
        <time>2017-05-20T08:30:07Z</time>
      </trkpt>
      <trkpt lat="46.71124" lon="5.63956">
        <ele>297.18</ele>
        <time>2017-05-20T08:30:11Z</time>
      </trkpt>
      <trkpt lat="46.71124" lon="5.63964">
        <ele>297.67</ele>
        <time>2017-05-20T08:30:18Z</time>
      </trkpt>
      <trkpt lat="46.71123" lon="5.6397">
        <ele>297.18</ele>
        <time>2017-05-20T08:30:22Z</time>
      </trkpt>
      <trkpt lat="46.71122" lon="5.63985">
        <ele>297.18</ele>
        <time>2017-05-20T08:30:34Z</time>
      </trkpt>
      <trkpt lat="46.71122" lon="5.63998">
        <ele>296.7</ele>
        <time>2017-05-20T08:30:41Z</time>
      </trkpt>
      <trkpt lat="46.71121" lon="5.64003">
        <ele>297.18</ele>
        <time>2017-05-20T08:30:44Z</time>
      </trkpt>
      <trkpt lat="46.71124" lon="5.64025">
        <ele>297.18</ele>
        <time>2017-05-20T08:30:56Z</time>
      </trkpt>
      <trkpt lat="46.71127" lon="5.6404">
        <ele>296.7</ele>
        <time>2017-05-20T08:31:08Z</time>
      </trkpt>
      <trkpt lat="46.71127" lon="5.64052">
        <ele>296.7</ele>
        <time>2017-05-20T08:31:17Z</time>
      </trkpt>
      <trkpt lat="46.71127" lon="5.64061">
        <ele>296.7</ele>
        <time>2017-05-20T08:31:22Z</time>
      </trkpt>
      <trkpt lat="46.71128" lon="5.6408">
        <ele>296.7</ele>
        <time>2017-05-20T08:31:33Z</time>
      </trkpt>
      <trkpt lat="46.71125" lon="5.64095">
        <ele>297.18</ele>
        <time>2017-05-20T08:31:44Z</time>
      </trkpt>
      <trkpt lat="46.71126" lon="5.64116">
        <ele>297.18</ele>
        <time>2017-05-20T08:31:57Z</time>
      </trkpt>
      <trkpt lat="46.71127" lon="5.64122">
        <ele>296.7</ele>
        <time>2017-05-20T08:32:09Z</time>
      </trkpt>
      <trkpt lat="46.71126" lon="5.64127">
        <ele>297.18</ele>
        <time>2017-05-20T08:32:23Z</time>
      </trkpt>
      <trkpt lat="46.71126" lon="5.64129">
        <ele>296.7</ele>
        <time>2017-05-20T08:32:45Z</time>
      </trkpt>
      <trkpt lat="46.71125" lon="5.6413">
        <ele>297.18</ele>
        <time>2017-05-20T08:33:14Z</time>
      </trkpt>
      <trkpt lat="46.71127" lon="5.64132">
        <ele>297.18</ele>
        <time>2017-05-20T08:33:33Z</time>
      </trkpt>
      <trkpt lat="46.71128" lon="5.64142">
        <ele>296.7</ele>
        <time>2017-05-20T08:33:40Z</time>
      </trkpt>
      <trkpt lat="46.71128" lon="5.64149">
        <ele>296.7</ele>
        <time>2017-05-20T08:33:44Z</time>
      </trkpt>
      <trkpt lat="46.71127" lon="5.64159">
        <ele>297.67</ele>
        <time>2017-05-20T08:33:50Z</time>
      </trkpt>
      <trkpt lat="46.71123" lon="5.64167">
        <ele>297.18</ele>
        <time>2017-05-20T08:33:55Z</time>
      </trkpt>
      <trkpt lat="46.71122" lon="5.64177">
        <ele>298.15</ele>
        <time>2017-05-20T08:34:10Z</time>
      </trkpt>
      <trkpt lat="46.71122" lon="5.64178">
        <ele>297.67</ele>
        <time>2017-05-20T08:34:21Z</time>
      </trkpt>
      <trkpt lat="46.71122" lon="5.64197">
        <ele>298.63</ele>
        <time>2017-05-20T08:34:33Z</time>
      </trkpt>
      <trkpt lat="46.7112" lon="5.64207">
        <ele>298.15</ele>
        <time>2017-05-20T08:34:38Z</time>
      </trkpt>
      <trkpt lat="46.71118" lon="5.64221">
        <ele>298.63</ele>
        <time>2017-05-20T08:34:45Z</time>
      </trkpt>
      <trkpt lat="46.71115" lon="5.6424">
        <ele>299.11</ele>
        <time>2017-05-20T08:34:55Z</time>
      </trkpt>
      <trkpt lat="46.71114" lon="5.64243">
        <ele>299.59</ele>
        <time>2017-05-20T08:34:57Z</time>
      </trkpt>
      <trkpt lat="46.71112" lon="5.6426">
        <ele>299.59</ele>
        <time>2017-05-20T08:35:05Z</time>
      </trkpt>
      <trkpt lat="46.71108" lon="5.64275">
        <ele>300.07</ele>
        <time>2017-05-20T08:35:13Z</time>
      </trkpt>
      <trkpt lat="46.71106" lon="5.64289">
        <ele>300.55</ele>
        <time>2017-05-20T08:35:20Z</time>
      </trkpt>
      <trkpt lat="46.71103" lon="5.64297">
        <ele>300.55</ele>
        <time>2017-05-20T08:35:24Z</time>
      </trkpt>
      <trkpt lat="46.711" lon="5.64305">
        <ele>301.03</ele>
        <time>2017-05-20T08:35:28Z</time>
      </trkpt>
      <trkpt lat="46.71092" lon="5.64325">
        <ele>301.03</ele>
        <time>2017-05-20T08:35:40Z</time>
      </trkpt>
      <trkpt lat="46.71091" lon="5.64326">
        <ele>301.51</ele>
        <time>2017-05-20T08:35:41Z</time>
      </trkpt>
      <trkpt lat="46.71083" lon="5.64344">
        <ele>302.47</ele>
        <time>2017-05-20T08:35:52Z</time>
      </trkpt>
      <trkpt lat="46.71079" lon="5.6435">
        <ele>301.99</ele>
        <time>2017-05-20T08:35:57Z</time>
      </trkpt>
      <trkpt lat="46.71075" lon="5.64358">
        <ele>302.95</ele>
        <time>2017-05-20T08:36:02Z</time>
      </trkpt>
      <trkpt lat="46.71069" lon="5.64366">
        <ele>302.95</ele>
        <time>2017-05-20T08:36:09Z</time>
      </trkpt>
      <trkpt lat="46.71067" lon="5.64371">
        <ele>303.91</ele>
        <time>2017-05-20T08:36:12Z</time>
      </trkpt>
      <trkpt lat="46.71056" lon="5.64389">
        <ele>303.91</ele>
        <time>2017-05-20T08:36:26Z</time>
      </trkpt>
      <trkpt lat="46.71044" lon="5.64409">
        <ele>304.88</ele>
        <time>2017-05-20T08:36:39Z</time>
      </trkpt>
      <trkpt lat="46.71038" lon="5.64423">
        <ele>305.36</ele>
        <time>2017-05-20T08:36:48Z</time>
      </trkpt>
      <trkpt lat="46.71033" lon="5.64429">
        <ele>305.36</ele>
        <time>2017-05-20T08:36:53Z</time>
      </trkpt>
      <trkpt lat="46.71026" lon="5.64438">
        <ele>304.88</ele>
        <time>2017-05-20T08:36:59Z</time>
      </trkpt>
      <trkpt lat="46.71019" lon="5.64446">
        <ele>304.88</ele>
        <time>2017-05-20T08:37:06Z</time>
      </trkpt>
      <trkpt lat="46.71013" lon="5.64454">
        <ele>304.88</ele>
        <time>2017-05-20T08:37:12Z</time>
      </trkpt>
      <trkpt lat="46.71" lon="5.64467">
        <ele>304.88</ele>
        <time>2017-05-20T08:37:24Z</time>
      </trkpt>
      <trkpt lat="46.70989" lon="5.64476">
        <ele>305.36</ele>
        <time>2017-05-20T08:37:33Z</time>
      </trkpt>
      <trkpt lat="46.70982" lon="5.64483">
        <ele>304.88</ele>
        <time>2017-05-20T08:37:40Z</time>
      </trkpt>
      <trkpt lat="46.70977" lon="5.64488">
        <ele>304.88</ele>
        <time>2017-05-20T08:37:44Z</time>
      </trkpt>
      <trkpt lat="46.70971" lon="5.64493">
        <ele>305.36</ele>
        <time>2017-05-20T08:37:49Z</time>
      </trkpt>
      <trkpt lat="46.70956" lon="5.64501">
        <ele>305.36</ele>
        <time>2017-05-20T08:37:59Z</time>
      </trkpt>
      <trkpt lat="46.70945" lon="5.64511">
        <ele>305.36</ele>
        <time>2017-05-20T08:38:10Z</time>
      </trkpt>
      <trkpt lat="46.7093" lon="5.64519">
        <ele>306.32</ele>
        <time>2017-05-20T08:38:23Z</time>
      </trkpt>
      <trkpt lat="46.70929" lon="5.6452">
        <ele>306.32</ele>
        <time>2017-05-20T08:38:24Z</time>
      </trkpt>
      <trkpt lat="46.70918" lon="5.64526">
        <ele>306.32</ele>
        <time>2017-05-20T08:38:37Z</time>
      </trkpt>
      <trkpt lat="46.70917" lon="5.64527">
        <ele>306.32</ele>
        <time>2017-05-20T08:38:38Z</time>
      </trkpt>
      <trkpt lat="46.70911" lon="5.64532">
        <ele>306.32</ele>
        <time>2017-05-20T08:38:45Z</time>
      </trkpt>
      <trkpt lat="46.70904" lon="5.64541">
        <ele>306.8</ele>
        <time>2017-05-20T08:38:54Z</time>
      </trkpt>
      <trkpt lat="46.70899" lon="5.64545">
        <ele>306.8</ele>
        <time>2017-05-20T08:38:58Z</time>
      </trkpt>
      <trkpt lat="46.70896" lon="5.64548">
        <ele>306.8</ele>
        <time>2017-05-20T08:39:00Z</time>
      </trkpt>
      <trkpt lat="46.7089" lon="5.64556">
        <ele>306.8</ele>
        <time>2017-05-20T08:39:07Z</time>
      </trkpt>
      <trkpt lat="46.7088" lon="5.6457">
        <ele>306.8</ele>
        <time>2017-05-20T08:39:19Z</time>
      </trkpt>
      <trkpt lat="46.7087" lon="5.64584">
        <ele>306.8</ele>
        <time>2017-05-20T08:39:31Z</time>
      </trkpt>
      <trkpt lat="46.70857" lon="5.64588">
        <ele>306.8</ele>
        <time>2017-05-20T08:39:45Z</time>
      </trkpt>
      <trkpt lat="46.70847" lon="5.64597">
        <ele>306.32</ele>
        <time>2017-05-20T08:39:55Z</time>
      </trkpt>
      <trkpt lat="46.70842" lon="5.646">
        <ele>306.32</ele>
        <time>2017-05-20T08:39:59Z</time>
      </trkpt>
      <trkpt lat="46.70827" lon="5.6461">
        <ele>305.84</ele>
        <time>2017-05-20T08:40:11Z</time>
      </trkpt>
      <trkpt lat="46.70823" lon="5.64611">
        <ele>305.84</ele>
        <time>2017-05-20T08:40:27Z</time>
      </trkpt>
      <trkpt lat="46.70822" lon="5.64612">
        <ele>305.36</ele>
        <time>2017-05-20T08:40:52Z</time>
      </trkpt>
      <trkpt lat="46.70823" lon="5.64613">
        <ele>305.84</ele>
        <time>2017-05-20T08:41:14Z</time>
      </trkpt>
      <trkpt lat="46.70823" lon="5.64614">
        <ele>305.84</ele>
        <time>2017-05-20T08:41:37Z</time>
      </trkpt>
      <trkpt lat="46.70823" lon="5.64614">
        <ele>305.84</ele>
        <time>2017-05-20T08:42:02Z</time>
      </trkpt>
      <trkpt lat="46.70823" lon="5.64614">
        <ele>306.32</ele>
        <time>2017-05-20T08:42:18Z</time>
      </trkpt>
      <trkpt lat="46.70821" lon="5.64614">
        <ele>305.84</ele>
        <time>2017-05-20T08:42:42Z</time>
      </trkpt>
      <trkpt lat="46.70807" lon="5.64617">
        <ele>305.84</ele>
        <time>2017-05-20T08:42:54Z</time>
      </trkpt>
      <trkpt lat="46.70792" lon="5.64621">
        <ele>305.36</ele>
        <time>2017-05-20T08:43:05Z</time>
      </trkpt>
      <trkpt lat="46.70775" lon="5.64627">
        <ele>305.36</ele>
        <time>2017-05-20T08:43:18Z</time>
      </trkpt>
      <trkpt lat="46.7077" lon="5.64637">
        <ele>304.88</ele>
        <time>2017-05-20T08:43:33Z</time>
      </trkpt>
      <trkpt lat="46.70773" lon="5.64657">
        <ele>304.39</ele>
        <time>2017-05-20T08:43:50Z</time>
      </trkpt>
      <trkpt lat="46.70775" lon="5.64668">
        <ele>304.39</ele>
        <time>2017-05-20T08:44:03Z</time>
      </trkpt>
      <trkpt lat="46.70777" lon="5.64677">
        <ele>304.39</ele>
        <time>2017-05-20T08:44:14Z</time>
      </trkpt>
      <trkpt lat="46.70779" lon="5.64689">
        <ele>304.39</ele>
        <time>2017-05-20T08:44:27Z</time>
      </trkpt>
      <trkpt lat="46.70782" lon="5.64696">
        <ele>304.39</ele>
        <time>2017-05-20T08:44:41Z</time>
      </trkpt>
      <trkpt lat="46.70783" lon="5.64705">
        <ele>304.88</ele>
        <time>2017-05-20T08:44:54Z</time>
      </trkpt>
      <trkpt lat="46.70784" lon="5.64716">
        <ele>304.88</ele>
        <time>2017-05-20T08:45:01Z</time>
      </trkpt>
      <trkpt lat="46.70784" lon="5.64723">
        <ele>304.88</ele>
        <time>2017-05-20T08:45:12Z</time>
      </trkpt>
      <trkpt lat="46.70779" lon="5.64735">
        <ele>305.36</ele>
        <time>2017-05-20T08:45:25Z</time>
      </trkpt>
      <trkpt lat="46.70777" lon="5.64743">
        <ele>305.84</ele>
        <time>2017-05-20T08:45:43Z</time>
      </trkpt>
      <trkpt lat="46.70779" lon="5.64748">
        <ele>305.84</ele>
        <time>2017-05-20T08:45:50Z</time>
      </trkpt>
      <trkpt lat="46.7078" lon="5.64753">
        <ele>305.84</ele>
        <time>2017-05-20T08:45:54Z</time>
      </trkpt>
      <trkpt lat="46.70791" lon="5.64763">
        <ele>306.32</ele>
        <time>2017-05-20T08:46:07Z</time>
      </trkpt>
      <trkpt lat="46.70799" lon="5.64765">
        <ele>307.76</ele>
        <time>2017-05-20T08:46:21Z</time>
      </trkpt>
      <trkpt lat="46.70808" lon="5.64761">
        <ele>308.72</ele>
        <time>2017-05-20T08:46:32Z</time>
      </trkpt>
      <trkpt lat="46.70811" lon="5.64761">
        <ele>308.72</ele>
        <time>2017-05-20T08:46:36Z</time>
      </trkpt>
      <trkpt lat="46.70822" lon="5.64757">
        <ele>309.68</ele>
        <time>2017-05-20T08:46:49Z</time>
      </trkpt>
      <trkpt lat="46.70829" lon="5.64756">
        <ele>310.64</ele>
        <time>2017-05-20T08:46:59Z</time>
      </trkpt>
      <trkpt lat="46.7084" lon="5.6475">
        <ele>311.12</ele>
        <time>2017-05-20T08:47:11Z</time>
      </trkpt>
      <trkpt lat="46.70843" lon="5.64751">
        <ele>312.57</ele>
        <time>2017-05-20T08:47:24Z</time>
      </trkpt>
      <trkpt lat="46.70845" lon="5.64755">
        <ele>312.57</ele>
        <time>2017-05-20T08:47:37Z</time>
      </trkpt>
      <trkpt lat="46.70845" lon="5.64755">
        <ele>312.57</ele>
        <time>2017-05-20T08:47:55Z</time>
      </trkpt>
      <trkpt lat="46.70835" lon="5.64765">
        <ele>313.05</ele>
        <time>2017-05-20T08:48:09Z</time>
      </trkpt>
      <trkpt lat="46.70833" lon="5.64768">
        <ele>313.05</ele>
        <time>2017-05-20T08:48:15Z</time>
      </trkpt>
      <trkpt lat="46.70827" lon="5.64777">
        <ele>313.53</ele>
        <time>2017-05-20T08:48:28Z</time>
      </trkpt>
      <trkpt lat="46.70825" lon="5.64786">
        <ele>314.01</ele>
        <time>2017-05-20T08:48:41Z</time>
      </trkpt>
      <trkpt lat="46.70822" lon="5.64792">
        <ele>314.01</ele>
        <time>2017-05-20T08:48:54Z</time>
      </trkpt>
      <trkpt lat="46.70822" lon="5.64794">
        <ele>314.49</ele>
        <time>2017-05-20T08:49:11Z</time>
      </trkpt>
      <trkpt lat="46.7082" lon="5.64801">
        <ele>314.01</ele>
        <time>2017-05-20T08:49:33Z</time>
      </trkpt>
      <trkpt lat="46.70817" lon="5.64808">
        <ele>314.49</ele>
        <time>2017-05-20T08:49:49Z</time>
      </trkpt>
      <trkpt lat="46.70806" lon="5.64833">
        <ele>314.49</ele>
        <time>2017-05-20T08:50:08Z</time>
      </trkpt>
      <trkpt lat="46.70801" lon="5.64838">
        <ele>314.97</ele>
        <time>2017-05-20T08:50:24Z</time>
      </trkpt>
      <trkpt lat="46.708" lon="5.64845">
        <ele>314.97</ele>
        <time>2017-05-20T08:50:35Z</time>
      </trkpt>
      <trkpt lat="46.70797" lon="5.64841">
        <ele>314.01</ele>
        <time>2017-05-20T08:51:05Z</time>
      </trkpt>
      <trkpt lat="46.70795" lon="5.64844">
        <ele>314.49</ele>
        <time>2017-05-20T08:51:22Z</time>
      </trkpt>
      <trkpt lat="46.70795" lon="5.64847">
        <ele>314.49</ele>
        <time>2017-05-20T08:51:24Z</time>
      </trkpt>
      <trkpt lat="46.70799" lon="5.64856">
        <ele>314.49</ele>
        <time>2017-05-20T08:51:32Z</time>
      </trkpt>
      <trkpt lat="46.70781" lon="5.64874">
        <ele>316.41</ele>
        <time>2017-05-20T08:51:49Z</time>
      </trkpt>
      <trkpt lat="46.70776" lon="5.64881">
        <ele>315.93</ele>
        <time>2017-05-20T08:52:00Z</time>
      </trkpt>
      <trkpt lat="46.7078" lon="5.64887">
        <ele>316.41</ele>
        <time>2017-05-20T08:52:08Z</time>
      </trkpt>
      <trkpt lat="46.70783" lon="5.64888">
        <ele>315.93</ele>
        <time>2017-05-20T08:52:16Z</time>
      </trkpt>
      <trkpt lat="46.70781" lon="5.64903">
        <ele>317.85</ele>
        <time>2017-05-20T08:52:28Z</time>
      </trkpt>
      <trkpt lat="46.70779" lon="5.64909">
        <ele>319.3</ele>
        <time>2017-05-20T08:52:32Z</time>
      </trkpt>
      <trkpt lat="46.70777" lon="5.64919">
        <ele>321.22</ele>
        <time>2017-05-20T08:52:43Z</time>
      </trkpt>
      <trkpt lat="46.70777" lon="5.64928">
        <ele>321.22</ele>
        <time>2017-05-20T08:52:55Z</time>
      </trkpt>
      <trkpt lat="46.70779" lon="5.6493">
        <ele>321.22</ele>
        <time>2017-05-20T08:53:17Z</time>
      </trkpt>
      <trkpt lat="46.70778" lon="5.6493">
        <ele>320.74</ele>
        <time>2017-05-20T08:53:36Z</time>
      </trkpt>
      <trkpt lat="46.70778" lon="5.64932">
        <ele>320.74</ele>
        <time>2017-05-20T08:53:52Z</time>
      </trkpt>
      <trkpt lat="46.70775" lon="5.64926">
        <ele>320.26</ele>
        <time>2017-05-20T08:54:05Z</time>
      </trkpt>
      <trkpt lat="46.70769" lon="5.64921">
        <ele>319.3</ele>
        <time>2017-05-20T08:54:13Z</time>
      </trkpt>
      <trkpt lat="46.7076" lon="5.64917">
        <ele>318.33</ele>
        <time>2017-05-20T08:54:27Z</time>
      </trkpt>
      <trkpt lat="46.70756" lon="5.64912">
        <ele>317.85</ele>
        <time>2017-05-20T08:54:38Z</time>
      </trkpt>
      <trkpt lat="46.70754" lon="5.64906">
        <ele>317.85</ele>
        <time>2017-05-20T08:54:50Z</time>
      </trkpt>
      <trkpt lat="46.70746" lon="5.649">
        <ele>316.41</ele>
        <time>2017-05-20T08:55:02Z</time>
      </trkpt>
      <trkpt lat="46.70736" lon="5.64895">
        <ele>314.49</ele>
        <time>2017-05-20T08:55:18Z</time>
      </trkpt>
      <trkpt lat="46.70728" lon="5.64887">
        <ele>313.53</ele>
        <time>2017-05-20T08:55:30Z</time>
      </trkpt>
      <trkpt lat="46.70719" lon="5.64879">
        <ele>311.12</ele>
        <time>2017-05-20T08:55:43Z</time>
      </trkpt>
      <trkpt lat="46.70715" lon="5.64872">
        <ele>310.64</ele>
        <time>2017-05-20T08:55:51Z</time>
      </trkpt>
      <trkpt lat="46.70714" lon="5.64845">
        <ele>308.72</ele>
        <time>2017-05-20T08:56:06Z</time>
      </trkpt>
      <trkpt lat="46.70714" lon="5.64826">
        <ele>307.28</ele>
        <time>2017-05-20T08:56:18Z</time>
      </trkpt>
      <trkpt lat="46.70705" lon="5.64808">
        <ele>307.28</ele>
        <time>2017-05-20T08:56:33Z</time>
      </trkpt>
      <trkpt lat="46.70704" lon="5.64804">
        <ele>307.28</ele>
        <time>2017-05-20T08:56:46Z</time>
      </trkpt>
      <trkpt lat="46.70704" lon="5.64803">
        <ele>306.8</ele>
        <time>2017-05-20T08:57:11Z</time>
      </trkpt>
      <trkpt lat="46.70703" lon="5.64801">
        <ele>307.28</ele>
        <time>2017-05-20T08:57:25Z</time>
      </trkpt>
      <trkpt lat="46.70699" lon="5.64796">
        <ele>307.28</ele>
        <time>2017-05-20T08:57:43Z</time>
      </trkpt>
      <trkpt lat="46.7069" lon="5.6479">
        <ele>307.76</ele>
        <time>2017-05-20T08:57:58Z</time>
      </trkpt>
      <trkpt lat="46.70679" lon="5.64785">
        <ele>308.72</ele>
        <time>2017-05-20T08:58:12Z</time>
      </trkpt>
      <trkpt lat="46.70666" lon="5.64784">
        <ele>309.2</ele>
        <time>2017-05-20T08:58:25Z</time>
      </trkpt>
      <trkpt lat="46.70657" lon="5.64782">
        <ele>310.16</ele>
        <time>2017-05-20T08:58:38Z</time>
      </trkpt>
      <trkpt lat="46.7065" lon="5.64766">
        <ele>310.64</ele>
        <time>2017-05-20T08:58:51Z</time>
      </trkpt>
      <trkpt lat="46.70647" lon="5.64754">
        <ele>310.64</ele>
        <time>2017-05-20T08:59:01Z</time>
      </trkpt>
      <trkpt lat="46.70646" lon="5.64753">
        <ele>310.16</ele>
        <time>2017-05-20T08:59:02Z</time>
      </trkpt>
      <trkpt lat="46.70636" lon="5.64745">
        <ele>306.8</ele>
        <time>2017-05-20T08:59:15Z</time>
      </trkpt>
      <trkpt lat="46.70633" lon="5.64737">
        <ele>304.88</ele>
        <time>2017-05-20T08:59:24Z</time>
      </trkpt>
      <trkpt lat="46.70635" lon="5.64721">
        <ele>302.47</ele>
        <time>2017-05-20T08:59:35Z</time>
      </trkpt>
      <trkpt lat="46.70635" lon="5.64718">
        <ele>302.95</ele>
        <time>2017-05-20T08:59:36Z</time>
      </trkpt>
      <trkpt lat="46.70636" lon="5.64695">
        <ele>301.99</ele>
        <time>2017-05-20T08:59:49Z</time>
      </trkpt>
      <trkpt lat="46.70637" lon="5.64693">
        <ele>302.47</ele>
        <time>2017-05-20T09:00:14Z</time>
      </trkpt>
      <trkpt lat="46.70638" lon="5.64693">
        <ele>301.99</ele>
        <time>2017-05-20T09:00:31Z</time>
      </trkpt>
      <trkpt lat="46.70638" lon="5.64691">
        <ele>301.51</ele>
        <time>2017-05-20T09:00:44Z</time>
      </trkpt>
      <trkpt lat="46.70641" lon="5.64683">
        <ele>302.47</ele>
        <time>2017-05-20T09:00:51Z</time>
      </trkpt>
      <trkpt lat="46.70646" lon="5.6467">
        <ele>303.91</ele>
        <time>2017-05-20T09:01:05Z</time>
      </trkpt>
      <trkpt lat="46.70644" lon="5.64662">
        <ele>305.36</ele>
        <time>2017-05-20T09:01:18Z</time>
      </trkpt>
      <trkpt lat="46.70638" lon="5.64663">
        <ele>305.84</ele>
        <time>2017-05-20T09:01:28Z</time>
      </trkpt>
      <trkpt lat="46.70634" lon="5.64662">
        <ele>305.84</ele>
        <time>2017-05-20T09:01:31Z</time>
      </trkpt>
      <trkpt lat="46.70621" lon="5.6466">
        <ele>306.32</ele>
        <time>2017-05-20T09:01:44Z</time>
      </trkpt>
      <trkpt lat="46.70618" lon="5.64659">
        <ele>306.32</ele>
        <time>2017-05-20T09:01:46Z</time>
      </trkpt>
      <trkpt lat="46.70604" lon="5.64653">
        <ele>306.8</ele>
        <time>2017-05-20T09:01:59Z</time>
      </trkpt>
      <trkpt lat="46.70593" lon="5.64651">
        <ele>307.76</ele>
        <time>2017-05-20T09:02:14Z</time>
      </trkpt>
      <trkpt lat="46.7059" lon="5.64643">
        <ele>309.68</ele>
        <time>2017-05-20T09:02:28Z</time>
      </trkpt>
      <trkpt lat="46.7059" lon="5.64636">
        <ele>313.05</ele>
        <time>2017-05-20T09:02:41Z</time>
      </trkpt>
      <trkpt lat="46.70592" lon="5.64625">
        <ele>315.45</ele>
        <time>2017-05-20T09:02:55Z</time>
      </trkpt>
      <trkpt lat="46.70599" lon="5.64619">
        <ele>317.85</ele>
        <time>2017-05-20T09:03:10Z</time>
      </trkpt>
      <trkpt lat="46.70605" lon="5.6461">
        <ele>319.3</ele>
        <time>2017-05-20T09:03:26Z</time>
      </trkpt>
      <trkpt lat="46.70611" lon="5.64606">
        <ele>320.26</ele>
        <time>2017-05-20T09:03:39Z</time>
      </trkpt>
      <trkpt lat="46.70621" lon="5.64594">
        <ele>322.18</ele>
        <time>2017-05-20T09:03:54Z</time>
      </trkpt>
      <trkpt lat="46.70629" lon="5.6459">
        <ele>324.58</ele>
        <time>2017-05-20T09:04:06Z</time>
      </trkpt>
      <trkpt lat="46.70632" lon="5.64589">
        <ele>325.06</ele>
        <time>2017-05-20T09:04:21Z</time>
      </trkpt>
      <trkpt lat="46.70637" lon="5.64585">
        <ele>326.02</ele>
        <time>2017-05-20T09:04:33Z</time>
      </trkpt>
      <trkpt lat="46.70642" lon="5.64582">
        <ele>327.47</ele>
        <time>2017-05-20T09:04:48Z</time>
      </trkpt>
      <trkpt lat="46.70648" lon="5.64579">
        <ele>329.39</ele>
        <time>2017-05-20T09:05:02Z</time>
      </trkpt>
      <trkpt lat="46.7066" lon="5.64568">
        <ele>331.79</ele>
        <time>2017-05-20T09:05:16Z</time>
      </trkpt>
      <trkpt lat="46.70661" lon="5.64556">
        <ele>334.68</ele>
        <time>2017-05-20T09:05:31Z</time>
      </trkpt>
      <trkpt lat="46.70657" lon="5.64548">
        <ele>336.6</ele>
        <time>2017-05-20T09:05:43Z</time>
      </trkpt>
      <trkpt lat="46.70655" lon="5.64535">
        <ele>338.04</ele>
        <time>2017-05-20T09:05:56Z</time>
      </trkpt>
      <trkpt lat="46.70646" lon="5.64523">
        <ele>339.48</ele>
        <time>2017-05-20T09:06:12Z</time>
      </trkpt>
      <trkpt lat="46.70641" lon="5.64511">
        <ele>342.37</ele>
        <time>2017-05-20T09:06:27Z</time>
      </trkpt>
      <trkpt lat="46.70635" lon="5.64501">
        <ele>344.29</ele>
        <time>2017-05-20T09:06:37Z</time>
      </trkpt>
      <trkpt lat="46.7063" lon="5.64495">
        <ele>345.25</ele>
        <time>2017-05-20T09:06:49Z</time>
      </trkpt>
      <trkpt lat="46.70631" lon="5.64489">
        <ele>347.65</ele>
        <time>2017-05-20T09:07:00Z</time>
      </trkpt>
      <trkpt lat="46.70631" lon="5.64479">
        <ele>350.06</ele>
        <time>2017-05-20T09:07:12Z</time>
      </trkpt>
      <trkpt lat="46.7063" lon="5.64469">
        <ele>351.98</ele>
        <time>2017-05-20T09:07:25Z</time>
      </trkpt>
      <trkpt lat="46.70627" lon="5.64465">
        <ele>352.46</ele>
        <time>2017-05-20T09:07:42Z</time>
      </trkpt>
      <trkpt lat="46.70626" lon="5.64463">
        <ele>353.42</ele>
        <time>2017-05-20T09:07:57Z</time>
      </trkpt>
      <trkpt lat="46.70624" lon="5.64459">
        <ele>354.38</ele>
        <time>2017-05-20T09:08:08Z</time>
      </trkpt>
      <trkpt lat="46.70625" lon="5.64459">
        <ele>353.9</ele>
        <time>2017-05-20T09:08:25Z</time>
      </trkpt>
      <trkpt lat="46.70624" lon="5.6446">
        <ele>353.42</ele>
        <time>2017-05-20T09:08:50Z</time>
      </trkpt>
      <trkpt lat="46.70624" lon="5.64462">
        <ele>353.9</ele>
        <time>2017-05-20T09:09:16Z</time>
      </trkpt>
      <trkpt lat="46.70623" lon="5.64462">
        <ele>353.9</ele>
        <time>2017-05-20T09:09:42Z</time>
      </trkpt>
      <trkpt lat="46.70622" lon="5.64466">
        <ele>353.9</ele>
        <time>2017-05-20T09:10:00Z</time>
      </trkpt>
      <trkpt lat="46.70621" lon="5.64465">
        <ele>353.42</ele>
        <time>2017-05-20T09:10:22Z</time>
      </trkpt>
      <trkpt lat="46.70621" lon="5.64463">
        <ele>353.42</ele>
        <time>2017-05-20T09:10:43Z</time>
      </trkpt>
      <trkpt lat="46.70619" lon="5.64465">
        <ele>353.42</ele>
        <time>2017-05-20T09:11:08Z</time>
      </trkpt>
      <trkpt lat="46.70619" lon="5.64465">
        <ele>353.42</ele>
        <time>2017-05-20T09:11:34Z</time>
      </trkpt>
      <trkpt lat="46.70619" lon="5.64464">
        <ele>352.94</ele>
        <time>2017-05-20T09:11:59Z</time>
      </trkpt>
      <trkpt lat="46.70619" lon="5.64459">
        <ele>354.86</ele>
        <time>2017-05-20T09:12:12Z</time>
      </trkpt>
      <trkpt lat="46.70617" lon="5.64454">
        <ele>356.79</ele>
        <time>2017-05-20T09:12:25Z</time>
      </trkpt>
      <trkpt lat="46.70614" lon="5.64445">
        <ele>359.67</ele>
        <time>2017-05-20T09:12:41Z</time>
      </trkpt>
      <trkpt lat="46.70617" lon="5.64442">
        <ele>361.59</ele>
        <time>2017-05-20T09:12:56Z</time>
      </trkpt>
      <trkpt lat="46.70625" lon="5.64437">
        <ele>363.52</ele>
        <time>2017-05-20T09:13:10Z</time>
      </trkpt>
      <trkpt lat="46.7063" lon="5.64435">
        <ele>364.96</ele>
        <time>2017-05-20T09:13:24Z</time>
      </trkpt>
      <trkpt lat="46.70637" lon="5.64431">
        <ele>367.36</ele>
        <time>2017-05-20T09:13:38Z</time>
      </trkpt>
      <trkpt lat="46.70644" lon="5.64426">
        <ele>368.8</ele>
        <time>2017-05-20T09:13:51Z</time>
      </trkpt>
      <trkpt lat="46.70655" lon="5.64425">
        <ele>370.73</ele>
        <time>2017-05-20T09:14:07Z</time>
      </trkpt>
      <trkpt lat="46.70661" lon="5.6442">
        <ele>372.65</ele>
        <time>2017-05-20T09:14:23Z</time>
      </trkpt>
      <trkpt lat="46.70665" lon="5.64409">
        <ele>373.61</ele>
        <time>2017-05-20T09:14:37Z</time>
      </trkpt>
      <trkpt lat="46.70669" lon="5.64402">
        <ele>375.53</ele>
        <time>2017-05-20T09:14:50Z</time>
      </trkpt>
      <trkpt lat="46.70672" lon="5.64397">
        <ele>378.42</ele>
        <time>2017-05-20T09:15:06Z</time>
      </trkpt>
      <trkpt lat="46.70673" lon="5.64392">
        <ele>380.82</ele>
        <time>2017-05-20T09:15:21Z</time>
      </trkpt>
      <trkpt lat="46.70681" lon="5.64386">
        <ele>382.74</ele>
        <time>2017-05-20T09:15:34Z</time>
      </trkpt>
      <trkpt lat="46.70683" lon="5.64376">
        <ele>385.15</ele>
        <time>2017-05-20T09:15:47Z</time>
      </trkpt>
      <trkpt lat="46.70686" lon="5.64381">
        <ele>387.07</ele>
        <time>2017-05-20T09:16:00Z</time>
      </trkpt>
      <trkpt lat="46.70689" lon="5.64385">
        <ele>388.99</ele>
        <time>2017-05-20T09:16:17Z</time>
      </trkpt>
      <trkpt lat="46.70691" lon="5.64386">
        <ele>391.39</ele>
        <time>2017-05-20T09:16:31Z</time>
      </trkpt>
      <trkpt lat="46.70698" lon="5.6439">
        <ele>392.84</ele>
        <time>2017-05-20T09:16:45Z</time>
      </trkpt>
      <trkpt lat="46.70708" lon="5.64393">
        <ele>395.24</ele>
        <time>2017-05-20T09:16:59Z</time>
      </trkpt>
      <trkpt lat="46.70719" lon="5.64394">
        <ele>397.64</ele>
        <time>2017-05-20T09:17:15Z</time>
      </trkpt>
      <trkpt lat="46.70721" lon="5.64389">
        <ele>401.01</ele>
        <time>2017-05-20T09:17:35Z</time>
      </trkpt>
      <trkpt lat="46.70728" lon="5.64388">
        <ele>403.89</ele>
        <time>2017-05-20T09:17:53Z</time>
      </trkpt>
      <trkpt lat="46.70734" lon="5.64387">
        <ele>406.29</ele>
        <time>2017-05-20T09:18:07Z</time>
      </trkpt>
      <trkpt lat="46.70737" lon="5.64382">
        <ele>408.22</ele>
        <time>2017-05-20T09:18:20Z</time>
      </trkpt>
      <trkpt lat="46.70739" lon="5.64381">
        <ele>410.14</ele>
        <time>2017-05-20T09:18:35Z</time>
      </trkpt>
      <trkpt lat="46.70745" lon="5.64377">
        <ele>412.06</ele>
        <time>2017-05-20T09:18:48Z</time>
      </trkpt>
      <trkpt lat="46.70746" lon="5.64374">
        <ele>413.98</ele>
        <time>2017-05-20T09:19:00Z</time>
      </trkpt>
      <trkpt lat="46.70744" lon="5.6437">
        <ele>416.39</ele>
        <time>2017-05-20T09:19:13Z</time>
      </trkpt>
      <trkpt lat="46.70742" lon="5.64366">
        <ele>418.31</ele>
        <time>2017-05-20T09:19:27Z</time>
      </trkpt>
      <trkpt lat="46.7074" lon="5.64361">
        <ele>421.19</ele>
        <time>2017-05-20T09:19:45Z</time>
      </trkpt>
      <trkpt lat="46.70737" lon="5.64357">
        <ele>423.6</ele>
        <time>2017-05-20T09:19:59Z</time>
      </trkpt>
      <trkpt lat="46.70734" lon="5.64354">
        <ele>426.96</ele>
        <time>2017-05-20T09:20:14Z</time>
      </trkpt>
      <trkpt lat="46.70729" lon="5.64347">
        <ele>429.37</ele>
        <time>2017-05-20T09:20:28Z</time>
      </trkpt>
      <trkpt lat="46.70723" lon="5.64342">
        <ele>431.77</ele>
        <time>2017-05-20T09:20:42Z</time>
      </trkpt>
      <trkpt lat="46.70717" lon="5.64339">
        <ele>434.65</ele>
        <time>2017-05-20T09:20:57Z</time>
      </trkpt>
      <trkpt lat="46.70713" lon="5.64335">
        <ele>436.58</ele>
        <time>2017-05-20T09:21:16Z</time>
      </trkpt>
      <trkpt lat="46.70708" lon="5.64332">
        <ele>439.46</ele>
        <time>2017-05-20T09:21:34Z</time>
      </trkpt>
      <trkpt lat="46.70701" lon="5.64327">
        <ele>441.38</ele>
        <time>2017-05-20T09:21:50Z</time>
      </trkpt>
      <trkpt lat="46.70695" lon="5.64326">
        <ele>443.79</ele>
        <time>2017-05-20T09:22:03Z</time>
      </trkpt>
      <trkpt lat="46.70682" lon="5.64323">
        <ele>445.71</ele>
        <time>2017-05-20T09:22:19Z</time>
      </trkpt>
      <trkpt lat="46.70674" lon="5.64324">
        <ele>447.15</ele>
        <time>2017-05-20T09:22:35Z</time>
      </trkpt>
      <trkpt lat="46.70666" lon="5.64325">
        <ele>449.55</ele>
        <time>2017-05-20T09:22:50Z</time>
      </trkpt>
      <trkpt lat="46.7066" lon="5.64326">
        <ele>451.96</ele>
        <time>2017-05-20T09:23:06Z</time>
      </trkpt>
      <trkpt lat="46.70656" lon="5.64326">
        <ele>454.84</ele>
        <time>2017-05-20T09:23:21Z</time>
      </trkpt>
      <trkpt lat="46.70662" lon="5.64323">
        <ele>457.72</ele>
        <time>2017-05-20T09:23:39Z</time>
      </trkpt>
      <trkpt lat="46.70664" lon="5.64318">
        <ele>459.65</ele>
        <time>2017-05-20T09:23:52Z</time>
      </trkpt>
      <trkpt lat="46.70668" lon="5.64313">
        <ele>461.09</ele>
        <time>2017-05-20T09:24:05Z</time>
      </trkpt>
      <trkpt lat="46.70673" lon="5.6431">
        <ele>463.01</ele>
        <time>2017-05-20T09:24:19Z</time>
      </trkpt>
      <trkpt lat="46.70678" lon="5.64307">
        <ele>465.42</ele>
        <time>2017-05-20T09:24:33Z</time>
      </trkpt>
      <trkpt lat="46.70679" lon="5.64303">
        <ele>467.82</ele>
        <time>2017-05-20T09:24:46Z</time>
      </trkpt>
      <trkpt lat="46.70681" lon="5.64293">
        <ele>470.22</ele>
        <time>2017-05-20T09:24:58Z</time>
      </trkpt>
      <trkpt lat="46.70674" lon="5.64294">
        <ele>472.63</ele>
        <time>2017-05-20T09:25:12Z</time>
      </trkpt>
      <trkpt lat="46.70672" lon="5.64292">
        <ele>474.07</ele>
        <time>2017-05-20T09:25:24Z</time>
      </trkpt>
      <trkpt lat="46.70673" lon="5.64289">
        <ele>474.07</ele>
        <time>2017-05-20T09:25:37Z</time>
      </trkpt>
      <trkpt lat="46.70674" lon="5.64289">
        <ele>474.55</ele>
        <time>2017-05-20T09:25:57Z</time>
      </trkpt>
      <trkpt lat="46.70673" lon="5.64289">
        <ele>474.07</ele>
        <time>2017-05-20T09:26:12Z</time>
      </trkpt>
      <trkpt lat="46.70672" lon="5.64288">
        <ele>474.07</ele>
        <time>2017-05-20T09:26:30Z</time>
      </trkpt>
      <trkpt lat="46.7067" lon="5.64289">
        <ele>474.07</ele>
        <time>2017-05-20T09:26:34Z</time>
      </trkpt>
      <trkpt lat="46.70669" lon="5.64288">
        <ele>473.59</ele>
        <time>2017-05-20T09:26:49Z</time>
      </trkpt>
      <trkpt lat="46.70667" lon="5.6429">
        <ele>473.11</ele>
        <time>2017-05-20T09:26:52Z</time>
      </trkpt>
      <trkpt lat="46.70662" lon="5.64295">
        <ele>472.63</ele>
        <time>2017-05-20T09:26:58Z</time>
      </trkpt>
      <trkpt lat="46.70657" lon="5.643">
        <ele>472.63</ele>
        <time>2017-05-20T09:27:04Z</time>
      </trkpt>
      <trkpt lat="46.70655" lon="5.64301">
        <ele>472.14</ele>
        <time>2017-05-20T09:27:06Z</time>
      </trkpt>
      <trkpt lat="46.70647" lon="5.64303">
        <ele>472.14</ele>
        <time>2017-05-20T09:27:16Z</time>
      </trkpt>
      <trkpt lat="46.7063" lon="5.64304">
        <ele>472.14</ele>
        <time>2017-05-20T09:27:33Z</time>
      </trkpt>
      <trkpt lat="46.7062" lon="5.64303">
        <ele>472.14</ele>
        <time>2017-05-20T09:27:42Z</time>
      </trkpt>
      <trkpt lat="46.70607" lon="5.64301">
        <ele>472.63</ele>
        <time>2017-05-20T09:27:54Z</time>
      </trkpt>
      <trkpt lat="46.70601" lon="5.64298">
        <ele>473.11</ele>
        <time>2017-05-20T09:28:00Z</time>
      </trkpt>
      <trkpt lat="46.70592" lon="5.64295">
        <ele>474.07</ele>
        <time>2017-05-20T09:28:08Z</time>
      </trkpt>
      <trkpt lat="46.70585" lon="5.64294">
        <ele>473.59</ele>
        <time>2017-05-20T09:28:13Z</time>
      </trkpt>
      <trkpt lat="46.70576" lon="5.64293">
        <ele>474.07</ele>
        <time>2017-05-20T09:28:24Z</time>
      </trkpt>
      <trkpt lat="46.70573" lon="5.64293">
        <ele>474.07</ele>
        <time>2017-05-20T09:28:27Z</time>
      </trkpt>
      <trkpt lat="46.70571" lon="5.64293">
        <ele>474.07</ele>
        <time>2017-05-20T09:28:29Z</time>
      </trkpt>
      <trkpt lat="46.70568" lon="5.64292">
        <ele>474.55</ele>
        <time>2017-05-20T09:28:32Z</time>
      </trkpt>
      <trkpt lat="46.70562" lon="5.64291">
        <ele>475.03</ele>
        <time>2017-05-20T09:28:39Z</time>
      </trkpt>
      <trkpt lat="46.70547" lon="5.64284">
        <ele>475.99</ele>
        <time>2017-05-20T09:28:54Z</time>
      </trkpt>
      <trkpt lat="46.70534" lon="5.64283">
        <ele>476.95</ele>
        <time>2017-05-20T09:29:09Z</time>
      </trkpt>
      <trkpt lat="46.70525" lon="5.64282">
        <ele>478.39</ele>
        <time>2017-05-20T09:29:21Z</time>
      </trkpt>
      <trkpt lat="46.7052" lon="5.64281">
        <ele>478.87</ele>
        <time>2017-05-20T09:29:26Z</time>
      </trkpt>
      <trkpt lat="46.70512" lon="5.64278">
        <ele>479.35</ele>
        <time>2017-05-20T09:29:37Z</time>
      </trkpt>
      <trkpt lat="46.70508" lon="5.64277">
        <ele>479.84</ele>
        <time>2017-05-20T09:29:41Z</time>
      </trkpt>
      <trkpt lat="46.70506" lon="5.64275">
        <ele>479.84</ele>
        <time>2017-05-20T09:29:43Z</time>
      </trkpt>
      <trkpt lat="46.70503" lon="5.6427">
        <ele>480.8</ele>
        <time>2017-05-20T09:29:52Z</time>
      </trkpt>
      <trkpt lat="46.70497" lon="5.64262">
        <ele>483.2</ele>
        <time>2017-05-20T09:30:04Z</time>
      </trkpt>
      <trkpt lat="46.70493" lon="5.64252">
        <ele>484.64</ele>
        <time>2017-05-20T09:30:16Z</time>
      </trkpt>
      <trkpt lat="46.70487" lon="5.64248">
        <ele>486.08</ele>
        <time>2017-05-20T09:30:29Z</time>
      </trkpt>
      <trkpt lat="46.70478" lon="5.64246">
        <ele>487.53</ele>
        <time>2017-05-20T09:30:42Z</time>
      </trkpt>
      <trkpt lat="46.70471" lon="5.64239">
        <ele>489.93</ele>
        <time>2017-05-20T09:30:54Z</time>
      </trkpt>
      <trkpt lat="46.70464" lon="5.64235">
        <ele>490.89</ele>
        <time>2017-05-20T09:31:07Z</time>
      </trkpt>
      <trkpt lat="46.70464" lon="5.64235">
        <ele>490.89</ele>
        <time>2017-05-20T09:31:08Z</time>
      </trkpt>
      <trkpt lat="46.70454" lon="5.64231">
        <ele>491.85</ele>
        <time>2017-05-20T09:31:18Z</time>
      </trkpt>
      <trkpt lat="46.70452" lon="5.64231">
        <ele>491.85</ele>
        <time>2017-05-20T09:31:20Z</time>
      </trkpt>
      <trkpt lat="46.70448" lon="5.6423">
        <ele>491.85</ele>
        <time>2017-05-20T09:31:24Z</time>
      </trkpt>
      <trkpt lat="46.70445" lon="5.64229">
        <ele>492.33</ele>
        <time>2017-05-20T09:31:28Z</time>
      </trkpt>
      <trkpt lat="46.70433" lon="5.64228">
        <ele>492.81</ele>
        <time>2017-05-20T09:31:41Z</time>
      </trkpt>
      <trkpt lat="46.70421" lon="5.64226">
        <ele>492.33</ele>
        <time>2017-05-20T09:31:54Z</time>
      </trkpt>
      <trkpt lat="46.70412" lon="5.64227">
        <ele>491.85</ele>
        <time>2017-05-20T09:32:03Z</time>
      </trkpt>
      <trkpt lat="46.70401" lon="5.64227">
        <ele>492.33</ele>
        <time>2017-05-20T09:32:17Z</time>
      </trkpt>
      <trkpt lat="46.70399" lon="5.64226">
        <ele>491.85</ele>
        <time>2017-05-20T09:32:19Z</time>
      </trkpt>
      <trkpt lat="46.70388" lon="5.64219">
        <ele>491.85</ele>
        <time>2017-05-20T09:32:31Z</time>
      </trkpt>
      <trkpt lat="46.70377" lon="5.64209">
        <ele>491.85</ele>
        <time>2017-05-20T09:32:46Z</time>
      </trkpt>
      <trkpt lat="46.70375" lon="5.64208">
        <ele>491.37</ele>
        <time>2017-05-20T09:32:48Z</time>
      </trkpt>
      <trkpt lat="46.70364" lon="5.64201">
        <ele>491.37</ele>
        <time>2017-05-20T09:33:00Z</time>
      </trkpt>
      <trkpt lat="46.70349" lon="5.64196">
        <ele>490.41</ele>
        <time>2017-05-20T09:33:13Z</time>
      </trkpt>
      <trkpt lat="46.70338" lon="5.64193">
        <ele>489.45</ele>
        <time>2017-05-20T09:33:25Z</time>
      </trkpt>
      <trkpt lat="46.70322" lon="5.64189">
        <ele>488.01</ele>
        <time>2017-05-20T09:33:40Z</time>
      </trkpt>
      <trkpt lat="46.70311" lon="5.64188">
        <ele>486.56</ele>
        <time>2017-05-20T09:33:52Z</time>
      </trkpt>
      <trkpt lat="46.70294" lon="5.64185">
        <ele>484.64</ele>
        <time>2017-05-20T09:34:07Z</time>
      </trkpt>
      <trkpt lat="46.70279" lon="5.6418">
        <ele>484.16</ele>
        <time>2017-05-20T09:34:21Z</time>
      </trkpt>
      <trkpt lat="46.70271" lon="5.64178">
        <ele>484.64</ele>
        <time>2017-05-20T09:34:28Z</time>
      </trkpt>
      <trkpt lat="46.70268" lon="5.64178">
        <ele>484.64</ele>
        <time>2017-05-20T09:34:30Z</time>
      </trkpt>
      <trkpt lat="46.70258" lon="5.64176">
        <ele>486.56</ele>
        <time>2017-05-20T09:34:44Z</time>
      </trkpt>
      <trkpt lat="46.70256" lon="5.64173">
        <ele>487.05</ele>
        <time>2017-05-20T09:34:48Z</time>
      </trkpt>
      <trkpt lat="46.70249" lon="5.64158">
        <ele>489.45</ele>
        <time>2017-05-20T09:35:03Z</time>
      </trkpt>
      <trkpt lat="46.70243" lon="5.6415">
        <ele>490.41</ele>
        <time>2017-05-20T09:35:15Z</time>
      </trkpt>
      <trkpt lat="46.70242" lon="5.64148">
        <ele>489.93</ele>
        <time>2017-05-20T09:35:17Z</time>
      </trkpt>
      <trkpt lat="46.70231" lon="5.64129">
        <ele>490.41</ele>
        <time>2017-05-20T09:35:29Z</time>
      </trkpt>
      <trkpt lat="46.7022" lon="5.6411">
        <ele>489.93</ele>
        <time>2017-05-20T09:35:39Z</time>
      </trkpt>
      <trkpt lat="46.7021" lon="5.64103">
        <ele>490.41</ele>
        <time>2017-05-20T09:35:47Z</time>
      </trkpt>
      <trkpt lat="46.70204" lon="5.64101">
        <ele>489.93</ele>
        <time>2017-05-20T09:35:51Z</time>
      </trkpt>
      <trkpt lat="46.70195" lon="5.64097">
        <ele>489.45</ele>
        <time>2017-05-20T09:36:00Z</time>
      </trkpt>
      <trkpt lat="46.70181" lon="5.64094">
        <ele>488.01</ele>
        <time>2017-05-20T09:36:13Z</time>
      </trkpt>
      <trkpt lat="46.7018" lon="5.64095">
        <ele>488.01</ele>
        <time>2017-05-20T09:36:14Z</time>
      </trkpt>
      <trkpt lat="46.7017" lon="5.64094">
        <ele>487.53</ele>
        <time>2017-05-20T09:36:21Z</time>
      </trkpt>
      <trkpt lat="46.70155" lon="5.64085">
        <ele>486.08</ele>
        <time>2017-05-20T09:36:34Z</time>
      </trkpt>
      <trkpt lat="46.70144" lon="5.64075">
        <ele>486.08</ele>
        <time>2017-05-20T09:36:45Z</time>
      </trkpt>
      <trkpt lat="46.70136" lon="5.64073">
        <ele>486.08</ele>
        <time>2017-05-20T09:36:53Z</time>
      </trkpt>
      <trkpt lat="46.70126" lon="5.64065">
        <ele>486.56</ele>
        <time>2017-05-20T09:37:04Z</time>
      </trkpt>
      <trkpt lat="46.70117" lon="5.64053">
        <ele>486.08</ele>
        <time>2017-05-20T09:37:15Z</time>
      </trkpt>
      <trkpt lat="46.70106" lon="5.64042">
        <ele>486.56</ele>
        <time>2017-05-20T09:37:28Z</time>
      </trkpt>
      <trkpt lat="46.70102" lon="5.64035">
        <ele>487.05</ele>
        <time>2017-05-20T09:37:38Z</time>
      </trkpt>
      <trkpt lat="46.70091" lon="5.6402">
        <ele>487.05</ele>
        <time>2017-05-20T09:37:50Z</time>
      </trkpt>
      <trkpt lat="46.70083" lon="5.64004">
        <ele>487.53</ele>
        <time>2017-05-20T09:38:00Z</time>
      </trkpt>
      <trkpt lat="46.70073" lon="5.63994">
        <ele>487.05</ele>
        <time>2017-05-20T09:38:12Z</time>
      </trkpt>
      <trkpt lat="46.70065" lon="5.63988">
        <ele>487.05</ele>
        <time>2017-05-20T09:38:17Z</time>
      </trkpt>
      <trkpt lat="46.70059" lon="5.63983">
        <ele>486.56</ele>
        <time>2017-05-20T09:38:22Z</time>
      </trkpt>
      <trkpt lat="46.7005" lon="5.63982">
        <ele>486.56</ele>
        <time>2017-05-20T09:38:30Z</time>
      </trkpt>
      <trkpt lat="46.70032" lon="5.63976">
        <ele>487.53</ele>
        <time>2017-05-20T09:38:45Z</time>
      </trkpt>
      <trkpt lat="46.7002" lon="5.63973">
        <ele>488.01</ele>
        <time>2017-05-20T09:38:56Z</time>
      </trkpt>
      <trkpt lat="46.70017" lon="5.63971">
        <ele>488.01</ele>
        <time>2017-05-20T09:38:59Z</time>
      </trkpt>
      <trkpt lat="46.70005" lon="5.63966">
        <ele>488.97</ele>
        <time>2017-05-20T09:39:09Z</time>
      </trkpt>
      <trkpt lat="46.69998" lon="5.6396">
        <ele>489.45</ele>
        <time>2017-05-20T09:39:18Z</time>
      </trkpt>
      <trkpt lat="46.69991" lon="5.63954">
        <ele>489.93</ele>
        <time>2017-05-20T09:39:25Z</time>
      </trkpt>
      <trkpt lat="46.69981" lon="5.63943">
        <ele>490.41</ele>
        <time>2017-05-20T09:39:38Z</time>
      </trkpt>
      <trkpt lat="46.69975" lon="5.63931">
        <ele>490.89</ele>
        <time>2017-05-20T09:39:50Z</time>
      </trkpt>
      <trkpt lat="46.69972" lon="5.63923">
        <ele>490.89</ele>
        <time>2017-05-20T09:40:01Z</time>
      </trkpt>
      <trkpt lat="46.69971" lon="5.63915">
        <ele>491.37</ele>
        <time>2017-05-20T09:40:06Z</time>
      </trkpt>
      <trkpt lat="46.69964" lon="5.63896">
        <ele>491.85</ele>
        <time>2017-05-20T09:40:20Z</time>
      </trkpt>
      <trkpt lat="46.69964" lon="5.63894">
        <ele>491.37</ele>
        <time>2017-05-20T09:40:22Z</time>
      </trkpt>
      <trkpt lat="46.69952" lon="5.63879">
        <ele>491.85</ele>
        <time>2017-05-20T09:40:34Z</time>
      </trkpt>
      <trkpt lat="46.69942" lon="5.63862">
        <ele>491.85</ele>
        <time>2017-05-20T09:40:48Z</time>
      </trkpt>
      <trkpt lat="46.69937" lon="5.63848">
        <ele>492.33</ele>
        <time>2017-05-20T09:41:00Z</time>
      </trkpt>
      <trkpt lat="46.69923" lon="5.63826">
        <ele>492.81</ele>
        <time>2017-05-20T09:41:14Z</time>
      </trkpt>
      <trkpt lat="46.69914" lon="5.63812">
        <ele>493.77</ele>
        <time>2017-05-20T09:41:26Z</time>
      </trkpt>
      <trkpt lat="46.69913" lon="5.63811">
        <ele>493.77</ele>
        <time>2017-05-20T09:41:27Z</time>
      </trkpt>
      <trkpt lat="46.69904" lon="5.63804">
        <ele>495.22</ele>
        <time>2017-05-20T09:41:39Z</time>
      </trkpt>
      <trkpt lat="46.69897" lon="5.63802">
        <ele>495.22</ele>
        <time>2017-05-20T09:41:49Z</time>
      </trkpt>
      <trkpt lat="46.69895" lon="5.63799">
        <ele>495.7</ele>
        <time>2017-05-20T09:42:08Z</time>
      </trkpt>
      <trkpt lat="46.6989" lon="5.63796">
        <ele>495.7</ele>
        <time>2017-05-20T09:42:14Z</time>
      </trkpt>
      <trkpt lat="46.69876" lon="5.63794">
        <ele>496.18</ele>
        <time>2017-05-20T09:42:26Z</time>
      </trkpt>
      <trkpt lat="46.69871" lon="5.63795">
        <ele>496.18</ele>
        <time>2017-05-20T09:42:30Z</time>
      </trkpt>
      <trkpt lat="46.69866" lon="5.63796">
        <ele>496.18</ele>
        <time>2017-05-20T09:42:35Z</time>
      </trkpt>
      <trkpt lat="46.69854" lon="5.63795">
        <ele>496.66</ele>
        <time>2017-05-20T09:42:46Z</time>
      </trkpt>
      <trkpt lat="46.69837" lon="5.63794">
        <ele>496.66</ele>
        <time>2017-05-20T09:43:02Z</time>
      </trkpt>
      <trkpt lat="46.69831" lon="5.63792">
        <ele>496.66</ele>
        <time>2017-05-20T09:43:08Z</time>
      </trkpt>
      <trkpt lat="46.69823" lon="5.63793">
        <ele>497.14</ele>
        <time>2017-05-20T09:43:15Z</time>
      </trkpt>
      <trkpt lat="46.6982" lon="5.63793">
        <ele>496.66</ele>
        <time>2017-05-20T09:43:18Z</time>
      </trkpt>
      <trkpt lat="46.69801" lon="5.63793">
        <ele>496.66</ele>
        <time>2017-05-20T09:43:35Z</time>
      </trkpt>
      <trkpt lat="46.69786" lon="5.6379">
        <ele>496.66</ele>
        <time>2017-05-20T09:43:48Z</time>
      </trkpt>
      <trkpt lat="46.69769" lon="5.63788">
        <ele>496.18</ele>
        <time>2017-05-20T09:44:02Z</time>
      </trkpt>
      <trkpt lat="46.69751" lon="5.63788">
        <ele>496.18</ele>
        <time>2017-05-20T09:44:16Z</time>
      </trkpt>
      <trkpt lat="46.6974" lon="5.63791">
        <ele>496.66</ele>
        <time>2017-05-20T09:44:27Z</time>
      </trkpt>
      <trkpt lat="46.69723" lon="5.63788">
        <ele>496.66</ele>
        <time>2017-05-20T09:44:42Z</time>
      </trkpt>
      <trkpt lat="46.69711" lon="5.63787">
        <ele>497.14</ele>
        <time>2017-05-20T09:44:53Z</time>
      </trkpt>
      <trkpt lat="46.69709" lon="5.63786">
        <ele>498.1</ele>
        <time>2017-05-20T09:44:55Z</time>
      </trkpt>
      <trkpt lat="46.69696" lon="5.63787">
        <ele>498.58</ele>
        <time>2017-05-20T09:45:08Z</time>
      </trkpt>
      <trkpt lat="46.69679" lon="5.63791">
        <ele>498.58</ele>
        <time>2017-05-20T09:45:25Z</time>
      </trkpt>
      <trkpt lat="46.69676" lon="5.6379">
        <ele>499.06</ele>
        <time>2017-05-20T09:45:28Z</time>
      </trkpt>
      <trkpt lat="46.69655" lon="5.63789">
        <ele>499.06</ele>
        <time>2017-05-20T09:45:44Z</time>
      </trkpt>
      <trkpt lat="46.69647" lon="5.63791">
        <ele>499.06</ele>
        <time>2017-05-20T09:45:52Z</time>
      </trkpt>
      <trkpt lat="46.69635" lon="5.63793">
        <ele>499.06</ele>
        <time>2017-05-20T09:46:03Z</time>
      </trkpt>
      <trkpt lat="46.69625" lon="5.63793">
        <ele>499.06</ele>
        <time>2017-05-20T09:46:10Z</time>
      </trkpt>
      <trkpt lat="46.69607" lon="5.63795">
        <ele>499.06</ele>
        <time>2017-05-20T09:46:24Z</time>
      </trkpt>
      <trkpt lat="46.69593" lon="5.63791">
        <ele>499.06</ele>
        <time>2017-05-20T09:46:36Z</time>
      </trkpt>
      <trkpt lat="46.69587" lon="5.63787">
        <ele>499.06</ele>
        <time>2017-05-20T09:46:42Z</time>
      </trkpt>
      <trkpt lat="46.69585" lon="5.63785">
        <ele>499.06</ele>
        <time>2017-05-20T09:46:44Z</time>
      </trkpt>
      <trkpt lat="46.69582" lon="5.63783">
        <ele>499.54</ele>
        <time>2017-05-20T09:46:47Z</time>
      </trkpt>
      <trkpt lat="46.69575" lon="5.63773">
        <ele>500.02</ele>
        <time>2017-05-20T09:46:56Z</time>
      </trkpt>
      <trkpt lat="46.69569" lon="5.63755">
        <ele>500.02</ele>
        <time>2017-05-20T09:47:08Z</time>
      </trkpt>
      <trkpt lat="46.69569" lon="5.63732">
        <ele>500.5</ele>
        <time>2017-05-20T09:47:21Z</time>
      </trkpt>
      <trkpt lat="46.69569" lon="5.63727">
        <ele>500.5</ele>
        <time>2017-05-20T09:47:24Z</time>
      </trkpt>
      <trkpt lat="46.6957" lon="5.63717">
        <ele>500.98</ele>
        <time>2017-05-20T09:47:30Z</time>
      </trkpt>
      <trkpt lat="46.69571" lon="5.63704">
        <ele>501.46</ele>
        <time>2017-05-20T09:47:38Z</time>
      </trkpt>
      <trkpt lat="46.69573" lon="5.63688">
        <ele>501.46</ele>
        <time>2017-05-20T09:47:47Z</time>
      </trkpt>
      <trkpt lat="46.69575" lon="5.6368">
        <ele>501.95</ele>
        <time>2017-05-20T09:47:53Z</time>
      </trkpt>
      <trkpt lat="46.69584" lon="5.6366">
        <ele>502.43</ele>
        <time>2017-05-20T09:48:08Z</time>
      </trkpt>
      <trkpt lat="46.69587" lon="5.63653">
        <ele>502.43</ele>
        <time>2017-05-20T09:48:14Z</time>
      </trkpt>
      <trkpt lat="46.69588" lon="5.63634">
        <ele>501.95</ele>
        <time>2017-05-20T09:48:28Z</time>
      </trkpt>
      <trkpt lat="46.69587" lon="5.63626">
        <ele>501.95</ele>
        <time>2017-05-20T09:48:32Z</time>
      </trkpt>
      <trkpt lat="46.69576" lon="5.63605">
        <ele>501.46</ele>
        <time>2017-05-20T09:48:45Z</time>
      </trkpt>
      <trkpt lat="46.69565" lon="5.63595">
        <ele>500.98</ele>
        <time>2017-05-20T09:48:58Z</time>
      </trkpt>
      <trkpt lat="46.69549" lon="5.63577">
        <ele>501.46</ele>
        <time>2017-05-20T09:49:15Z</time>
      </trkpt>
      <trkpt lat="46.69535" lon="5.63566">
        <ele>501.46</ele>
        <time>2017-05-20T09:49:29Z</time>
      </trkpt>
      <trkpt lat="46.69521" lon="5.63548">
        <ele>501.46</ele>
        <time>2017-05-20T09:49:44Z</time>
      </trkpt>
      <trkpt lat="46.69519" lon="5.63537">
        <ele>501.46</ele>
        <time>2017-05-20T09:49:59Z</time>
      </trkpt>
      <trkpt lat="46.6952" lon="5.63522">
        <ele>500.98</ele>
        <time>2017-05-20T09:50:11Z</time>
      </trkpt>
      <trkpt lat="46.69523" lon="5.63518">
        <ele>500.5</ele>
        <time>2017-05-20T09:50:24Z</time>
      </trkpt>
      <trkpt lat="46.69523" lon="5.63517">
        <ele>500.5</ele>
        <time>2017-05-20T09:50:25Z</time>
      </trkpt>
      <trkpt lat="46.69521" lon="5.63504">
        <ele>500.5</ele>
        <time>2017-05-20T09:50:36Z</time>
      </trkpt>
      <trkpt lat="46.69524" lon="5.635">
        <ele>500.5</ele>
        <time>2017-05-20T09:51:06Z</time>
      </trkpt>
      <trkpt lat="46.69524" lon="5.63501">
        <ele>500.98</ele>
        <time>2017-05-20T09:51:20Z</time>
      </trkpt>
      <trkpt lat="46.69524" lon="5.63516">
        <ele>500.98</ele>
        <time>2017-05-20T09:51:31Z</time>
      </trkpt>
      <trkpt lat="46.69524" lon="5.63516">
        <ele>504.83</ele>
        <time>2017-05-20T09:51:34Z</time>
      </trkpt>
      <trkpt lat="46.69524" lon="5.63516">
        <ele>501.46</ele>
        <time>2017-05-20T09:51:35Z</time>
      </trkpt>
      <trkpt lat="46.69524" lon="5.63515">
        <ele>500.98</ele>
        <time>2017-05-20T09:51:37Z</time>
      </trkpt>
      <trkpt lat="46.69524" lon="5.63515">
        <ele>500.5</ele>
        <time>2017-05-20T09:51:52Z</time>
      </trkpt>
      <trkpt lat="46.69535" lon="5.63482">
        <ele>497.62</ele>
        <time>2017-05-20T10:18:42Z</time>
      </trkpt>
      <trkpt lat="46.69533" lon="5.63481">
        <ele>497.14</ele>
        <time>2017-05-20T10:18:43Z</time>
      </trkpt>
      <trkpt lat="46.69521" lon="5.63507">
        <ele>500.98</ele>
        <time>2017-05-20T10:18:52Z</time>
      </trkpt>
      <trkpt lat="46.69521" lon="5.63506">
        <ele>499.54</ele>
        <time>2017-05-20T10:18:53Z</time>
      </trkpt>
      <trkpt lat="46.69521" lon="5.63506">
        <ele>500.5</ele>
        <time>2017-05-20T10:18:57Z</time>
      </trkpt>
      <trkpt lat="46.69521" lon="5.63509">
        <ele>503.39</ele>
        <time>2017-05-20T10:19:06Z</time>
      </trkpt>
      <trkpt lat="46.6952" lon="5.63511">
        <ele>506.27</ele>
        <time>2017-05-20T10:19:23Z</time>
      </trkpt>
      <trkpt lat="46.69519" lon="5.63513">
        <ele>507.71</ele>
        <time>2017-05-20T10:19:50Z</time>
      </trkpt>
      <trkpt lat="46.69517" lon="5.63521">
        <ele>507.71</ele>
        <time>2017-05-20T10:20:27Z</time>
      </trkpt>
      <trkpt lat="46.69519" lon="5.63519">
        <ele>507.71</ele>
        <time>2017-05-20T10:20:40Z</time>
      </trkpt>
      <trkpt lat="46.6952" lon="5.63516">
        <ele>507.71</ele>
        <time>2017-05-20T10:20:59Z</time>
      </trkpt>
      <trkpt lat="46.6952" lon="5.63515">
        <ele>507.71</ele>
        <time>2017-05-20T10:21:24Z</time>
      </trkpt>
      <trkpt lat="46.6952" lon="5.63516">
        <ele>507.71</ele>
        <time>2017-05-20T10:21:43Z</time>
      </trkpt>
      <trkpt lat="46.6952" lon="5.63516">
        <ele>508.19</ele>
        <time>2017-05-20T10:22:04Z</time>
      </trkpt>
      <trkpt lat="46.6952" lon="5.63517">
        <ele>507.71</ele>
        <time>2017-05-20T10:22:23Z</time>
      </trkpt>
      <trkpt lat="46.69521" lon="5.63517">
        <ele>507.71</ele>
        <time>2017-05-20T10:22:41Z</time>
      </trkpt>
      <trkpt lat="46.69521" lon="5.63518">
        <ele>507.71</ele>
        <time>2017-05-20T10:23:02Z</time>
      </trkpt>
      <trkpt lat="46.69519" lon="5.6352">
        <ele>508.19</ele>
        <time>2017-05-20T10:23:19Z</time>
      </trkpt>
      <trkpt lat="46.69516" lon="5.63522">
        <ele>508.19</ele>
        <time>2017-05-20T10:23:23Z</time>
      </trkpt>
      <trkpt lat="46.69509" lon="5.63523">
        <ele>508.19</ele>
        <time>2017-05-20T10:23:37Z</time>
      </trkpt>
      <trkpt lat="46.69507" lon="5.63523">
        <ele>508.19</ele>
        <time>2017-05-20T10:23:49Z</time>
      </trkpt>
      <trkpt lat="46.69495" lon="5.63514">
        <ele>508.67</ele>
        <time>2017-05-20T10:24:02Z</time>
      </trkpt>
      <trkpt lat="46.6949" lon="5.6351">
        <ele>509.16</ele>
        <time>2017-05-20T10:24:07Z</time>
      </trkpt>
      <trkpt lat="46.69478" lon="5.63504">
        <ele>510.12</ele>
        <time>2017-05-20T10:24:20Z</time>
      </trkpt>
      <trkpt lat="46.69466" lon="5.63502">
        <ele>510.6</ele>
        <time>2017-05-20T10:24:32Z</time>
      </trkpt>
      <trkpt lat="46.69448" lon="5.63497">
        <ele>511.08</ele>
        <time>2017-05-20T10:24:49Z</time>
      </trkpt>
      <trkpt lat="46.69443" lon="5.63496">
        <ele>511.08</ele>
        <time>2017-05-20T10:24:53Z</time>
      </trkpt>
      <trkpt lat="46.69428" lon="5.63491">
        <ele>511.08</ele>
        <time>2017-05-20T10:25:07Z</time>
      </trkpt>
      <trkpt lat="46.69412" lon="5.63481">
        <ele>511.56</ele>
        <time>2017-05-20T10:25:22Z</time>
      </trkpt>
      <trkpt lat="46.69406" lon="5.63476">
        <ele>511.08</ele>
        <time>2017-05-20T10:25:28Z</time>
      </trkpt>
      <trkpt lat="46.69389" lon="5.63466">
        <ele>511.56</ele>
        <time>2017-05-20T10:25:44Z</time>
      </trkpt>
      <trkpt lat="46.69373" lon="5.63456">
        <ele>512.04</ele>
        <time>2017-05-20T10:25:59Z</time>
      </trkpt>
      <trkpt lat="46.69359" lon="5.63448">
        <ele>512.04</ele>
        <time>2017-05-20T10:26:12Z</time>
      </trkpt>
      <trkpt lat="46.6934" lon="5.63437">
        <ele>512.52</ele>
        <time>2017-05-20T10:26:28Z</time>
      </trkpt>
      <trkpt lat="46.69322" lon="5.63431">
        <ele>513</ele>
        <time>2017-05-20T10:26:44Z</time>
      </trkpt>
      <trkpt lat="46.69313" lon="5.63429">
        <ele>513.48</ele>
        <time>2017-05-20T10:26:57Z</time>
      </trkpt>
      <trkpt lat="46.69314" lon="5.63427">
        <ele>513.48</ele>
        <time>2017-05-20T10:27:08Z</time>
      </trkpt>
      <trkpt lat="46.69314" lon="5.63427">
        <ele>513.48</ele>
        <time>2017-05-20T10:27:28Z</time>
      </trkpt>
      <trkpt lat="46.69311" lon="5.63427">
        <ele>513.48</ele>
        <time>2017-05-20T10:27:46Z</time>
      </trkpt>
      <trkpt lat="46.69292" lon="5.63428">
        <ele>514.44</ele>
        <time>2017-05-20T10:28:01Z</time>
      </trkpt>
      <trkpt lat="46.69291" lon="5.63428">
        <ele>514.44</ele>
        <time>2017-05-20T10:28:02Z</time>
      </trkpt>
      <trkpt lat="46.69282" lon="5.63427">
        <ele>514.92</ele>
        <time>2017-05-20T10:28:10Z</time>
      </trkpt>
      <trkpt lat="46.69263" lon="5.63431">
        <ele>516.37</ele>
        <time>2017-05-20T10:28:26Z</time>
      </trkpt>
      <trkpt lat="46.6925" lon="5.6344">
        <ele>517.33</ele>
        <time>2017-05-20T10:28:38Z</time>
      </trkpt>
      <trkpt lat="46.69238" lon="5.63452">
        <ele>517.81</ele>
        <time>2017-05-20T10:28:53Z</time>
      </trkpt>
      <trkpt lat="46.69229" lon="5.63465">
        <ele>518.77</ele>
        <time>2017-05-20T10:29:05Z</time>
      </trkpt>
      <trkpt lat="46.69217" lon="5.63477">
        <ele>519.25</ele>
        <time>2017-05-20T10:29:21Z</time>
      </trkpt>
      <trkpt lat="46.69201" lon="5.6348">
        <ele>519.25</ele>
        <time>2017-05-20T10:29:35Z</time>
      </trkpt>
      <trkpt lat="46.69188" lon="5.63487">
        <ele>518.29</ele>
        <time>2017-05-20T10:29:46Z</time>
      </trkpt>
      <trkpt lat="46.69186" lon="5.63487">
        <ele>518.77</ele>
        <time>2017-05-20T10:29:47Z</time>
      </trkpt>
      <trkpt lat="46.69172" lon="5.6349">
        <ele>518.29</ele>
        <time>2017-05-20T10:30:00Z</time>
      </trkpt>
      <trkpt lat="46.6915" lon="5.63492">
        <ele>518.29</ele>
        <time>2017-05-20T10:30:12Z</time>
      </trkpt>
      <trkpt lat="46.69134" lon="5.63503">
        <ele>517.81</ele>
        <time>2017-05-20T10:30:25Z</time>
      </trkpt>
      <trkpt lat="46.69121" lon="5.63503">
        <ele>517.33</ele>
        <time>2017-05-20T10:30:35Z</time>
      </trkpt>
      <trkpt lat="46.69112" lon="5.63504">
        <ele>517.33</ele>
        <time>2017-05-20T10:30:42Z</time>
      </trkpt>
      <trkpt lat="46.691" lon="5.63509">
        <ele>516.37</ele>
        <time>2017-05-20T10:30:50Z</time>
      </trkpt>
      <trkpt lat="46.69097" lon="5.63517">
        <ele>516.37</ele>
        <time>2017-05-20T10:30:54Z</time>
      </trkpt>
      <trkpt lat="46.69075" lon="5.63517">
        <ele>515.88</ele>
        <time>2017-05-20T10:31:09Z</time>
      </trkpt>
      <trkpt lat="46.69062" lon="5.63522">
        <ele>516.37</ele>
        <time>2017-05-20T10:31:20Z</time>
      </trkpt>
      <trkpt lat="46.69056" lon="5.63524">
        <ele>515.4</ele>
        <time>2017-05-20T10:31:28Z</time>
      </trkpt>
      <trkpt lat="46.69048" lon="5.63536">
        <ele>514.92</ele>
        <time>2017-05-20T10:31:40Z</time>
      </trkpt>
      <trkpt lat="46.69042" lon="5.63547">
        <ele>513.96</ele>
        <time>2017-05-20T10:31:51Z</time>
      </trkpt>
      <trkpt lat="46.69037" lon="5.63558">
        <ele>512.52</ele>
        <time>2017-05-20T10:32:04Z</time>
      </trkpt>
      <trkpt lat="46.69032" lon="5.63568">
        <ele>512.04</ele>
        <time>2017-05-20T10:32:14Z</time>
      </trkpt>
      <trkpt lat="46.69021" lon="5.63588">
        <ele>510.6</ele>
        <time>2017-05-20T10:32:24Z</time>
      </trkpt>
      <trkpt lat="46.69011" lon="5.63602">
        <ele>509.16</ele>
        <time>2017-05-20T10:32:34Z</time>
      </trkpt>
      <trkpt lat="46.68994" lon="5.63622">
        <ele>507.71</ele>
        <time>2017-05-20T10:32:47Z</time>
      </trkpt>
      <trkpt lat="46.68985" lon="5.63632">
        <ele>507.23</ele>
        <time>2017-05-20T10:32:54Z</time>
      </trkpt>
      <trkpt lat="46.68983" lon="5.63635">
        <ele>506.75</ele>
        <time>2017-05-20T10:32:56Z</time>
      </trkpt>
      <trkpt lat="46.68978" lon="5.63646">
        <ele>506.27</ele>
        <time>2017-05-20T10:33:08Z</time>
      </trkpt>
      <trkpt lat="46.68965" lon="5.63666">
        <ele>506.27</ele>
        <time>2017-05-20T10:33:20Z</time>
      </trkpt>
      <trkpt lat="46.68948" lon="5.63684">
        <ele>505.79</ele>
        <time>2017-05-20T10:33:34Z</time>
      </trkpt>
      <trkpt lat="46.68934" lon="5.63691">
        <ele>504.83</ele>
        <time>2017-05-20T10:33:47Z</time>
      </trkpt>
      <trkpt lat="46.68921" lon="5.63696">
        <ele>505.31</ele>
        <time>2017-05-20T10:33:59Z</time>
      </trkpt>
      <trkpt lat="46.68907" lon="5.63699">
        <ele>504.35</ele>
        <time>2017-05-20T10:34:12Z</time>
      </trkpt>
      <trkpt lat="46.6889" lon="5.63705">
        <ele>504.35</ele>
        <time>2017-05-20T10:34:24Z</time>
      </trkpt>
      <trkpt lat="46.68875" lon="5.63713">
        <ele>503.87</ele>
        <time>2017-05-20T10:34:35Z</time>
      </trkpt>
      <trkpt lat="46.68858" lon="5.6372">
        <ele>503.39</ele>
        <time>2017-05-20T10:34:48Z</time>
      </trkpt>
      <trkpt lat="46.6885" lon="5.63725">
        <ele>503.39</ele>
        <time>2017-05-20T10:35:00Z</time>
      </trkpt>
      <trkpt lat="46.68835" lon="5.63736">
        <ele>502.43</ele>
        <time>2017-05-20T10:35:14Z</time>
      </trkpt>
      <trkpt lat="46.68823" lon="5.63748">
        <ele>502.43</ele>
        <time>2017-05-20T10:35:31Z</time>
      </trkpt>
      <trkpt lat="46.68814" lon="5.63765">
        <ele>502.91</ele>
        <time>2017-05-20T10:35:46Z</time>
      </trkpt>
      <trkpt lat="46.68814" lon="5.63766">
        <ele>502.91</ele>
        <time>2017-05-20T10:35:47Z</time>
      </trkpt>
      <trkpt lat="46.68812" lon="5.6379">
        <ele>502.91</ele>
        <time>2017-05-20T10:36:02Z</time>
      </trkpt>
      <trkpt lat="46.68812" lon="5.63796">
        <ele>502.91</ele>
        <time>2017-05-20T10:36:06Z</time>
      </trkpt>
      <trkpt lat="46.68817" lon="5.63811">
        <ele>503.87</ele>
        <time>2017-05-20T10:36:18Z</time>
      </trkpt>
      <trkpt lat="46.68817" lon="5.63812">
        <ele>503.87</ele>
        <time>2017-05-20T10:36:40Z</time>
      </trkpt>
      <trkpt lat="46.68817" lon="5.63812">
        <ele>503.87</ele>
        <time>2017-05-20T10:37:04Z</time>
      </trkpt>
      <trkpt lat="46.68818" lon="5.63813">
        <ele>503.87</ele>
        <time>2017-05-20T10:37:21Z</time>
      </trkpt>
      <trkpt lat="46.68818" lon="5.63813">
        <ele>503.87</ele>
        <time>2017-05-20T10:37:39Z</time>
      </trkpt>
      <trkpt lat="46.68818" lon="5.63813">
        <ele>503.87</ele>
        <time>2017-05-20T10:37:56Z</time>
      </trkpt>
      <trkpt lat="46.68817" lon="5.63822">
        <ele>505.31</ele>
        <time>2017-05-20T10:38:09Z</time>
      </trkpt>
      <trkpt lat="46.68814" lon="5.63837">
        <ele>504.83</ele>
        <time>2017-05-20T10:38:22Z</time>
      </trkpt>
      <trkpt lat="46.68813" lon="5.6384">
        <ele>504.83</ele>
        <time>2017-05-20T10:38:40Z</time>
      </trkpt>
      <trkpt lat="46.68814" lon="5.63844">
        <ele>504.83</ele>
        <time>2017-05-20T10:38:57Z</time>
      </trkpt>
      <trkpt lat="46.68814" lon="5.63841">
        <ele>504.83</ele>
        <time>2017-05-20T10:39:12Z</time>
      </trkpt>
      <trkpt lat="46.68814" lon="5.63846">
        <ele>504.83</ele>
        <time>2017-05-20T10:39:33Z</time>
      </trkpt>
      <trkpt lat="46.68813" lon="5.63849">
        <ele>504.83</ele>
        <time>2017-05-20T10:39:50Z</time>
      </trkpt>
      <trkpt lat="46.68813" lon="5.6385">
        <ele>504.83</ele>
        <time>2017-05-20T10:40:08Z</time>
      </trkpt>
      <trkpt lat="46.68814" lon="5.63852">
        <ele>504.83</ele>
        <time>2017-05-20T10:40:22Z</time>
      </trkpt>
      <trkpt lat="46.68814" lon="5.63854">
        <ele>505.31</ele>
        <time>2017-05-20T10:40:37Z</time>
      </trkpt>
      <trkpt lat="46.68808" lon="5.63855">
        <ele>504.35</ele>
        <time>2017-05-20T10:40:50Z</time>
      </trkpt>
      <trkpt lat="46.68803" lon="5.63858">
        <ele>504.35</ele>
        <time>2017-05-20T10:41:05Z</time>
      </trkpt>
      <trkpt lat="46.68802" lon="5.6386">
        <ele>504.83</ele>
        <time>2017-05-20T10:41:30Z</time>
      </trkpt>
      <trkpt lat="46.68802" lon="5.6386">
        <ele>504.35</ele>
        <time>2017-05-20T10:41:57Z</time>
      </trkpt>
      <trkpt lat="46.68802" lon="5.6386">
        <ele>504.35</ele>
        <time>2017-05-20T10:42:21Z</time>
      </trkpt>
      <trkpt lat="46.68801" lon="5.6386">
        <ele>504.83</ele>
        <time>2017-05-20T10:42:42Z</time>
      </trkpt>
      <trkpt lat="46.68802" lon="5.63859">
        <ele>504.83</ele>
        <time>2017-05-20T10:43:05Z</time>
      </trkpt>
      <trkpt lat="46.68802" lon="5.63859">
        <ele>504.35</ele>
        <time>2017-05-20T10:43:31Z</time>
      </trkpt>
      <trkpt lat="46.68802" lon="5.63859">
        <ele>504.35</ele>
        <time>2017-05-20T10:43:50Z</time>
      </trkpt>
      <trkpt lat="46.68802" lon="5.6386">
        <ele>504.35</ele>
        <time>2017-05-20T10:44:12Z</time>
      </trkpt>
      <trkpt lat="46.68805" lon="5.63869">
        <ele>504.35</ele>
        <time>2017-05-20T10:44:25Z</time>
      </trkpt>
      <trkpt lat="46.68808" lon="5.63885">
        <ele>503.87</ele>
        <time>2017-05-20T10:44:38Z</time>
      </trkpt>
      <trkpt lat="46.68807" lon="5.63905">
        <ele>503.87</ele>
        <time>2017-05-20T10:44:50Z</time>
      </trkpt>
      <trkpt lat="46.68805" lon="5.63919">
        <ele>503.87</ele>
        <time>2017-05-20T10:45:07Z</time>
      </trkpt>
      <trkpt lat="46.68805" lon="5.63918">
        <ele>503.39</ele>
        <time>2017-05-20T10:45:27Z</time>
      </trkpt>
      <trkpt lat="46.68806" lon="5.63918">
        <ele>503.87</ele>
        <time>2017-05-20T10:45:56Z</time>
      </trkpt>
      <trkpt lat="46.68806" lon="5.63918">
        <ele>503.87</ele>
        <time>2017-05-20T10:46:30Z</time>
      </trkpt>
      <trkpt lat="46.68806" lon="5.63918">
        <ele>503.39</ele>
        <time>2017-05-20T10:46:58Z</time>
      </trkpt>
      <trkpt lat="46.68806" lon="5.63918">
        <ele>503.39</ele>
        <time>2017-05-20T10:47:19Z</time>
      </trkpt>
      <trkpt lat="46.68807" lon="5.63918">
        <ele>503.39</ele>
        <time>2017-05-20T10:47:39Z</time>
      </trkpt>
      <trkpt lat="46.68807" lon="5.63917">
        <ele>504.35</ele>
        <time>2017-05-20T10:47:53Z</time>
      </trkpt>
      <trkpt lat="46.68807" lon="5.63917">
        <ele>504.35</ele>
        <time>2017-05-20T10:48:06Z</time>
      </trkpt>
      <trkpt lat="46.68807" lon="5.63917">
        <ele>503.87</ele>
        <time>2017-05-20T10:48:23Z</time>
      </trkpt>
      <trkpt lat="46.68806" lon="5.63917">
        <ele>503.39</ele>
        <time>2017-05-20T10:48:42Z</time>
      </trkpt>
      <trkpt lat="46.68807" lon="5.63917">
        <ele>503.87</ele>
        <time>2017-05-20T10:48:53Z</time>
      </trkpt>
      <trkpt lat="46.68807" lon="5.63917">
        <ele>503.87</ele>
        <time>2017-05-20T10:49:10Z</time>
      </trkpt>
      <trkpt lat="46.68807" lon="5.63917">
        <ele>504.35</ele>
        <time>2017-05-20T10:49:27Z</time>
      </trkpt>
      <trkpt lat="46.68807" lon="5.63917">
        <ele>504.35</ele>
        <time>2017-05-20T10:49:45Z</time>
      </trkpt>
      <trkpt lat="46.68804" lon="5.63918">
        <ele>504.35</ele>
        <time>2017-05-20T10:50:02Z</time>
      </trkpt>
      <trkpt lat="46.68801" lon="5.63922">
        <ele>504.83</ele>
        <time>2017-05-20T10:50:12Z</time>
      </trkpt>
      <trkpt lat="46.68793" lon="5.63949">
        <ele>503.87</ele>
        <time>2017-05-20T10:50:27Z</time>
      </trkpt>
      <trkpt lat="46.68797" lon="5.63969">
        <ele>503.87</ele>
        <time>2017-05-20T10:50:42Z</time>
      </trkpt>
      <trkpt lat="46.68797" lon="5.63973">
        <ele>503.87</ele>
        <time>2017-05-20T10:51:02Z</time>
      </trkpt>
      <trkpt lat="46.68796" lon="5.63973">
        <ele>503.87</ele>
        <time>2017-05-20T10:51:26Z</time>
      </trkpt>
      <trkpt lat="46.68798" lon="5.63975">
        <ele>503.39</ele>
        <time>2017-05-20T10:51:33Z</time>
      </trkpt>
      <trkpt lat="46.68808" lon="5.63981">
        <ele>502.43</ele>
        <time>2017-05-20T10:51:44Z</time>
      </trkpt>
      <trkpt lat="46.68812" lon="5.63983">
        <ele>502.43</ele>
        <time>2017-05-20T10:51:47Z</time>
      </trkpt>
      <trkpt lat="46.68824" lon="5.63976">
        <ele>502.43</ele>
        <time>2017-05-20T10:52:00Z</time>
      </trkpt>
      <trkpt lat="46.68826" lon="5.63977">
        <ele>501.95</ele>
        <time>2017-05-20T10:52:19Z</time>
      </trkpt>
      <trkpt lat="46.68825" lon="5.63979">
        <ele>501.46</ele>
        <time>2017-05-20T10:52:21Z</time>
      </trkpt>
      <trkpt lat="46.6882" lon="5.63982">
        <ele>501.95</ele>
        <time>2017-05-20T10:52:28Z</time>
      </trkpt>
      <trkpt lat="46.68807" lon="5.63979">
        <ele>502.91</ele>
        <time>2017-05-20T10:52:42Z</time>
      </trkpt>
      <trkpt lat="46.688" lon="5.63975">
        <ele>502.91</ele>
        <time>2017-05-20T10:52:56Z</time>
      </trkpt>
      <trkpt lat="46.68799" lon="5.63975">
        <ele>503.39</ele>
        <time>2017-05-20T10:53:01Z</time>
      </trkpt>
      <trkpt lat="46.68797" lon="5.6397">
        <ele>502.91</ele>
        <time>2017-05-20T10:53:04Z</time>
      </trkpt>
      <trkpt lat="46.68795" lon="5.63955">
        <ele>503.39</ele>
        <time>2017-05-20T10:53:15Z</time>
      </trkpt>
      <trkpt lat="46.68798" lon="5.63942">
        <ele>503.87</ele>
        <time>2017-05-20T10:53:22Z</time>
      </trkpt>
      <trkpt lat="46.68799" lon="5.63935">
        <ele>503.87</ele>
        <time>2017-05-20T10:53:26Z</time>
      </trkpt>
      <trkpt lat="46.68803" lon="5.63929">
        <ele>503.39</ele>
        <time>2017-05-20T10:53:31Z</time>
      </trkpt>
      <trkpt lat="46.68806" lon="5.63919">
        <ele>503.87</ele>
        <time>2017-05-20T10:53:44Z</time>
      </trkpt>
      <trkpt lat="46.68806" lon="5.63918">
        <ele>503.87</ele>
        <time>2017-05-20T10:53:57Z</time>
      </trkpt>
      <trkpt lat="46.68806" lon="5.63919">
        <ele>503.87</ele>
        <time>2017-05-20T10:54:26Z</time>
      </trkpt>
      <trkpt lat="46.68807" lon="5.63918">
        <ele>503.87</ele>
        <time>2017-05-20T10:54:43Z</time>
      </trkpt>
      <trkpt lat="46.68807" lon="5.63917">
        <ele>503.87</ele>
        <time>2017-05-20T10:55:03Z</time>
      </trkpt>
      <trkpt lat="46.68807" lon="5.63917">
        <ele>503.87</ele>
        <time>2017-05-20T10:55:27Z</time>
      </trkpt>
      <trkpt lat="46.68807" lon="5.63917">
        <ele>503.87</ele>
        <time>2017-05-20T10:55:45Z</time>
      </trkpt>
      <trkpt lat="46.68807" lon="5.63917">
        <ele>503.39</ele>
        <time>2017-05-20T10:56:04Z</time>
      </trkpt>
      <trkpt lat="46.68807" lon="5.63917">
        <ele>503.87</ele>
        <time>2017-05-20T10:56:30Z</time>
      </trkpt>
      <trkpt lat="46.68807" lon="5.63917">
        <ele>504.35</ele>
        <time>2017-05-20T10:56:55Z</time>
      </trkpt>
      <trkpt lat="46.68808" lon="5.63916">
        <ele>504.35</ele>
        <time>2017-05-20T10:57:17Z</time>
      </trkpt>
      <trkpt lat="46.68809" lon="5.63915">
        <ele>504.35</ele>
        <time>2017-05-20T10:57:41Z</time>
      </trkpt>
      <trkpt lat="46.68809" lon="5.63915">
        <ele>504.35</ele>
        <time>2017-05-20T10:58:03Z</time>
      </trkpt>
      <trkpt lat="46.68809" lon="5.63915">
        <ele>504.35</ele>
        <time>2017-05-20T10:58:26Z</time>
      </trkpt>
      <trkpt lat="46.68809" lon="5.63914">
        <ele>503.87</ele>
        <time>2017-05-20T10:58:46Z</time>
      </trkpt>
      <trkpt lat="46.68809" lon="5.63906">
        <ele>504.35</ele>
        <time>2017-05-20T10:58:56Z</time>
      </trkpt>
      <trkpt lat="46.68811" lon="5.63889">
        <ele>505.31</ele>
        <time>2017-05-20T10:59:09Z</time>
      </trkpt>
      <trkpt lat="46.68811" lon="5.63888">
        <ele>505.31</ele>
        <time>2017-05-20T10:59:10Z</time>
      </trkpt>
      <trkpt lat="46.68811" lon="5.63869">
        <ele>504.83</ele>
        <time>2017-05-20T10:59:22Z</time>
      </trkpt>
      <trkpt lat="46.68811" lon="5.63855">
        <ele>505.31</ele>
        <time>2017-05-20T10:59:34Z</time>
      </trkpt>
      <trkpt lat="46.68813" lon="5.63853">
        <ele>505.31</ele>
        <time>2017-05-20T10:59:51Z</time>
      </trkpt>
      <trkpt lat="46.68811" lon="5.63845">
        <ele>505.31</ele>
        <time>2017-05-20T11:00:07Z</time>
      </trkpt>
      <trkpt lat="46.68811" lon="5.6382">
        <ele>504.83</ele>
        <time>2017-05-20T11:00:22Z</time>
      </trkpt>
      <trkpt lat="46.68809" lon="5.63792">
        <ele>503.87</ele>
        <time>2017-05-20T11:00:38Z</time>
      </trkpt>
      <trkpt lat="46.68812" lon="5.63769">
        <ele>503.39</ele>
        <time>2017-05-20T11:00:50Z</time>
      </trkpt>
      <trkpt lat="46.68815" lon="5.6376">
        <ele>503.39</ele>
        <time>2017-05-20T11:00:57Z</time>
      </trkpt>
      <trkpt lat="46.68825" lon="5.63746">
        <ele>503.39</ele>
        <time>2017-05-20T11:01:08Z</time>
      </trkpt>
      <trkpt lat="46.68839" lon="5.6373">
        <ele>502.91</ele>
        <time>2017-05-20T11:01:23Z</time>
      </trkpt>
      <trkpt lat="46.68857" lon="5.63719">
        <ele>503.87</ele>
        <time>2017-05-20T11:01:39Z</time>
      </trkpt>
      <trkpt lat="46.68874" lon="5.63714">
        <ele>504.83</ele>
        <time>2017-05-20T11:01:53Z</time>
      </trkpt>
      <trkpt lat="46.68889" lon="5.6371">
        <ele>505.31</ele>
        <time>2017-05-20T11:02:07Z</time>
      </trkpt>
      <trkpt lat="46.68904" lon="5.63704">
        <ele>505.31</ele>
        <time>2017-05-20T11:02:22Z</time>
      </trkpt>
      <trkpt lat="46.68918" lon="5.63698">
        <ele>505.79</ele>
        <time>2017-05-20T11:02:35Z</time>
      </trkpt>
      <trkpt lat="46.68935" lon="5.63688">
        <ele>505.79</ele>
        <time>2017-05-20T11:02:49Z</time>
      </trkpt>
      <trkpt lat="46.68951" lon="5.63676">
        <ele>506.27</ele>
        <time>2017-05-20T11:03:01Z</time>
      </trkpt>
      <trkpt lat="46.68965" lon="5.63664">
        <ele>506.75</ele>
        <time>2017-05-20T11:03:15Z</time>
      </trkpt>
      <trkpt lat="46.68976" lon="5.63652">
        <ele>508.19</ele>
        <time>2017-05-20T11:03:28Z</time>
      </trkpt>
      <trkpt lat="46.68988" lon="5.63634">
        <ele>509.16</ele>
        <time>2017-05-20T11:03:43Z</time>
      </trkpt>
      <trkpt lat="46.68998" lon="5.63624">
        <ele>509.64</ele>
        <time>2017-05-20T11:03:55Z</time>
      </trkpt>
      <trkpt lat="46.69009" lon="5.63609">
        <ele>511.08</ele>
        <time>2017-05-20T11:04:06Z</time>
      </trkpt>
      <trkpt lat="46.69019" lon="5.63593">
        <ele>512.04</ele>
        <time>2017-05-20T11:04:18Z</time>
      </trkpt>
      <trkpt lat="46.6902" lon="5.63592">
        <ele>513</ele>
        <time>2017-05-20T11:04:20Z</time>
      </trkpt>
      <trkpt lat="46.69026" lon="5.63574">
        <ele>513.48</ele>
        <time>2017-05-20T11:04:31Z</time>
      </trkpt>
      <trkpt lat="46.69037" lon="5.63558">
        <ele>513.96</ele>
        <time>2017-05-20T11:04:41Z</time>
      </trkpt>
      <trkpt lat="46.69042" lon="5.63544">
        <ele>514.92</ele>
        <time>2017-05-20T11:04:52Z</time>
      </trkpt>
      <trkpt lat="46.6905" lon="5.6353">
        <ele>515.4</ele>
        <time>2017-05-20T11:05:05Z</time>
      </trkpt>
      <trkpt lat="46.69055" lon="5.63523">
        <ele>515.4</ele>
        <time>2017-05-20T11:05:12Z</time>
      </trkpt>
      <trkpt lat="46.69057" lon="5.63518">
        <ele>515.4</ele>
        <time>2017-05-20T11:05:16Z</time>
      </trkpt>
      <trkpt lat="46.69068" lon="5.63512">
        <ele>515.4</ele>
        <time>2017-05-20T11:05:29Z</time>
      </trkpt>
      <trkpt lat="46.6907" lon="5.63509">
        <ele>515.4</ele>
        <time>2017-05-20T11:05:40Z</time>
      </trkpt>
      <trkpt lat="46.6908" lon="5.63504">
        <ele>515.88</ele>
        <time>2017-05-20T11:05:52Z</time>
      </trkpt>
      <trkpt lat="46.69091" lon="5.63503">
        <ele>515.88</ele>
        <time>2017-05-20T11:06:07Z</time>
      </trkpt>
      <trkpt lat="46.691" lon="5.63503">
        <ele>516.37</ele>
        <time>2017-05-20T11:06:22Z</time>
      </trkpt>
      <trkpt lat="46.69113" lon="5.63498">
        <ele>515.88</ele>
        <time>2017-05-20T11:06:48Z</time>
      </trkpt>
      <trkpt lat="46.69115" lon="5.63497">
        <ele>515.88</ele>
        <time>2017-05-20T11:07:13Z</time>
      </trkpt>
      <trkpt lat="46.69115" lon="5.63498">
        <ele>515.4</ele>
        <time>2017-05-20T11:07:35Z</time>
      </trkpt>
      <trkpt lat="46.69114" lon="5.63497">
        <ele>515.88</ele>
        <time>2017-05-20T11:07:50Z</time>
      </trkpt>
      <trkpt lat="46.69121" lon="5.63496">
        <ele>515.88</ele>
        <time>2017-05-20T11:08:02Z</time>
      </trkpt>
      <trkpt lat="46.69132" lon="5.63492">
        <ele>516.37</ele>
        <time>2017-05-20T11:08:16Z</time>
      </trkpt>
      <trkpt lat="46.69144" lon="5.63489">
        <ele>516.85</ele>
        <time>2017-05-20T11:08:28Z</time>
      </trkpt>
      <trkpt lat="46.69159" lon="5.63487">
        <ele>516.85</ele>
        <time>2017-05-20T11:08:41Z</time>
      </trkpt>
      <trkpt lat="46.69173" lon="5.63484">
        <ele>517.33</ele>
        <time>2017-05-20T11:08:57Z</time>
      </trkpt>
      <trkpt lat="46.69181" lon="5.63482">
        <ele>517.33</ele>
        <time>2017-05-20T11:09:09Z</time>
      </trkpt>
      <trkpt lat="46.69202" lon="5.63474">
        <ele>516.85</ele>
        <time>2017-05-20T11:09:22Z</time>
      </trkpt>
      <trkpt lat="46.69217" lon="5.63465">
        <ele>516.37</ele>
        <time>2017-05-20T11:09:31Z</time>
      </trkpt>
      <trkpt lat="46.69227" lon="5.63454">
        <ele>515.88</ele>
        <time>2017-05-20T11:09:40Z</time>
      </trkpt>
      <trkpt lat="46.69231" lon="5.63451">
        <ele>515.4</ele>
        <time>2017-05-20T11:09:44Z</time>
      </trkpt>
      <trkpt lat="46.69252" lon="5.63438">
        <ele>514.44</ele>
        <time>2017-05-20T11:09:58Z</time>
      </trkpt>
      <trkpt lat="46.69271" lon="5.63429">
        <ele>513.48</ele>
        <time>2017-05-20T11:10:13Z</time>
      </trkpt>
      <trkpt lat="46.69291" lon="5.63428">
        <ele>512.52</ele>
        <time>2017-05-20T11:10:29Z</time>
      </trkpt>
      <trkpt lat="46.69311" lon="5.63429">
        <ele>512.04</ele>
        <time>2017-05-20T11:10:45Z</time>
      </trkpt>
      <trkpt lat="46.69314" lon="5.63427">
        <ele>512.04</ele>
        <time>2017-05-20T11:10:52Z</time>
      </trkpt>
      <trkpt lat="46.69313" lon="5.63415">
        <ele>512.04</ele>
        <time>2017-05-20T11:11:01Z</time>
      </trkpt>
      <trkpt lat="46.69307" lon="5.63405">
        <ele>513</ele>
        <time>2017-05-20T11:11:14Z</time>
      </trkpt>
      <trkpt lat="46.69306" lon="5.63405">
        <ele>512.52</ele>
        <time>2017-05-20T11:11:15Z</time>
      </trkpt>
      <trkpt lat="46.69302" lon="5.63401">
        <ele>513</ele>
        <time>2017-05-20T11:11:21Z</time>
      </trkpt>
      <trkpt lat="46.69292" lon="5.63391">
        <ele>513.96</ele>
        <time>2017-05-20T11:11:35Z</time>
      </trkpt>
      <trkpt lat="46.69285" lon="5.63382">
        <ele>514.92</ele>
        <time>2017-05-20T11:11:47Z</time>
      </trkpt>
      <trkpt lat="46.69275" lon="5.63374">
        <ele>515.4</ele>
        <time>2017-05-20T11:11:59Z</time>
      </trkpt>
      <trkpt lat="46.69262" lon="5.63361">
        <ele>515.88</ele>
        <time>2017-05-20T11:12:13Z</time>
      </trkpt>
      <trkpt lat="46.69254" lon="5.63355">
        <ele>516.37</ele>
        <time>2017-05-20T11:12:26Z</time>
      </trkpt>
      <trkpt lat="46.69253" lon="5.63354">
        <ele>516.85</ele>
        <time>2017-05-20T11:12:27Z</time>
      </trkpt>
      <trkpt lat="46.69237" lon="5.63347">
        <ele>517.33</ele>
        <time>2017-05-20T11:12:43Z</time>
      </trkpt>
      <trkpt lat="46.69223" lon="5.63343">
        <ele>517.81</ele>
        <time>2017-05-20T11:12:56Z</time>
      </trkpt>
      <trkpt lat="46.69208" lon="5.6334">
        <ele>517.81</ele>
        <time>2017-05-20T11:13:08Z</time>
      </trkpt>
      <trkpt lat="46.69203" lon="5.63339">
        <ele>517.81</ele>
        <time>2017-05-20T11:13:13Z</time>
      </trkpt>
      <trkpt lat="46.69196" lon="5.63335">
        <ele>517.81</ele>
        <time>2017-05-20T11:13:19Z</time>
      </trkpt>
      <trkpt lat="46.69176" lon="5.63332">
        <ele>518.29</ele>
        <time>2017-05-20T11:13:36Z</time>
      </trkpt>
      <trkpt lat="46.69162" lon="5.63331">
        <ele>518.77</ele>
        <time>2017-05-20T11:13:49Z</time>
      </trkpt>
      <trkpt lat="46.69146" lon="5.6333">
        <ele>519.73</ele>
        <time>2017-05-20T11:14:04Z</time>
      </trkpt>
      <trkpt lat="46.69129" lon="5.63326">
        <ele>520.69</ele>
        <time>2017-05-20T11:14:18Z</time>
      </trkpt>
      <trkpt lat="46.69116" lon="5.63321">
        <ele>521.17</ele>
        <time>2017-05-20T11:14:30Z</time>
      </trkpt>
      <trkpt lat="46.69105" lon="5.63315">
        <ele>521.65</ele>
        <time>2017-05-20T11:14:41Z</time>
      </trkpt>
      <trkpt lat="46.69094" lon="5.6331">
        <ele>522.13</ele>
        <time>2017-05-20T11:14:53Z</time>
      </trkpt>
      <trkpt lat="46.69079" lon="5.63301">
        <ele>522.61</ele>
        <time>2017-05-20T11:15:06Z</time>
      </trkpt>
      <trkpt lat="46.69065" lon="5.63293">
        <ele>522.61</ele>
        <time>2017-05-20T11:15:19Z</time>
      </trkpt>
      <trkpt lat="46.69052" lon="5.63285">
        <ele>522.61</ele>
        <time>2017-05-20T11:15:31Z</time>
      </trkpt>
      <trkpt lat="46.6904" lon="5.63277">
        <ele>523.09</ele>
        <time>2017-05-20T11:15:45Z</time>
      </trkpt>
      <trkpt lat="46.6903" lon="5.63268">
        <ele>524.06</ele>
        <time>2017-05-20T11:16:00Z</time>
      </trkpt>
      <trkpt lat="46.69017" lon="5.63254">
        <ele>524.06</ele>
        <time>2017-05-20T11:16:10Z</time>
      </trkpt>
      <trkpt lat="46.69" lon="5.6324">
        <ele>523.58</ele>
        <time>2017-05-20T11:16:23Z</time>
      </trkpt>
      <trkpt lat="46.68981" lon="5.63226">
        <ele>523.58</ele>
        <time>2017-05-20T11:16:37Z</time>
      </trkpt>
      <trkpt lat="46.68966" lon="5.63216">
        <ele>523.58</ele>
        <time>2017-05-20T11:16:50Z</time>
      </trkpt>
      <trkpt lat="46.68962" lon="5.63213">
        <ele>523.58</ele>
        <time>2017-05-20T11:16:54Z</time>
      </trkpt>
      <trkpt lat="46.68947" lon="5.63204">
        <ele>523.58</ele>
        <time>2017-05-20T11:17:08Z</time>
      </trkpt>
      <trkpt lat="46.68933" lon="5.63197">
        <ele>524.06</ele>
        <time>2017-05-20T11:17:21Z</time>
      </trkpt>
      <trkpt lat="46.68914" lon="5.6319">
        <ele>525.02</ele>
        <time>2017-05-20T11:17:37Z</time>
      </trkpt>
      <trkpt lat="46.68912" lon="5.6319">
        <ele>525.02</ele>
        <time>2017-05-20T11:17:39Z</time>
      </trkpt>
      <trkpt lat="46.689" lon="5.63189">
        <ele>525.5</ele>
        <time>2017-05-20T11:17:51Z</time>
      </trkpt>
      <trkpt lat="46.68887" lon="5.63186">
        <ele>525.5</ele>
        <time>2017-05-20T11:18:04Z</time>
      </trkpt>
      <trkpt lat="46.68878" lon="5.63178">
        <ele>525.98</ele>
        <time>2017-05-20T11:18:16Z</time>
      </trkpt>
      <trkpt lat="46.68867" lon="5.6317">
        <ele>525.98</ele>
        <time>2017-05-20T11:18:27Z</time>
      </trkpt>
      <trkpt lat="46.68842" lon="5.63152">
        <ele>525.98</ele>
        <time>2017-05-20T11:18:41Z</time>
      </trkpt>
      <trkpt lat="46.68829" lon="5.63145">
        <ele>525.98</ele>
        <time>2017-05-20T11:18:51Z</time>
      </trkpt>
      <trkpt lat="46.68825" lon="5.63143">
        <ele>525.98</ele>
        <time>2017-05-20T11:18:54Z</time>
      </trkpt>
      <trkpt lat="46.68811" lon="5.63138">
        <ele>526.46</ele>
        <time>2017-05-20T11:19:06Z</time>
      </trkpt>
      <trkpt lat="46.68799" lon="5.63134">
        <ele>526.46</ele>
        <time>2017-05-20T11:19:15Z</time>
      </trkpt>
      <trkpt lat="46.68789" lon="5.6313">
        <ele>526.94</ele>
        <time>2017-05-20T11:19:23Z</time>
      </trkpt>
      <trkpt lat="46.68768" lon="5.63125">
        <ele>527.9</ele>
        <time>2017-05-20T11:19:41Z</time>
      </trkpt>
      <trkpt lat="46.68754" lon="5.63124">
        <ele>528.86</ele>
        <time>2017-05-20T11:19:54Z</time>
      </trkpt>
      <trkpt lat="46.68737" lon="5.63121">
        <ele>530.3</ele>
        <time>2017-05-20T11:20:08Z</time>
      </trkpt>
      <trkpt lat="46.68721" lon="5.63117">
        <ele>531.27</ele>
        <time>2017-05-20T11:20:21Z</time>
      </trkpt>
      <trkpt lat="46.68706" lon="5.6311">
        <ele>532.23</ele>
        <time>2017-05-20T11:20:34Z</time>
      </trkpt>
      <trkpt lat="46.68692" lon="5.63099">
        <ele>532.71</ele>
        <time>2017-05-20T11:20:47Z</time>
      </trkpt>
      <trkpt lat="46.68678" lon="5.63087">
        <ele>533.67</ele>
        <time>2017-05-20T11:21:00Z</time>
      </trkpt>
      <trkpt lat="46.68675" lon="5.63081">
        <ele>534.63</ele>
        <time>2017-05-20T11:21:04Z</time>
      </trkpt>
      <trkpt lat="46.68663" lon="5.63067">
        <ele>534.63</ele>
        <time>2017-05-20T11:21:17Z</time>
      </trkpt>
      <trkpt lat="46.68661" lon="5.63064">
        <ele>534.63</ele>
        <time>2017-05-20T11:21:20Z</time>
      </trkpt>
      <trkpt lat="46.68649" lon="5.63048">
        <ele>535.11</ele>
        <time>2017-05-20T11:21:34Z</time>
      </trkpt>
      <trkpt lat="46.6864" lon="5.63034">
        <ele>536.07</ele>
        <time>2017-05-20T11:21:45Z</time>
      </trkpt>
      <trkpt lat="46.6863" lon="5.63013">
        <ele>536.55</ele>
        <time>2017-05-20T11:21:59Z</time>
      </trkpt>
      <trkpt lat="46.68626" lon="5.63">
        <ele>537.03</ele>
        <time>2017-05-20T11:22:08Z</time>
      </trkpt>
      <trkpt lat="46.6862" lon="5.62977">
        <ele>537.99</ele>
        <time>2017-05-20T11:22:22Z</time>
      </trkpt>
      <trkpt lat="46.68613" lon="5.62956">
        <ele>538.48</ele>
        <time>2017-05-20T11:22:35Z</time>
      </trkpt>
      <trkpt lat="46.68605" lon="5.62935">
        <ele>538.96</ele>
        <time>2017-05-20T11:22:48Z</time>
      </trkpt>
      <trkpt lat="46.68602" lon="5.62922">
        <ele>539.44</ele>
        <time>2017-05-20T11:22:56Z</time>
      </trkpt>
      <trkpt lat="46.68596" lon="5.62905">
        <ele>539.92</ele>
        <time>2017-05-20T11:23:07Z</time>
      </trkpt>
      <trkpt lat="46.68583" lon="5.62885">
        <ele>540.4</ele>
        <time>2017-05-20T11:23:22Z</time>
      </trkpt>
      <trkpt lat="46.68579" lon="5.62881">
        <ele>540.4</ele>
        <time>2017-05-20T11:23:26Z</time>
      </trkpt>
      <trkpt lat="46.68564" lon="5.62869">
        <ele>539.92</ele>
        <time>2017-05-20T11:23:40Z</time>
      </trkpt>
      <trkpt lat="46.68549" lon="5.62856">
        <ele>539.92</ele>
        <time>2017-05-20T11:23:54Z</time>
      </trkpt>
      <trkpt lat="46.68548" lon="5.62855">
        <ele>539.44</ele>
        <time>2017-05-20T11:23:55Z</time>
      </trkpt>
      <trkpt lat="46.68541" lon="5.62848">
        <ele>538.96</ele>
        <time>2017-05-20T11:24:02Z</time>
      </trkpt>
      <trkpt lat="46.68539" lon="5.62832">
        <ele>538.96</ele>
        <time>2017-05-20T11:24:12Z</time>
      </trkpt>
      <trkpt lat="46.68543" lon="5.62811">
        <ele>539.92</ele>
        <time>2017-05-20T11:24:25Z</time>
      </trkpt>
      <trkpt lat="46.68544" lon="5.62796">
        <ele>539.92</ele>
        <time>2017-05-20T11:24:32Z</time>
      </trkpt>
      <trkpt lat="46.68549" lon="5.6277">
        <ele>540.4</ele>
        <time>2017-05-20T11:24:46Z</time>
      </trkpt>
      <trkpt lat="46.68553" lon="5.62757">
        <ele>540.88</ele>
        <time>2017-05-20T11:24:55Z</time>
      </trkpt>
      <trkpt lat="46.68556" lon="5.62733">
        <ele>541.36</ele>
        <time>2017-05-20T11:25:07Z</time>
      </trkpt>
      <trkpt lat="46.6856" lon="5.62711">
        <ele>542.32</ele>
        <time>2017-05-20T11:25:20Z</time>
      </trkpt>
      <trkpt lat="46.68563" lon="5.62704">
        <ele>542.32</ele>
        <time>2017-05-20T11:25:30Z</time>
      </trkpt>
      <trkpt lat="46.68563" lon="5.62704">
        <ele>542.32</ele>
        <time>2017-05-20T11:25:35Z</time>
      </trkpt>
      <trkpt lat="46.68565" lon="5.62694">
        <ele>543.28</ele>
        <time>2017-05-20T11:25:41Z</time>
      </trkpt>
      <trkpt lat="46.68565" lon="5.62691">
        <ele>543.28</ele>
        <time>2017-05-20T11:25:43Z</time>
      </trkpt>
      <trkpt lat="46.68567" lon="5.62686">
        <ele>543.28</ele>
        <time>2017-05-20T11:25:46Z</time>
      </trkpt>
      <trkpt lat="46.68567" lon="5.62679">
        <ele>543.76</ele>
        <time>2017-05-20T11:25:49Z</time>
      </trkpt>
      <trkpt lat="46.68567" lon="5.62672">
        <ele>544.24</ele>
        <time>2017-05-20T11:25:54Z</time>
      </trkpt>
      <trkpt lat="46.68567" lon="5.62665">
        <ele>544.24</ele>
        <time>2017-05-20T11:25:58Z</time>
      </trkpt>
      <trkpt lat="46.6857" lon="5.62659">
        <ele>544.24</ele>
        <time>2017-05-20T11:26:02Z</time>
      </trkpt>
      <trkpt lat="46.68571" lon="5.62656">
        <ele>544.72</ele>
        <time>2017-05-20T11:26:04Z</time>
      </trkpt>
      <trkpt lat="46.68572" lon="5.62651">
        <ele>544.24</ele>
        <time>2017-05-20T11:26:07Z</time>
      </trkpt>
      <trkpt lat="46.68572" lon="5.62648">
        <ele>544.24</ele>
        <time>2017-05-20T11:26:09Z</time>
      </trkpt>
      <trkpt lat="46.68573" lon="5.62643">
        <ele>544.72</ele>
        <time>2017-05-20T11:26:13Z</time>
      </trkpt>
      <trkpt lat="46.68576" lon="5.62625">
        <ele>545.69</ele>
        <time>2017-05-20T11:26:24Z</time>
      </trkpt>
      <trkpt lat="46.68577" lon="5.62619">
        <ele>545.69</ele>
        <time>2017-05-20T11:26:28Z</time>
      </trkpt>
      <trkpt lat="46.68579" lon="5.62611">
        <ele>545.69</ele>
        <time>2017-05-20T11:26:33Z</time>
      </trkpt>
      <trkpt lat="46.68579" lon="5.62606">
        <ele>545.69</ele>
        <time>2017-05-20T11:26:36Z</time>
      </trkpt>
      <trkpt lat="46.68583" lon="5.626">
        <ele>545.69</ele>
        <time>2017-05-20T11:26:40Z</time>
      </trkpt>
      <trkpt lat="46.68583" lon="5.62596">
        <ele>546.17</ele>
        <time>2017-05-20T11:26:42Z</time>
      </trkpt>
      <trkpt lat="46.68586" lon="5.62587">
        <ele>545.69</ele>
        <time>2017-05-20T11:26:48Z</time>
      </trkpt>
      <trkpt lat="46.68587" lon="5.62583">
        <ele>546.17</ele>
        <time>2017-05-20T11:26:51Z</time>
      </trkpt>
      <trkpt lat="46.6859" lon="5.62576">
        <ele>545.69</ele>
        <time>2017-05-20T11:26:56Z</time>
      </trkpt>
      <trkpt lat="46.68592" lon="5.62574">
        <ele>545.69</ele>
        <time>2017-05-20T11:26:58Z</time>
      </trkpt>
      <trkpt lat="46.68594" lon="5.6257">
        <ele>545.69</ele>
        <time>2017-05-20T11:27:01Z</time>
      </trkpt>
      <trkpt lat="46.68602" lon="5.62549">
        <ele>545.69</ele>
        <time>2017-05-20T11:27:15Z</time>
      </trkpt>
      <trkpt lat="46.68604" lon="5.62543">
        <ele>545.69</ele>
        <time>2017-05-20T11:27:17Z</time>
      </trkpt>
      <trkpt lat="46.68609" lon="5.62524">
        <ele>545.69</ele>
        <time>2017-05-20T11:27:28Z</time>
      </trkpt>
      <trkpt lat="46.68611" lon="5.6252">
        <ele>546.17</ele>
        <time>2017-05-20T11:27:31Z</time>
      </trkpt>
      <trkpt lat="46.68616" lon="5.62508">
        <ele>546.17</ele>
        <time>2017-05-20T11:27:38Z</time>
      </trkpt>
      <trkpt lat="46.68619" lon="5.62503">
        <ele>546.17</ele>
        <time>2017-05-20T11:27:42Z</time>
      </trkpt>
      <trkpt lat="46.6862" lon="5.625">
        <ele>546.17</ele>
        <time>2017-05-20T11:27:44Z</time>
      </trkpt>
      <trkpt lat="46.68625" lon="5.62482">
        <ele>546.17</ele>
        <time>2017-05-20T11:27:55Z</time>
      </trkpt>
      <trkpt lat="46.68628" lon="5.62475">
        <ele>546.17</ele>
        <time>2017-05-20T11:28:00Z</time>
      </trkpt>
      <trkpt lat="46.68632" lon="5.62458">
        <ele>546.65</ele>
        <time>2017-05-20T11:28:10Z</time>
      </trkpt>
      <trkpt lat="46.68634" lon="5.62453">
        <ele>547.13</ele>
        <time>2017-05-20T11:28:13Z</time>
      </trkpt>
      <trkpt lat="46.68638" lon="5.62435">
        <ele>546.17</ele>
        <time>2017-05-20T11:28:23Z</time>
      </trkpt>
      <trkpt lat="46.6864" lon="5.62427">
        <ele>546.65</ele>
        <time>2017-05-20T11:28:27Z</time>
      </trkpt>
      <trkpt lat="46.68641" lon="5.62421">
        <ele>546.17</ele>
        <time>2017-05-20T11:28:30Z</time>
      </trkpt>
      <trkpt lat="46.68644" lon="5.62415">
        <ele>546.17</ele>
        <time>2017-05-20T11:28:34Z</time>
      </trkpt>
      <trkpt lat="46.68653" lon="5.62403">
        <ele>545.2</ele>
        <time>2017-05-20T11:28:44Z</time>
      </trkpt>
      <trkpt lat="46.68654" lon="5.624">
        <ele>545.2</ele>
        <time>2017-05-20T11:28:46Z</time>
      </trkpt>
      <trkpt lat="46.68656" lon="5.62397">
        <ele>545.2</ele>
        <time>2017-05-20T11:28:48Z</time>
      </trkpt>
      <trkpt lat="46.68659" lon="5.6239">
        <ele>545.2</ele>
        <time>2017-05-20T11:28:54Z</time>
      </trkpt>
      <trkpt lat="46.68662" lon="5.62378">
        <ele>544.72</ele>
        <time>2017-05-20T11:29:03Z</time>
      </trkpt>
      <trkpt lat="46.68668" lon="5.62365">
        <ele>544.24</ele>
        <time>2017-05-20T11:29:13Z</time>
      </trkpt>
      <trkpt lat="46.6867" lon="5.62357">
        <ele>544.24</ele>
        <time>2017-05-20T11:29:18Z</time>
      </trkpt>
      <trkpt lat="46.68675" lon="5.6235">
        <ele>544.24</ele>
        <time>2017-05-20T11:29:24Z</time>
      </trkpt>
      <trkpt lat="46.68683" lon="5.62337">
        <ele>544.24</ele>
        <time>2017-05-20T11:29:36Z</time>
      </trkpt>
      <trkpt lat="46.68686" lon="5.62321">
        <ele>543.76</ele>
        <time>2017-05-20T11:29:48Z</time>
      </trkpt>
      <trkpt lat="46.68688" lon="5.62309">
        <ele>543.28</ele>
        <time>2017-05-20T11:29:57Z</time>
      </trkpt>
      <trkpt lat="46.68696" lon="5.62298">
        <ele>542.8</ele>
        <time>2017-05-20T11:30:05Z</time>
      </trkpt>
      <trkpt lat="46.68709" lon="5.6228">
        <ele>542.32</ele>
        <time>2017-05-20T11:30:17Z</time>
      </trkpt>
      <trkpt lat="46.68714" lon="5.62273">
        <ele>541.84</ele>
        <time>2017-05-20T11:30:24Z</time>
      </trkpt>
      <trkpt lat="46.68718" lon="5.6226">
        <ele>541.84</ele>
        <time>2017-05-20T11:30:29Z</time>
      </trkpt>
      <trkpt lat="46.68717" lon="5.62231">
        <ele>541.36</ele>
        <time>2017-05-20T11:30:41Z</time>
      </trkpt>
      <trkpt lat="46.68723" lon="5.62219">
        <ele>540.88</ele>
        <time>2017-05-20T11:30:47Z</time>
      </trkpt>
      <trkpt lat="46.68728" lon="5.62207">
        <ele>541.36</ele>
        <time>2017-05-20T11:30:53Z</time>
      </trkpt>
      <trkpt lat="46.68731" lon="5.62201">
        <ele>540.88</ele>
        <time>2017-05-20T11:30:57Z</time>
      </trkpt>
      <trkpt lat="46.68734" lon="5.6218">
        <ele>540.88</ele>
        <time>2017-05-20T11:31:06Z</time>
      </trkpt>
      <trkpt lat="46.68737" lon="5.62174">
        <ele>541.36</ele>
        <time>2017-05-20T11:31:10Z</time>
      </trkpt>
      <trkpt lat="46.6874" lon="5.62164">
        <ele>541.36</ele>
        <time>2017-05-20T11:31:17Z</time>
      </trkpt>
      <trkpt lat="46.68743" lon="5.62151">
        <ele>540.88</ele>
        <time>2017-05-20T11:31:24Z</time>
      </trkpt>
      <trkpt lat="46.68748" lon="5.62137">
        <ele>541.36</ele>
        <time>2017-05-20T11:31:33Z</time>
      </trkpt>
      <trkpt lat="46.6875" lon="5.62129">
        <ele>541.84</ele>
        <time>2017-05-20T11:31:38Z</time>
      </trkpt>
      <trkpt lat="46.68749" lon="5.62126">
        <ele>541.36</ele>
        <time>2017-05-20T11:31:40Z</time>
      </trkpt>
      <trkpt lat="46.68752" lon="5.62117">
        <ele>542.32</ele>
        <time>2017-05-20T11:31:45Z</time>
      </trkpt>
      <trkpt lat="46.68753" lon="5.62114">
        <ele>542.32</ele>
        <time>2017-05-20T11:31:48Z</time>
      </trkpt>
      <trkpt lat="46.68757" lon="5.62104">
        <ele>542.32</ele>
        <time>2017-05-20T11:31:55Z</time>
      </trkpt>
      <trkpt lat="46.68758" lon="5.62101">
        <ele>542.32</ele>
        <time>2017-05-20T11:31:57Z</time>
      </trkpt>
      <trkpt lat="46.68763" lon="5.62095">
        <ele>541.84</ele>
        <time>2017-05-20T11:32:02Z</time>
      </trkpt>
      <trkpt lat="46.68764" lon="5.62093">
        <ele>541.84</ele>
        <time>2017-05-20T11:32:04Z</time>
      </trkpt>
      <trkpt lat="46.68766" lon="5.6209">
        <ele>541.84</ele>
        <time>2017-05-20T11:32:07Z</time>
      </trkpt>
      <trkpt lat="46.68771" lon="5.62086">
        <ele>541.84</ele>
        <time>2017-05-20T11:32:12Z</time>
      </trkpt>
      <trkpt lat="46.68774" lon="5.62077">
        <ele>541.84</ele>
        <time>2017-05-20T11:32:16Z</time>
      </trkpt>
      <trkpt lat="46.68781" lon="5.62062">
        <ele>541.36</ele>
        <time>2017-05-20T11:32:25Z</time>
      </trkpt>
      <trkpt lat="46.68782" lon="5.62056">
        <ele>541.36</ele>
        <time>2017-05-20T11:32:28Z</time>
      </trkpt>
      <trkpt lat="46.68786" lon="5.6205">
        <ele>540.88</ele>
        <time>2017-05-20T11:32:33Z</time>
      </trkpt>
      <trkpt lat="46.68795" lon="5.62031">
        <ele>540.4</ele>
        <time>2017-05-20T11:32:45Z</time>
      </trkpt>
      <trkpt lat="46.68804" lon="5.62016">
        <ele>540.4</ele>
        <time>2017-05-20T11:32:57Z</time>
      </trkpt>
      <trkpt lat="46.68809" lon="5.62002">
        <ele>540.4</ele>
        <time>2017-05-20T11:33:05Z</time>
      </trkpt>
      <trkpt lat="46.68817" lon="5.61979">
        <ele>539.44</ele>
        <time>2017-05-20T11:33:20Z</time>
      </trkpt>
      <trkpt lat="46.68821" lon="5.61958">
        <ele>539.44</ele>
        <time>2017-05-20T11:33:34Z</time>
      </trkpt>
      <trkpt lat="46.68823" lon="5.61954">
        <ele>539.44</ele>
        <time>2017-05-20T11:33:40Z</time>
      </trkpt>
      <trkpt lat="46.68826" lon="5.61949">
        <ele>539.92</ele>
        <time>2017-05-20T11:33:44Z</time>
      </trkpt>
      <trkpt lat="46.68828" lon="5.6194">
        <ele>539.44</ele>
        <time>2017-05-20T11:33:50Z</time>
      </trkpt>
      <trkpt lat="46.68833" lon="5.61934">
        <ele>539.44</ele>
        <time>2017-05-20T11:33:57Z</time>
      </trkpt>
      <trkpt lat="46.68837" lon="5.61926">
        <ele>539.92</ele>
        <time>2017-05-20T11:34:04Z</time>
      </trkpt>
      <trkpt lat="46.6884" lon="5.61918">
        <ele>539.44</ele>
        <time>2017-05-20T11:34:08Z</time>
      </trkpt>
      <trkpt lat="46.68843" lon="5.61902">
        <ele>539.44</ele>
        <time>2017-05-20T11:34:16Z</time>
      </trkpt>
      <trkpt lat="46.68852" lon="5.61888">
        <ele>538.96</ele>
        <time>2017-05-20T11:34:24Z</time>
      </trkpt>
      <trkpt lat="46.68853" lon="5.61884">
        <ele>538.96</ele>
        <time>2017-05-20T11:34:27Z</time>
      </trkpt>
      <trkpt lat="46.68855" lon="5.61878">
        <ele>539.44</ele>
        <time>2017-05-20T11:34:30Z</time>
      </trkpt>
      <trkpt lat="46.68857" lon="5.61865">
        <ele>539.44</ele>
        <time>2017-05-20T11:34:35Z</time>
      </trkpt>
      <trkpt lat="46.68862" lon="5.61847">
        <ele>539.44</ele>
        <time>2017-05-20T11:34:45Z</time>
      </trkpt>
      <trkpt lat="46.6887" lon="5.61824">
        <ele>539.44</ele>
        <time>2017-05-20T11:34:57Z</time>
      </trkpt>
      <trkpt lat="46.68872" lon="5.61807">
        <ele>539.92</ele>
        <time>2017-05-20T11:35:09Z</time>
      </trkpt>
      <trkpt lat="46.68872" lon="5.61802">
        <ele>539.92</ele>
        <time>2017-05-20T11:35:14Z</time>
      </trkpt>
      <trkpt lat="46.68876" lon="5.61773">
        <ele>539.92</ele>
        <time>2017-05-20T11:35:26Z</time>
      </trkpt>
      <trkpt lat="46.68878" lon="5.61756">
        <ele>540.4</ele>
        <time>2017-05-20T11:35:37Z</time>
      </trkpt>
      <trkpt lat="46.68877" lon="5.61729">
        <ele>539.44</ele>
        <time>2017-05-20T11:35:50Z</time>
      </trkpt>
      <trkpt lat="46.68876" lon="5.6172">
        <ele>539.44</ele>
        <time>2017-05-20T11:35:55Z</time>
      </trkpt>
      <trkpt lat="46.68875" lon="5.61709">
        <ele>539.44</ele>
        <time>2017-05-20T11:35:59Z</time>
      </trkpt>
      <trkpt lat="46.68876" lon="5.61699">
        <ele>539.44</ele>
        <time>2017-05-20T11:36:03Z</time>
      </trkpt>
      <trkpt lat="46.68877" lon="5.61697">
        <ele>538.96</ele>
        <time>2017-05-20T11:36:05Z</time>
      </trkpt>
      <trkpt lat="46.68878" lon="5.61685">
        <ele>538.48</ele>
        <time>2017-05-20T11:36:09Z</time>
      </trkpt>
      <trkpt lat="46.68879" lon="5.61673">
        <ele>538.48</ele>
        <time>2017-05-20T11:36:15Z</time>
      </trkpt>
      <trkpt lat="46.6888" lon="5.6166">
        <ele>537.99</ele>
        <time>2017-05-20T11:36:21Z</time>
      </trkpt>
      <trkpt lat="46.68883" lon="5.61639">
        <ele>536.07</ele>
        <time>2017-05-20T11:36:33Z</time>
      </trkpt>
      <trkpt lat="46.68881" lon="5.61631">
        <ele>536.07</ele>
        <time>2017-05-20T11:36:38Z</time>
      </trkpt>
      <trkpt lat="46.68881" lon="5.61629">
        <ele>535.59</ele>
        <time>2017-05-20T11:36:40Z</time>
      </trkpt>
      <trkpt lat="46.68881" lon="5.6162">
        <ele>535.59</ele>
        <time>2017-05-20T11:36:46Z</time>
      </trkpt>
      <trkpt lat="46.68882" lon="5.61618">
        <ele>534.63</ele>
        <time>2017-05-20T11:36:48Z</time>
      </trkpt>
      <trkpt lat="46.68881" lon="5.61609">
        <ele>534.15</ele>
        <time>2017-05-20T11:36:54Z</time>
      </trkpt>
      <trkpt lat="46.68881" lon="5.61603">
        <ele>534.63</ele>
        <time>2017-05-20T11:36:57Z</time>
      </trkpt>
      <trkpt lat="46.68882" lon="5.61583">
        <ele>533.67</ele>
        <time>2017-05-20T11:37:08Z</time>
      </trkpt>
      <trkpt lat="46.68883" lon="5.61579">
        <ele>533.19</ele>
        <time>2017-05-20T11:37:10Z</time>
      </trkpt>
      <trkpt lat="46.68886" lon="5.61571">
        <ele>532.71</ele>
        <time>2017-05-20T11:37:14Z</time>
      </trkpt>
      <trkpt lat="46.68884" lon="5.61563">
        <ele>532.23</ele>
        <time>2017-05-20T11:37:17Z</time>
      </trkpt>
      <trkpt lat="46.68884" lon="5.61559">
        <ele>532.23</ele>
        <time>2017-05-20T11:37:19Z</time>
      </trkpt>
      <trkpt lat="46.68889" lon="5.61552">
        <ele>531.75</ele>
        <time>2017-05-20T11:37:23Z</time>
      </trkpt>
      <trkpt lat="46.68892" lon="5.61546">
        <ele>531.75</ele>
        <time>2017-05-20T11:37:26Z</time>
      </trkpt>
      <trkpt lat="46.68901" lon="5.61534">
        <ele>530.3</ele>
        <time>2017-05-20T11:37:36Z</time>
      </trkpt>
      <trkpt lat="46.68912" lon="5.61516">
        <ele>528.86</ele>
        <time>2017-05-20T11:37:47Z</time>
      </trkpt>
      <trkpt lat="46.68913" lon="5.61508">
        <ele>526.94</ele>
        <time>2017-05-20T11:37:58Z</time>
      </trkpt>
      <trkpt lat="46.68913" lon="5.61497">
        <ele>524.54</ele>
        <time>2017-05-20T11:38:10Z</time>
      </trkpt>
      <trkpt lat="46.68913" lon="5.61484">
        <ele>524.06</ele>
        <time>2017-05-20T11:38:17Z</time>
      </trkpt>
      <trkpt lat="46.68913" lon="5.61472">
        <ele>523.09</ele>
        <time>2017-05-20T11:38:22Z</time>
      </trkpt>
      <trkpt lat="46.68918" lon="5.61448">
        <ele>521.17</ele>
        <time>2017-05-20T11:38:34Z</time>
      </trkpt>
      <trkpt lat="46.68919" lon="5.61435">
        <ele>520.21</ele>
        <time>2017-05-20T11:38:44Z</time>
      </trkpt>
      <trkpt lat="46.68925" lon="5.61418">
        <ele>518.29</ele>
        <time>2017-05-20T11:38:55Z</time>
      </trkpt>
      <trkpt lat="46.68934" lon="5.61401">
        <ele>517.33</ele>
        <time>2017-05-20T11:39:04Z</time>
      </trkpt>
      <trkpt lat="46.68936" lon="5.61394">
        <ele>516.37</ele>
        <time>2017-05-20T11:39:08Z</time>
      </trkpt>
      <trkpt lat="46.68943" lon="5.61381">
        <ele>514.92</ele>
        <time>2017-05-20T11:39:18Z</time>
      </trkpt>
      <trkpt lat="46.68949" lon="5.61367">
        <ele>513.96</ele>
        <time>2017-05-20T11:39:29Z</time>
      </trkpt>
      <trkpt lat="46.68954" lon="5.61357">
        <ele>512.52</ele>
        <time>2017-05-20T11:39:40Z</time>
      </trkpt>
      <trkpt lat="46.68954" lon="5.61355">
        <ele>512.52</ele>
        <time>2017-05-20T11:39:42Z</time>
      </trkpt>
      <trkpt lat="46.6895" lon="5.6135">
        <ele>511.08</ele>
        <time>2017-05-20T11:39:52Z</time>
      </trkpt>
      <trkpt lat="46.68943" lon="5.61342">
        <ele>509.16</ele>
        <time>2017-05-20T11:40:05Z</time>
      </trkpt>
      <trkpt lat="46.68946" lon="5.61335">
        <ele>507.71</ele>
        <time>2017-05-20T11:40:18Z</time>
      </trkpt>
      <trkpt lat="46.68963" lon="5.61327">
        <ele>505.79</ele>
        <time>2017-05-20T11:40:31Z</time>
      </trkpt>
      <trkpt lat="46.68977" lon="5.6132">
        <ele>504.35</ele>
        <time>2017-05-20T11:40:43Z</time>
      </trkpt>
      <trkpt lat="46.68981" lon="5.61318">
        <ele>502.91</ele>
        <time>2017-05-20T11:40:49Z</time>
      </trkpt>
      <trkpt lat="46.68984" lon="5.6132">
        <ele>501.95</ele>
        <time>2017-05-20T11:41:00Z</time>
      </trkpt>
      <trkpt lat="46.69006" lon="5.61314">
        <ele>499.54</ele>
        <time>2017-05-20T11:41:13Z</time>
      </trkpt>
      <trkpt lat="46.69011" lon="5.61312">
        <ele>499.54</ele>
        <time>2017-05-20T11:41:15Z</time>
      </trkpt>
      <trkpt lat="46.6905" lon="5.61297">
        <ele>498.1</ele>
        <time>2017-05-20T11:41:26Z</time>
      </trkpt>
      <trkpt lat="46.69059" lon="5.6129">
        <ele>497.14</ele>
        <time>2017-05-20T11:41:30Z</time>
      </trkpt>
      <trkpt lat="46.69066" lon="5.61281">
        <ele>497.14</ele>
        <time>2017-05-20T11:41:35Z</time>
      </trkpt>
      <trkpt lat="46.69068" lon="5.61272">
        <ele>496.18</ele>
        <time>2017-05-20T11:41:39Z</time>
      </trkpt>
      <trkpt lat="46.69076" lon="5.6126">
        <ele>495.22</ele>
        <time>2017-05-20T11:41:50Z</time>
      </trkpt>
      <trkpt lat="46.69077" lon="5.61257">
        <ele>495.22</ele>
        <time>2017-05-20T11:41:52Z</time>
      </trkpt>
      <trkpt lat="46.69079" lon="5.61254">
        <ele>494.74</ele>
        <time>2017-05-20T11:41:54Z</time>
      </trkpt>
      <trkpt lat="46.69087" lon="5.61235">
        <ele>493.29</ele>
        <time>2017-05-20T11:42:05Z</time>
      </trkpt>
      <trkpt lat="46.69093" lon="5.61225">
        <ele>492.33</ele>
        <time>2017-05-20T11:42:11Z</time>
      </trkpt>
      <trkpt lat="46.69093" lon="5.61218">
        <ele>491.85</ele>
        <time>2017-05-20T11:42:14Z</time>
      </trkpt>
      <trkpt lat="46.69098" lon="5.612">
        <ele>490.89</ele>
        <time>2017-05-20T11:42:23Z</time>
      </trkpt>
      <trkpt lat="46.69104" lon="5.61184">
        <ele>488.49</ele>
        <time>2017-05-20T11:42:34Z</time>
      </trkpt>
      <trkpt lat="46.69104" lon="5.61168">
        <ele>487.05</ele>
        <time>2017-05-20T11:42:44Z</time>
      </trkpt>
      <trkpt lat="46.69108" lon="5.61162">
        <ele>486.56</ele>
        <time>2017-05-20T11:42:49Z</time>
      </trkpt>
      <trkpt lat="46.69113" lon="5.61146">
        <ele>485.12</ele>
        <time>2017-05-20T11:42:58Z</time>
      </trkpt>
      <trkpt lat="46.69116" lon="5.61139">
        <ele>483.68</ele>
        <time>2017-05-20T11:43:04Z</time>
      </trkpt>
      <trkpt lat="46.69125" lon="5.61126">
        <ele>481.76</ele>
        <time>2017-05-20T11:43:13Z</time>
      </trkpt>
      <trkpt lat="46.69132" lon="5.61107">
        <ele>479.84</ele>
        <time>2017-05-20T11:43:24Z</time>
      </trkpt>
      <trkpt lat="46.69139" lon="5.6109">
        <ele>478.39</ele>
        <time>2017-05-20T11:43:35Z</time>
      </trkpt>
      <trkpt lat="46.69142" lon="5.61075">
        <ele>476.95</ele>
        <time>2017-05-20T11:43:45Z</time>
      </trkpt>
      <trkpt lat="46.69145" lon="5.61071">
        <ele>476.47</ele>
        <time>2017-05-20T11:43:47Z</time>
      </trkpt>
      <trkpt lat="46.69143" lon="5.61057">
        <ele>475.03</ele>
        <time>2017-05-20T11:43:55Z</time>
      </trkpt>
      <trkpt lat="46.69147" lon="5.61043">
        <ele>474.55</ele>
        <time>2017-05-20T11:44:00Z</time>
      </trkpt>
      <trkpt lat="46.69154" lon="5.6103">
        <ele>473.59</ele>
        <time>2017-05-20T11:44:07Z</time>
      </trkpt>
      <trkpt lat="46.69154" lon="5.6102">
        <ele>473.11</ele>
        <time>2017-05-20T11:44:13Z</time>
      </trkpt>
      <trkpt lat="46.69153" lon="5.61017">
        <ele>473.11</ele>
        <time>2017-05-20T11:44:15Z</time>
      </trkpt>
      <trkpt lat="46.69165" lon="5.60999">
        <ele>472.14</ele>
        <time>2017-05-20T11:44:26Z</time>
      </trkpt>
      <trkpt lat="46.69188" lon="5.60976">
        <ele>471.66</ele>
        <time>2017-05-20T11:44:35Z</time>
      </trkpt>
      <trkpt lat="46.69198" lon="5.60965">
        <ele>471.18</ele>
        <time>2017-05-20T11:44:44Z</time>
      </trkpt>
      <trkpt lat="46.69205" lon="5.60958">
        <ele>470.7</ele>
        <time>2017-05-20T11:44:50Z</time>
      </trkpt>
      <trkpt lat="46.69208" lon="5.6095">
        <ele>469.26</ele>
        <time>2017-05-20T11:44:56Z</time>
      </trkpt>
      <trkpt lat="46.69209" lon="5.60944">
        <ele>469.26</ele>
        <time>2017-05-20T11:45:00Z</time>
      </trkpt>
      <trkpt lat="46.6921" lon="5.60933">
        <ele>468.78</ele>
        <time>2017-05-20T11:45:06Z</time>
      </trkpt>
      <trkpt lat="46.6922" lon="5.60915">
        <ele>467.82</ele>
        <time>2017-05-20T11:45:16Z</time>
      </trkpt>
      <trkpt lat="46.69229" lon="5.60905">
        <ele>466.86</ele>
        <time>2017-05-20T11:45:25Z</time>
      </trkpt>
      <trkpt lat="46.6923" lon="5.60902">
        <ele>466.86</ele>
        <time>2017-05-20T11:45:27Z</time>
      </trkpt>
      <trkpt lat="46.69238" lon="5.60892">
        <ele>466.86</ele>
        <time>2017-05-20T11:45:34Z</time>
      </trkpt>
      <trkpt lat="46.69239" lon="5.60889">
        <ele>466.86</ele>
        <time>2017-05-20T11:45:36Z</time>
      </trkpt>
      <trkpt lat="46.69243" lon="5.60887">
        <ele>466.86</ele>
        <time>2017-05-20T11:45:39Z</time>
      </trkpt>
      <trkpt lat="46.69259" lon="5.60873">
        <ele>466.38</ele>
        <time>2017-05-20T11:45:53Z</time>
      </trkpt>
      <trkpt lat="46.69267" lon="5.60867">
        <ele>466.38</ele>
        <time>2017-05-20T11:46:06Z</time>
      </trkpt>
      <trkpt lat="46.6928" lon="5.60858">
        <ele>465.42</ele>
        <time>2017-05-20T11:46:21Z</time>
      </trkpt>
      <trkpt lat="46.69282" lon="5.60857">
        <ele>465.42</ele>
        <time>2017-05-20T11:46:23Z</time>
      </trkpt>
      <trkpt lat="46.69295" lon="5.60853">
        <ele>464.93</ele>
        <time>2017-05-20T11:46:34Z</time>
      </trkpt>
      <trkpt lat="46.69298" lon="5.60852">
        <ele>464.93</ele>
        <time>2017-05-20T11:46:36Z</time>
      </trkpt>
      <trkpt lat="46.69303" lon="5.60851">
        <ele>464.93</ele>
        <time>2017-05-20T11:46:40Z</time>
      </trkpt>
      <trkpt lat="46.69307" lon="5.60846">
        <ele>464.93</ele>
        <time>2017-05-20T11:46:44Z</time>
      </trkpt>
      <trkpt lat="46.69314" lon="5.60842">
        <ele>464.45</ele>
        <time>2017-05-20T11:46:51Z</time>
      </trkpt>
      <trkpt lat="46.69324" lon="5.60842">
        <ele>464.45</ele>
        <time>2017-05-20T11:47:04Z</time>
      </trkpt>
      <trkpt lat="46.69326" lon="5.60844">
        <ele>465.42</ele>
        <time>2017-05-20T11:47:33Z</time>
      </trkpt>
      <trkpt lat="46.69332" lon="5.60842">
        <ele>465.42</ele>
        <time>2017-05-20T11:47:42Z</time>
      </trkpt>
      <trkpt lat="46.69343" lon="5.60839">
        <ele>463.97</ele>
        <time>2017-05-20T11:47:54Z</time>
      </trkpt>
      <trkpt lat="46.69357" lon="5.60835">
        <ele>463.97</ele>
        <time>2017-05-20T11:48:08Z</time>
      </trkpt>
      <trkpt lat="46.69366" lon="5.60832">
        <ele>463.49</ele>
        <time>2017-05-20T11:48:19Z</time>
      </trkpt>
      <trkpt lat="46.69371" lon="5.60829">
        <ele>462.05</ele>
        <time>2017-05-20T11:48:32Z</time>
      </trkpt>
      <trkpt lat="46.69382" lon="5.60826">
        <ele>460.13</ele>
        <time>2017-05-20T11:48:45Z</time>
      </trkpt>
      <trkpt lat="46.69394" lon="5.60826">
        <ele>458.69</ele>
        <time>2017-05-20T11:48:55Z</time>
      </trkpt>
      <trkpt lat="46.69411" lon="5.60822">
        <ele>455.8</ele>
        <time>2017-05-20T11:49:08Z</time>
      </trkpt>
      <trkpt lat="46.69426" lon="5.60819">
        <ele>453.4</ele>
        <time>2017-05-20T11:49:19Z</time>
      </trkpt>
      <trkpt lat="46.69431" lon="5.60816">
        <ele>450.03</ele>
        <time>2017-05-20T11:49:30Z</time>
      </trkpt>
      <trkpt lat="46.69438" lon="5.6081">
        <ele>447.63</ele>
        <time>2017-05-20T11:49:42Z</time>
      </trkpt>
      <trkpt lat="46.69447" lon="5.60807">
        <ele>444.75</ele>
        <time>2017-05-20T11:49:55Z</time>
      </trkpt>
      <trkpt lat="46.6945" lon="5.60804">
        <ele>443.31</ele>
        <time>2017-05-20T11:49:59Z</time>
      </trkpt>
      <trkpt lat="46.69477" lon="5.60782">
        <ele>439.94</ele>
        <time>2017-05-20T11:50:13Z</time>
      </trkpt>
      <trkpt lat="46.69489" lon="5.60774">
        <ele>437.54</ele>
        <time>2017-05-20T11:50:25Z</time>
      </trkpt>
      <trkpt lat="46.69513" lon="5.60766">
        <ele>434.17</ele>
        <time>2017-05-20T11:50:40Z</time>
      </trkpt>
      <trkpt lat="46.69521" lon="5.60765">
        <ele>431.77</ele>
        <time>2017-05-20T11:50:51Z</time>
      </trkpt>
      <trkpt lat="46.69521" lon="5.60761">
        <ele>428.89</ele>
        <time>2017-05-20T11:51:03Z</time>
      </trkpt>
      <trkpt lat="46.69532" lon="5.60757">
        <ele>426</ele>
        <time>2017-05-20T11:51:16Z</time>
      </trkpt>
      <trkpt lat="46.69543" lon="5.60752">
        <ele>423.12</ele>
        <time>2017-05-20T11:51:28Z</time>
      </trkpt>
      <trkpt lat="46.6955" lon="5.60746">
        <ele>420.23</ele>
        <time>2017-05-20T11:51:42Z</time>
      </trkpt>
      <trkpt lat="46.69562" lon="5.60743">
        <ele>418.31</ele>
        <time>2017-05-20T11:51:56Z</time>
      </trkpt>
      <trkpt lat="46.69572" lon="5.60741">
        <ele>415.91</ele>
        <time>2017-05-20T11:52:11Z</time>
      </trkpt>
      <trkpt lat="46.69578" lon="5.6074">
        <ele>413.98</ele>
        <time>2017-05-20T11:52:24Z</time>
      </trkpt>
      <trkpt lat="46.69592" lon="5.60733">
        <ele>412.54</ele>
        <time>2017-05-20T11:52:36Z</time>
      </trkpt>
      <trkpt lat="46.69603" lon="5.60729">
        <ele>411.58</ele>
        <time>2017-05-20T11:52:48Z</time>
      </trkpt>
      <trkpt lat="46.69616" lon="5.60718">
        <ele>410.14</ele>
        <time>2017-05-20T11:53:00Z</time>
      </trkpt>
      <trkpt lat="46.69641" lon="5.60695">
        <ele>408.22</ele>
        <time>2017-05-20T11:53:14Z</time>
      </trkpt>
      <trkpt lat="46.69665" lon="5.60675">
        <ele>405.81</ele>
        <time>2017-05-20T11:53:24Z</time>
      </trkpt>
      <trkpt lat="46.69682" lon="5.60663">
        <ele>403.41</ele>
        <time>2017-05-20T11:53:42Z</time>
      </trkpt>
      <trkpt lat="46.69694" lon="5.60643">
        <ele>401.49</ele>
        <time>2017-05-20T11:53:54Z</time>
      </trkpt>
      <trkpt lat="46.69706" lon="5.60628">
        <ele>399.57</ele>
        <time>2017-05-20T11:54:07Z</time>
      </trkpt>
      <trkpt lat="46.69723" lon="5.60604">
        <ele>397.16</ele>
        <time>2017-05-20T11:54:20Z</time>
      </trkpt>
      <trkpt lat="46.69739" lon="5.60589">
        <ele>395.24</ele>
        <time>2017-05-20T11:54:30Z</time>
      </trkpt>
      <trkpt lat="46.69745" lon="5.6058">
        <ele>392.84</ele>
        <time>2017-05-20T11:54:41Z</time>
      </trkpt>
      <trkpt lat="46.69751" lon="5.60573">
        <ele>391.87</ele>
        <time>2017-05-20T11:54:53Z</time>
      </trkpt>
      <trkpt lat="46.6976" lon="5.60563">
        <ele>389.47</ele>
        <time>2017-05-20T11:55:07Z</time>
      </trkpt>
      <trkpt lat="46.6977" lon="5.60556">
        <ele>388.51</ele>
        <time>2017-05-20T11:55:17Z</time>
      </trkpt>
      <trkpt lat="46.69776" lon="5.60553">
        <ele>387.55</ele>
        <time>2017-05-20T11:55:22Z</time>
      </trkpt>
      <trkpt lat="46.69781" lon="5.60549">
        <ele>387.07</ele>
        <time>2017-05-20T11:55:25Z</time>
      </trkpt>
      <trkpt lat="46.69795" lon="5.6054">
        <ele>385.63</ele>
        <time>2017-05-20T11:55:36Z</time>
      </trkpt>
      <trkpt lat="46.69796" lon="5.60539">
        <ele>385.15</ele>
        <time>2017-05-20T11:55:37Z</time>
      </trkpt>
      <trkpt lat="46.69801" lon="5.60537">
        <ele>385.15</ele>
        <time>2017-05-20T11:55:41Z</time>
      </trkpt>
      <trkpt lat="46.69809" lon="5.60531">
        <ele>384.66</ele>
        <time>2017-05-20T11:55:47Z</time>
      </trkpt>
      <trkpt lat="46.69819" lon="5.60524">
        <ele>383.22</ele>
        <time>2017-05-20T11:55:56Z</time>
      </trkpt>
      <trkpt lat="46.69832" lon="5.60515">
        <ele>381.78</ele>
        <time>2017-05-20T11:56:09Z</time>
      </trkpt>
      <trkpt lat="46.69845" lon="5.60505">
        <ele>379.86</ele>
        <time>2017-05-20T11:56:22Z</time>
      </trkpt>
      <trkpt lat="46.69851" lon="5.60497">
        <ele>378.42</ele>
        <time>2017-05-20T11:56:30Z</time>
      </trkpt>
      <trkpt lat="46.69858" lon="5.60489">
        <ele>377.45</ele>
        <time>2017-05-20T11:56:36Z</time>
      </trkpt>
      <trkpt lat="46.69865" lon="5.60483">
        <ele>376.49</ele>
        <time>2017-05-20T11:56:42Z</time>
      </trkpt>
      <trkpt lat="46.69876" lon="5.60471">
        <ele>374.57</ele>
        <time>2017-05-20T11:56:53Z</time>
      </trkpt>
      <trkpt lat="46.69885" lon="5.60455">
        <ele>373.13</ele>
        <time>2017-05-20T11:57:06Z</time>
      </trkpt>
      <trkpt lat="46.69898" lon="5.60443">
        <ele>371.21</ele>
        <time>2017-05-20T11:57:18Z</time>
      </trkpt>
      <trkpt lat="46.69911" lon="5.60435">
        <ele>369.76</ele>
        <time>2017-05-20T11:57:30Z</time>
      </trkpt>
      <trkpt lat="46.6992" lon="5.60426">
        <ele>368.32</ele>
        <time>2017-05-20T11:57:44Z</time>
      </trkpt>
      <trkpt lat="46.69926" lon="5.6042">
        <ele>367.84</ele>
        <time>2017-05-20T11:57:49Z</time>
      </trkpt>
      <trkpt lat="46.69944" lon="5.60405">
        <ele>366.4</ele>
        <time>2017-05-20T11:58:01Z</time>
      </trkpt>
      <trkpt lat="46.69947" lon="5.60401">
        <ele>366.4</ele>
        <time>2017-05-20T11:58:03Z</time>
      </trkpt>
      <trkpt lat="46.69954" lon="5.60392">
        <ele>365.92</ele>
        <time>2017-05-20T11:58:08Z</time>
      </trkpt>
      <trkpt lat="46.69967" lon="5.6037">
        <ele>364.48</ele>
        <time>2017-05-20T11:58:21Z</time>
      </trkpt>
      <trkpt lat="46.6997" lon="5.60364">
        <ele>363.52</ele>
        <time>2017-05-20T11:58:25Z</time>
      </trkpt>
      <trkpt lat="46.69982" lon="5.60347">
        <ele>362.55</ele>
        <time>2017-05-20T11:58:38Z</time>
      </trkpt>
      <trkpt lat="46.69992" lon="5.6034">
        <ele>362.07</ele>
        <time>2017-05-20T11:58:49Z</time>
      </trkpt>
      <trkpt lat="46.7" lon="5.60334">
        <ele>361.11</ele>
        <time>2017-05-20T11:59:00Z</time>
      </trkpt>
      <trkpt lat="46.70005" lon="5.60331">
        <ele>360.63</ele>
        <time>2017-05-20T11:59:11Z</time>
      </trkpt>
      <trkpt lat="46.70015" lon="5.6032">
        <ele>360.63</ele>
        <time>2017-05-20T11:59:21Z</time>
      </trkpt>
      <trkpt lat="46.70029" lon="5.60311">
        <ele>360.15</ele>
        <time>2017-05-20T11:59:31Z</time>
      </trkpt>
      <trkpt lat="46.70029" lon="5.60311">
        <ele>359.67</ele>
        <time>2017-05-20T11:59:32Z</time>
      </trkpt>
      <trkpt lat="46.70043" lon="5.60299">
        <ele>358.71</ele>
        <time>2017-05-20T11:59:42Z</time>
      </trkpt>
      <trkpt lat="46.70049" lon="5.6029">
        <ele>357.75</ele>
        <time>2017-05-20T11:59:52Z</time>
      </trkpt>
      <trkpt lat="46.70058" lon="5.60276">
        <ele>356.79</ele>
        <time>2017-05-20T12:00:03Z</time>
      </trkpt>
      <trkpt lat="46.70065" lon="5.60261">
        <ele>355.83</ele>
        <time>2017-05-20T12:00:14Z</time>
      </trkpt>
      <trkpt lat="46.70073" lon="5.60249">
        <ele>354.38</ele>
        <time>2017-05-20T12:00:24Z</time>
      </trkpt>
      <trkpt lat="46.70089" lon="5.60233">
        <ele>352.46</ele>
        <time>2017-05-20T12:00:32Z</time>
      </trkpt>
      <trkpt lat="46.701" lon="5.60213">
        <ele>351.02</ele>
        <time>2017-05-20T12:00:45Z</time>
      </trkpt>
      <trkpt lat="46.70105" lon="5.60207">
        <ele>350.06</ele>
        <time>2017-05-20T12:00:52Z</time>
      </trkpt>
      <trkpt lat="46.70113" lon="5.60202">
        <ele>348.62</ele>
        <time>2017-05-20T12:01:03Z</time>
      </trkpt>
      <trkpt lat="46.70118" lon="5.60197">
        <ele>348.13</ele>
        <time>2017-05-20T12:01:14Z</time>
      </trkpt>
      <trkpt lat="46.70132" lon="5.6018">
        <ele>347.65</ele>
        <time>2017-05-20T12:01:28Z</time>
      </trkpt>
      <trkpt lat="46.7015" lon="5.60168">
        <ele>346.69</ele>
        <time>2017-05-20T12:01:36Z</time>
      </trkpt>
      <trkpt lat="46.70157" lon="5.60158">
        <ele>346.21</ele>
        <time>2017-05-20T12:01:41Z</time>
      </trkpt>
      <trkpt lat="46.70162" lon="5.60154">
        <ele>345.73</ele>
        <time>2017-05-20T12:01:52Z</time>
      </trkpt>
      <trkpt lat="46.70161" lon="5.60154">
        <ele>346.21</ele>
        <time>2017-05-20T12:02:10Z</time>
      </trkpt>
      <trkpt lat="46.70166" lon="5.6015">
        <ele>344.77</ele>
        <time>2017-05-20T12:02:14Z</time>
      </trkpt>
      <trkpt lat="46.70183" lon="5.60145">
        <ele>344.29</ele>
        <time>2017-05-20T12:02:26Z</time>
      </trkpt>
      <trkpt lat="46.70191" lon="5.6014">
        <ele>343.81</ele>
        <time>2017-05-20T12:02:32Z</time>
      </trkpt>
      <trkpt lat="46.70193" lon="5.60136">
        <ele>343.33</ele>
        <time>2017-05-20T12:02:35Z</time>
      </trkpt>
      <trkpt lat="46.70209" lon="5.6012">
        <ele>342.37</ele>
        <time>2017-05-20T12:02:48Z</time>
      </trkpt>
      <trkpt lat="46.70226" lon="5.60109">
        <ele>341.89</ele>
        <time>2017-05-20T12:03:01Z</time>
      </trkpt>
      <trkpt lat="46.70229" lon="5.60106">
        <ele>341.41</ele>
        <time>2017-05-20T12:03:04Z</time>
      </trkpt>
      <trkpt lat="46.70241" lon="5.60097">
        <ele>340.92</ele>
        <time>2017-05-20T12:03:12Z</time>
      </trkpt>
      <trkpt lat="46.70248" lon="5.60089">
        <ele>340.92</ele>
        <time>2017-05-20T12:03:18Z</time>
      </trkpt>
      <trkpt lat="46.70256" lon="5.60085">
        <ele>340.44</ele>
        <time>2017-05-20T12:03:25Z</time>
      </trkpt>
      <trkpt lat="46.70269" lon="5.60073">
        <ele>339.96</ele>
        <time>2017-05-20T12:03:36Z</time>
      </trkpt>
      <trkpt lat="46.7027" lon="5.60072">
        <ele>339.96</ele>
        <time>2017-05-20T12:03:38Z</time>
      </trkpt>
      <trkpt lat="46.70279" lon="5.60067">
        <ele>339.48</ele>
        <time>2017-05-20T12:03:44Z</time>
      </trkpt>
      <trkpt lat="46.70284" lon="5.6006">
        <ele>339.48</ele>
        <time>2017-05-20T12:03:55Z</time>
      </trkpt>
      <trkpt lat="46.70286" lon="5.60058">
        <ele>338.52</ele>
        <time>2017-05-20T12:03:58Z</time>
      </trkpt>
      <trkpt lat="46.70304" lon="5.60043">
        <ele>337.56</ele>
        <time>2017-05-20T12:04:13Z</time>
      </trkpt>
      <trkpt lat="46.70308" lon="5.6004">
        <ele>337.56</ele>
        <time>2017-05-20T12:04:16Z</time>
      </trkpt>
      <trkpt lat="46.70318" lon="5.60031">
        <ele>337.08</ele>
        <time>2017-05-20T12:04:25Z</time>
      </trkpt>
      <trkpt lat="46.70322" lon="5.60028">
        <ele>336.6</ele>
        <time>2017-05-20T12:04:28Z</time>
      </trkpt>
      <trkpt lat="46.70334" lon="5.60016">
        <ele>336.12</ele>
        <time>2017-05-20T12:04:40Z</time>
      </trkpt>
      <trkpt lat="46.70337" lon="5.60011">
        <ele>335.64</ele>
        <time>2017-05-20T12:04:43Z</time>
      </trkpt>
      <trkpt lat="46.70352" lon="5.59993">
        <ele>335.64</ele>
        <time>2017-05-20T12:04:55Z</time>
      </trkpt>
      <trkpt lat="46.70358" lon="5.59987">
        <ele>334.68</ele>
        <time>2017-05-20T12:05:01Z</time>
      </trkpt>
      <trkpt lat="46.70371" lon="5.59971">
        <ele>334.2</ele>
        <time>2017-05-20T12:05:11Z</time>
      </trkpt>
      <trkpt lat="46.70375" lon="5.59967">
        <ele>334.2</ele>
        <time>2017-05-20T12:05:14Z</time>
      </trkpt>
      <trkpt lat="46.7038" lon="5.59964">
        <ele>334.2</ele>
        <time>2017-05-20T12:05:18Z</time>
      </trkpt>
      <trkpt lat="46.70384" lon="5.59959">
        <ele>334.2</ele>
        <time>2017-05-20T12:05:28Z</time>
      </trkpt>
      <trkpt lat="46.70396" lon="5.59944">
        <ele>333.23</ele>
        <time>2017-05-20T12:05:40Z</time>
      </trkpt>
      <trkpt lat="46.70407" lon="5.59934">
        <ele>333.23</ele>
        <time>2017-05-20T12:05:50Z</time>
      </trkpt>
      <trkpt lat="46.70416" lon="5.59928">
        <ele>332.75</ele>
        <time>2017-05-20T12:05:57Z</time>
      </trkpt>
      <trkpt lat="46.70421" lon="5.59926">
        <ele>332.75</ele>
        <time>2017-05-20T12:06:01Z</time>
      </trkpt>
      <trkpt lat="46.70433" lon="5.59918">
        <ele>332.75</ele>
        <time>2017-05-20T12:06:13Z</time>
      </trkpt>
      <trkpt lat="46.70446" lon="5.5991">
        <ele>332.75</ele>
        <time>2017-05-20T12:06:26Z</time>
      </trkpt>
      <trkpt lat="46.70456" lon="5.59905">
        <ele>332.75</ele>
        <time>2017-05-20T12:06:38Z</time>
      </trkpt>
      <trkpt lat="46.70458" lon="5.59903">
        <ele>333.23</ele>
        <time>2017-05-20T12:06:40Z</time>
      </trkpt>
      <trkpt lat="46.70464" lon="5.59899">
        <ele>332.75</ele>
        <time>2017-05-20T12:06:45Z</time>
      </trkpt>
      <trkpt lat="46.70477" lon="5.59885">
        <ele>332.75</ele>
        <time>2017-05-20T12:06:55Z</time>
      </trkpt>
      <trkpt lat="46.7048" lon="5.59878">
        <ele>332.27</ele>
        <time>2017-05-20T12:06:59Z</time>
      </trkpt>
      <trkpt lat="46.70488" lon="5.59867">
        <ele>332.75</ele>
        <time>2017-05-20T12:07:07Z</time>
      </trkpt>
      <trkpt lat="46.70491" lon="5.59863">
        <ele>332.75</ele>
        <time>2017-05-20T12:07:10Z</time>
      </trkpt>
      <trkpt lat="46.70493" lon="5.59861">
        <ele>332.75</ele>
        <time>2017-05-20T12:07:12Z</time>
      </trkpt>
      <trkpt lat="46.70502" lon="5.59848">
        <ele>332.75</ele>
        <time>2017-05-20T12:07:23Z</time>
      </trkpt>
      <trkpt lat="46.70514" lon="5.59837">
        <ele>333.71</ele>
        <time>2017-05-20T12:07:34Z</time>
      </trkpt>
      <trkpt lat="46.7052" lon="5.5983">
        <ele>333.71</ele>
        <time>2017-05-20T12:07:40Z</time>
      </trkpt>
      <trkpt lat="46.70534" lon="5.59821">
        <ele>334.2</ele>
        <time>2017-05-20T12:07:53Z</time>
      </trkpt>
      <trkpt lat="46.70539" lon="5.5982">
        <ele>334.68</ele>
        <time>2017-05-20T12:07:58Z</time>
      </trkpt>
      <trkpt lat="46.70554" lon="5.59828">
        <ele>335.64</ele>
        <time>2017-05-20T12:08:11Z</time>
      </trkpt>
      <trkpt lat="46.70568" lon="5.59834">
        <ele>337.08</ele>
        <time>2017-05-20T12:08:24Z</time>
      </trkpt>
      <trkpt lat="46.70575" lon="5.59833">
        <ele>337.56</ele>
        <time>2017-05-20T12:08:32Z</time>
      </trkpt>
      <trkpt lat="46.70588" lon="5.59831">
        <ele>338.04</ele>
        <time>2017-05-20T12:08:44Z</time>
      </trkpt>
      <trkpt lat="46.7059" lon="5.59831">
        <ele>338.04</ele>
        <time>2017-05-20T12:08:46Z</time>
      </trkpt>
      <trkpt lat="46.70593" lon="5.59828">
        <ele>337.56</ele>
        <time>2017-05-20T12:08:49Z</time>
      </trkpt>
      <trkpt lat="46.706" lon="5.59826">
        <ele>337.08</ele>
        <time>2017-05-20T12:08:54Z</time>
      </trkpt>
      <trkpt lat="46.70616" lon="5.59827">
        <ele>336.12</ele>
        <time>2017-05-20T12:09:07Z</time>
      </trkpt>
      <trkpt lat="46.70632" lon="5.59829">
        <ele>336.12</ele>
        <time>2017-05-20T12:09:20Z</time>
      </trkpt>
      <trkpt lat="46.70649" lon="5.59835">
        <ele>334.68</ele>
        <time>2017-05-20T12:09:34Z</time>
      </trkpt>
      <trkpt lat="46.70665" lon="5.59842">
        <ele>333.71</ele>
        <time>2017-05-20T12:09:47Z</time>
      </trkpt>
      <trkpt lat="46.70673" lon="5.59844">
        <ele>333.23</ele>
        <time>2017-05-20T12:09:53Z</time>
      </trkpt>
      <trkpt lat="46.70684" lon="5.59851">
        <ele>332.27</ele>
        <time>2017-05-20T12:10:04Z</time>
      </trkpt>
      <trkpt lat="46.70693" lon="5.5986">
        <ele>332.27</ele>
        <time>2017-05-20T12:10:16Z</time>
      </trkpt>
      <trkpt lat="46.70701" lon="5.59865">
        <ele>332.27</ele>
        <time>2017-05-20T12:10:23Z</time>
      </trkpt>
      <trkpt lat="46.70712" lon="5.59869">
        <ele>332.27</ele>
        <time>2017-05-20T12:10:33Z</time>
      </trkpt>
      <trkpt lat="46.70714" lon="5.59869">
        <ele>332.27</ele>
        <time>2017-05-20T12:10:35Z</time>
      </trkpt>
      <trkpt lat="46.70727" lon="5.59868">
        <ele>332.27</ele>
        <time>2017-05-20T12:10:46Z</time>
      </trkpt>
      <trkpt lat="46.7074" lon="5.59864">
        <ele>332.27</ele>
        <time>2017-05-20T12:10:57Z</time>
      </trkpt>
      <trkpt lat="46.7075" lon="5.59861">
        <ele>332.75</ele>
        <time>2017-05-20T12:11:02Z</time>
      </trkpt>
      <trkpt lat="46.70762" lon="5.59852">
        <ele>333.23</ele>
        <time>2017-05-20T12:11:10Z</time>
      </trkpt>
      <trkpt lat="46.70777" lon="5.59846">
        <ele>333.23</ele>
        <time>2017-05-20T12:11:20Z</time>
      </trkpt>
      <trkpt lat="46.7078" lon="5.59838">
        <ele>333.23</ele>
        <time>2017-05-20T12:11:33Z</time>
      </trkpt>
      <trkpt lat="46.70781" lon="5.59835">
        <ele>333.23</ele>
        <time>2017-05-20T12:11:50Z</time>
      </trkpt>
      <trkpt lat="46.70782" lon="5.59833">
        <ele>332.75</ele>
        <time>2017-05-20T12:12:05Z</time>
      </trkpt>
      <trkpt lat="46.70782" lon="5.59832">
        <ele>333.23</ele>
        <time>2017-05-20T12:12:26Z</time>
      </trkpt>
      <trkpt lat="46.70784" lon="5.5983">
        <ele>333.71</ele>
        <time>2017-05-20T12:12:39Z</time>
      </trkpt>
      <trkpt lat="46.70792" lon="5.59826">
        <ele>333.71</ele>
        <time>2017-05-20T12:12:48Z</time>
      </trkpt>
      <trkpt lat="46.70795" lon="5.59825">
        <ele>333.23</ele>
        <time>2017-05-20T12:12:51Z</time>
      </trkpt>
      <trkpt lat="46.70813" lon="5.59816">
        <ele>333.71</ele>
        <time>2017-05-20T12:13:04Z</time>
      </trkpt>
      <trkpt lat="46.70816" lon="5.59815">
        <ele>333.71</ele>
        <time>2017-05-20T12:13:06Z</time>
      </trkpt>
      <trkpt lat="46.70827" lon="5.59805">
        <ele>333.23</ele>
        <time>2017-05-20T12:13:15Z</time>
      </trkpt>
      <trkpt lat="46.70845" lon="5.59794">
        <ele>333.23</ele>
        <time>2017-05-20T12:13:31Z</time>
      </trkpt>
      <trkpt lat="46.70849" lon="5.59791">
        <ele>333.23</ele>
        <time>2017-05-20T12:13:35Z</time>
      </trkpt>
      <trkpt lat="46.70865" lon="5.59779">
        <ele>333.23</ele>
        <time>2017-05-20T12:13:49Z</time>
      </trkpt>
      <trkpt lat="46.70877" lon="5.59766">
        <ele>333.23</ele>
        <time>2017-05-20T12:14:00Z</time>
      </trkpt>
      <trkpt lat="46.70889" lon="5.59756">
        <ele>333.23</ele>
        <time>2017-05-20T12:14:12Z</time>
      </trkpt>
      <trkpt lat="46.70902" lon="5.5974">
        <ele>333.71</ele>
        <time>2017-05-20T12:14:25Z</time>
      </trkpt>
      <trkpt lat="46.7091" lon="5.5973">
        <ele>333.71</ele>
        <time>2017-05-20T12:14:37Z</time>
      </trkpt>
      <trkpt lat="46.70925" lon="5.59719">
        <ele>334.2</ele>
        <time>2017-05-20T12:14:49Z</time>
      </trkpt>
      <trkpt lat="46.70934" lon="5.59712">
        <ele>334.2</ele>
        <time>2017-05-20T12:15:00Z</time>
      </trkpt>
      <trkpt lat="46.70952" lon="5.59702">
        <ele>333.71</ele>
        <time>2017-05-20T12:15:12Z</time>
      </trkpt>
      <trkpt lat="46.70957" lon="5.59697">
        <ele>334.2</ele>
        <time>2017-05-20T12:15:16Z</time>
      </trkpt>
      <trkpt lat="46.70961" lon="5.59694">
        <ele>334.2</ele>
        <time>2017-05-20T12:15:20Z</time>
      </trkpt>
      <trkpt lat="46.70975" lon="5.59683">
        <ele>334.2</ele>
        <time>2017-05-20T12:15:32Z</time>
      </trkpt>
      <trkpt lat="46.70988" lon="5.59672">
        <ele>333.71</ele>
        <time>2017-05-20T12:15:44Z</time>
      </trkpt>
      <trkpt lat="46.71006" lon="5.59665">
        <ele>334.2</ele>
        <time>2017-05-20T12:15:58Z</time>
      </trkpt>
      <trkpt lat="46.7101" lon="5.59661">
        <ele>334.68</ele>
        <time>2017-05-20T12:16:08Z</time>
      </trkpt>
      <trkpt lat="46.7102" lon="5.59657">
        <ele>335.16</ele>
        <time>2017-05-20T12:16:18Z</time>
      </trkpt>
      <trkpt lat="46.71021" lon="5.59656">
        <ele>334.68</ele>
        <time>2017-05-20T12:16:20Z</time>
      </trkpt>
      <trkpt lat="46.71049" lon="5.59663">
        <ele>335.64</ele>
        <time>2017-05-20T12:16:35Z</time>
      </trkpt>
      <trkpt lat="46.71057" lon="5.5967">
        <ele>336.6</ele>
        <time>2017-05-20T12:16:47Z</time>
      </trkpt>
      <trkpt lat="46.71058" lon="5.5967">
        <ele>336.6</ele>
        <time>2017-05-20T12:17:10Z</time>
      </trkpt>
      <trkpt lat="46.71058" lon="5.5967">
        <ele>336.6</ele>
        <time>2017-05-20T12:17:25Z</time>
      </trkpt>
      <trkpt lat="46.71059" lon="5.5967">
        <ele>336.6</ele>
        <time>2017-05-20T12:17:38Z</time>
      </trkpt>
      <trkpt lat="46.71059" lon="5.5967">
        <ele>336.6</ele>
        <time>2017-05-20T12:18:01Z</time>
      </trkpt>
      <trkpt lat="46.71065" lon="5.59669">
        <ele>336.12</ele>
        <time>2017-05-20T12:18:07Z</time>
      </trkpt>
      <trkpt lat="46.71068" lon="5.59665">
        <ele>335.64</ele>
        <time>2017-05-20T12:18:11Z</time>
      </trkpt>
      <trkpt lat="46.7107" lon="5.59661">
        <ele>334.68</ele>
        <time>2017-05-20T12:18:14Z</time>
      </trkpt>
      <trkpt lat="46.71073" lon="5.59649">
        <ele>333.71</ele>
        <time>2017-05-20T12:18:23Z</time>
      </trkpt>
      <trkpt lat="46.71072" lon="5.59631">
        <ele>331.31</ele>
        <time>2017-05-20T12:18:36Z</time>
      </trkpt>
      <trkpt lat="46.71072" lon="5.59629">
        <ele>331.31</ele>
        <time>2017-05-20T12:18:57Z</time>
      </trkpt>
      <trkpt lat="46.71071" lon="5.59621">
        <ele>330.35</ele>
        <time>2017-05-20T12:19:03Z</time>
      </trkpt>
      <trkpt lat="46.71072" lon="5.59616">
        <ele>329.87</ele>
        <time>2017-05-20T12:19:06Z</time>
      </trkpt>
      <trkpt lat="46.71071" lon="5.59612">
        <ele>328.91</ele>
        <time>2017-05-20T12:19:09Z</time>
      </trkpt>
      <trkpt lat="46.71071" lon="5.59605">
        <ele>328.43</ele>
        <time>2017-05-20T12:19:14Z</time>
      </trkpt>
      <trkpt lat="46.71071" lon="5.59583">
        <ele>325.06</ele>
        <time>2017-05-20T12:19:26Z</time>
      </trkpt>
      <trkpt lat="46.71072" lon="5.59576">
        <ele>324.58</ele>
        <time>2017-05-20T12:19:31Z</time>
      </trkpt>
      <trkpt lat="46.71072" lon="5.5957">
        <ele>323.62</ele>
        <time>2017-05-20T12:19:34Z</time>
      </trkpt>
      <trkpt lat="46.7107" lon="5.59567">
        <ele>323.14</ele>
        <time>2017-05-20T12:19:36Z</time>
      </trkpt>
      <trkpt lat="46.71068" lon="5.59557">
        <ele>322.18</ele>
        <time>2017-05-20T12:19:42Z</time>
      </trkpt>
      <trkpt lat="46.71068" lon="5.59552">
        <ele>321.7</ele>
        <time>2017-05-20T12:19:45Z</time>
      </trkpt>
      <trkpt lat="46.71062" lon="5.59534">
        <ele>319.3</ele>
        <time>2017-05-20T12:19:57Z</time>
      </trkpt>
      <trkpt lat="46.71056" lon="5.59516">
        <ele>316.41</ele>
        <time>2017-05-20T12:20:09Z</time>
      </trkpt>
      <trkpt lat="46.7105" lon="5.59504">
        <ele>315.93</ele>
        <time>2017-05-20T12:20:20Z</time>
      </trkpt>
      <trkpt lat="46.7105" lon="5.59503">
        <ele>315.45</ele>
        <time>2017-05-20T12:20:23Z</time>
      </trkpt>
      <trkpt lat="46.71065" lon="5.59496">
        <ele>316.41</ele>
        <time>2017-05-20T12:20:37Z</time>
      </trkpt>
      <trkpt lat="46.71081" lon="5.59493">
        <ele>317.85</ele>
        <time>2017-05-20T12:20:51Z</time>
      </trkpt>
      <trkpt lat="46.711" lon="5.5949">
        <ele>317.85</ele>
        <time>2017-05-20T12:21:05Z</time>
      </trkpt>
      <trkpt lat="46.71118" lon="5.59491">
        <ele>317.37</ele>
        <time>2017-05-20T12:21:18Z</time>
      </trkpt>
      <trkpt lat="46.71135" lon="5.59496">
        <ele>317.37</ele>
        <time>2017-05-20T12:21:30Z</time>
      </trkpt>
      <trkpt lat="46.71154" lon="5.59503">
        <ele>316.89</ele>
        <time>2017-05-20T12:21:45Z</time>
      </trkpt>
      <trkpt lat="46.7117" lon="5.59508">
        <ele>315.45</ele>
        <time>2017-05-20T12:21:58Z</time>
      </trkpt>
      <trkpt lat="46.71192" lon="5.59515">
        <ele>314.97</ele>
        <time>2017-05-20T12:22:14Z</time>
      </trkpt>
      <trkpt lat="46.71209" lon="5.5952">
        <ele>314.49</ele>
        <time>2017-05-20T12:22:27Z</time>
      </trkpt>
      <trkpt lat="46.71215" lon="5.59522">
        <ele>314.49</ele>
        <time>2017-05-20T12:22:32Z</time>
      </trkpt>
      <trkpt lat="46.71234" lon="5.59526">
        <ele>314.49</ele>
        <time>2017-05-20T12:22:48Z</time>
      </trkpt>
      <trkpt lat="46.71238" lon="5.59526">
        <ele>314.01</ele>
        <time>2017-05-20T12:23:02Z</time>
      </trkpt>
      <trkpt lat="46.71239" lon="5.59526">
        <ele>314.49</ele>
        <time>2017-05-20T12:23:17Z</time>
      </trkpt>
      <trkpt lat="46.71244" lon="5.59526">
        <ele>314.01</ele>
        <time>2017-05-20T12:23:22Z</time>
      </trkpt>
      <trkpt lat="46.71253" lon="5.59527">
        <ele>314.01</ele>
        <time>2017-05-20T12:23:29Z</time>
      </trkpt>
      <trkpt lat="46.7127" lon="5.59527">
        <ele>313.53</ele>
        <time>2017-05-20T12:23:43Z</time>
      </trkpt>
      <trkpt lat="46.71289" lon="5.59527">
        <ele>312.09</ele>
        <time>2017-05-20T12:23:57Z</time>
      </trkpt>
      <trkpt lat="46.71307" lon="5.59527">
        <ele>311.6</ele>
        <time>2017-05-20T12:24:11Z</time>
      </trkpt>
      <trkpt lat="46.71322" lon="5.59528">
        <ele>310.64</ele>
        <time>2017-05-20T12:24:24Z</time>
      </trkpt>
      <trkpt lat="46.71337" lon="5.59529">
        <ele>309.68</ele>
        <time>2017-05-20T12:24:38Z</time>
      </trkpt>
      <trkpt lat="46.71351" lon="5.59534">
        <ele>308.72</ele>
        <time>2017-05-20T12:24:50Z</time>
      </trkpt>
      <trkpt lat="46.71365" lon="5.59541">
        <ele>308.24</ele>
        <time>2017-05-20T12:25:02Z</time>
      </trkpt>
      <trkpt lat="46.71375" lon="5.59548">
        <ele>307.28</ele>
        <time>2017-05-20T12:25:13Z</time>
      </trkpt>
      <trkpt lat="46.71389" lon="5.59557">
        <ele>306.32</ele>
        <time>2017-05-20T12:25:26Z</time>
      </trkpt>
      <trkpt lat="46.71405" lon="5.59564">
        <ele>306.32</ele>
        <time>2017-05-20T12:25:40Z</time>
      </trkpt>
      <trkpt lat="46.71423" lon="5.59565">
        <ele>305.36</ele>
        <time>2017-05-20T12:25:53Z</time>
      </trkpt>
      <trkpt lat="46.71438" lon="5.5956">
        <ele>304.88</ele>
        <time>2017-05-20T12:26:07Z</time>
      </trkpt>
      <trkpt lat="46.71454" lon="5.59552">
        <ele>304.39</ele>
        <time>2017-05-20T12:26:23Z</time>
      </trkpt>
      <trkpt lat="46.7147" lon="5.59546">
        <ele>304.88</ele>
        <time>2017-05-20T12:26:35Z</time>
      </trkpt>
      <trkpt lat="46.71475" lon="5.59541">
        <ele>305.36</ele>
        <time>2017-05-20T12:26:42Z</time>
      </trkpt>
      <trkpt lat="46.71479" lon="5.59538">
        <ele>305.36</ele>
        <time>2017-05-20T12:26:46Z</time>
      </trkpt>
      <trkpt lat="46.71483" lon="5.59538">
        <ele>305.36</ele>
        <time>2017-05-20T12:26:50Z</time>
      </trkpt>
      <trkpt lat="46.71497" lon="5.59534">
        <ele>305.36</ele>
        <time>2017-05-20T12:27:03Z</time>
      </trkpt>
      <trkpt lat="46.71513" lon="5.5953">
        <ele>305.84</ele>
        <time>2017-05-20T12:27:17Z</time>
      </trkpt>
      <trkpt lat="46.71518" lon="5.59527">
        <ele>305.84</ele>
        <time>2017-05-20T12:27:21Z</time>
      </trkpt>
      <trkpt lat="46.71525" lon="5.59524">
        <ele>306.32</ele>
        <time>2017-05-20T12:27:27Z</time>
      </trkpt>
      <trkpt lat="46.71535" lon="5.5952">
        <ele>306.32</ele>
        <time>2017-05-20T12:27:42Z</time>
      </trkpt>
      <trkpt lat="46.71543" lon="5.59521">
        <ele>306.32</ele>
        <time>2017-05-20T12:27:52Z</time>
      </trkpt>
      <trkpt lat="46.71561" lon="5.59524">
        <ele>306.8</ele>
        <time>2017-05-20T12:28:02Z</time>
      </trkpt>
      <trkpt lat="46.71578" lon="5.59529">
        <ele>307.76</ele>
        <time>2017-05-20T12:28:15Z</time>
      </trkpt>
      <trkpt lat="46.71596" lon="5.59537">
        <ele>308.72</ele>
        <time>2017-05-20T12:28:31Z</time>
      </trkpt>
      <trkpt lat="46.71603" lon="5.5955">
        <ele>309.68</ele>
        <time>2017-05-20T12:28:45Z</time>
      </trkpt>
      <trkpt lat="46.71599" lon="5.59562">
        <ele>310.64</ele>
        <time>2017-05-20T12:28:55Z</time>
      </trkpt>
      <trkpt lat="46.71595" lon="5.59571">
        <ele>311.12</ele>
        <time>2017-05-20T12:29:07Z</time>
      </trkpt>
      <trkpt lat="46.71583" lon="5.59565">
        <ele>310.64</ele>
        <time>2017-05-20T12:29:19Z</time>
      </trkpt>
      <trkpt lat="46.71571" lon="5.59576">
        <ele>311.6</ele>
        <time>2017-05-20T12:29:31Z</time>
      </trkpt>
      <trkpt lat="46.71565" lon="5.5959">
        <ele>313.05</ele>
        <time>2017-05-20T12:29:45Z</time>
      </trkpt>
      <trkpt lat="46.71565" lon="5.59592">
        <ele>309.68</ele>
        <time>2017-05-20T12:29:47Z</time>
      </trkpt>
      <trkpt lat="46.71565" lon="5.59592">
        <ele>313.53</ele>
        <time>2017-05-20T12:29:48Z</time>
      </trkpt>
      <trkpt lat="46.71565" lon="5.59592">
        <ele>313.05</ele>
        <time>2017-05-20T12:29:58Z</time>
      </trkpt>
      <trkpt lat="46.71564" lon="5.59591">
        <ele>313.53</ele>
        <time>2017-05-20T12:30:27Z</time>
      </trkpt>
      <trkpt lat="46.71564" lon="5.59593">
        <ele>313.05</ele>
        <time>2017-05-20T12:30:46Z</time>
      </trkpt>
      <trkpt lat="46.71564" lon="5.59594">
        <ele>317.85</ele>
        <time>2017-05-20T12:30:54Z</time>
      </trkpt>
      <trkpt lat="46.71564" lon="5.59594">
        <ele>314.01</ele>
        <time>2017-05-20T12:30:55Z</time>
      </trkpt>
      <trkpt lat="46.71563" lon="5.59596">
        <ele>313.05</ele>
        <time>2017-05-20T12:31:09Z</time>
      </trkpt>
    </trkseg>
  </trk>
</gpx>